[[{"header":{"parameterUnit":"m.s-1","parameterCategory":1,"la1":30.6,"la2":29.2853,"lo1":-89.7004,"lo2":-87.6739,"dy":0.0162,"dx":0.0183,"nx":112,"ny":82,"refTime":"2024-05-21T00:00:00:Z","depth":0,"parameterNumber":2,"parameterNumberName":"U-component_of_WINDS"},"data":[0.0,0.0,0.0,0.0,0.0,0.0,0.0,0.0,0.0,0.0,0.0,0.0,0.0,0.0,0.0,0.0,0.0,0.0,0.0,0.0,0.0,0.0,0.0,0.0,0.0,0.0,0.0,0.0,0.0,0.0,0.0,0.0,0.0,0.0,0.0,0.0,0.0,0.0,0.0,0.0,0.0,0.0,0.0,0.0,0.0,0.0,0.0,0.0,0.0,0.0,0.0,0.0,0.0,0.0,0.0,0.0,0.0,0.0,0.0,0.0,0.0,0.0,0.0,0.0,0.0,0.0,0.0,0.0,0.0,0.0,0.0,0.0,0.0,0.0,0.0,0.0,0.0,0.0,0.0,0.0,0.0,0.0,0.0,0.0,0.0,0.0,0.0,0.0,0.0,0.0,0.0,-0.637,-0.7223,-0.753,-0.7133,-0.6736,-0.5795,-0.4139,0.0,0.0,0.0,0.0,0.0,0.0,0.0,0.0,0.0,0.0,0.0,0.0,0.0,0.0,0.0,0.0,0.0,0.0,0.0,0.0,0.0,0.0,0.0,0.0,0.0,0.0,0.0,0.0,0.0,0.0,0.0,0.0,0.0,0.0,0.0,0.0,0.0,0.0,0.0,0.0,0.0,0.0,0.0,0.0,0.0,0.0,0.0,0.0,0.0,0.0,0.0,0.0,0.0,0.0,0.0,0.0,0.0,0.0,0.0,0.0,0.0,0.0,0.0,0.0,0.0,0.0,0.0,0.0,0.0,0.0,0.0,0.0,0.0,0.0,0.0,0.0,0.0,0.0,0.0,0.0,0.0,0.0,0.0,0.0,0.0,0.0,0.0,0.0,0.0,0.0,0.0,0.0,0.0,0.0,0.0,0.0,0.0,0.0,0.0,0.0,0.0,0.0,0.0,0.0,-0.5394,-0.6842,-0.7418,-0.753,-0.7133,-0.6736,-0.5715,-0.3875,0.0,0.0,0.0,0.0,0.0,0.0,0.0,0.0,0.0,0.0,0.0,0.0,0.0,0.0,0.0,0.0,0.0,0.0,0.0,0.0,0.0,0.0,0.0,0.0,0.0,0.0,0.0,0.0,0.0,0.0,0.0,0.0,0.0,0.0,0.0,0.0,0.0,0.0,0.0,0.0,0.0,0.0,0.0,0.0,0.0,0.0,0.0,0.0,0.0,0.0,0.0,0.0,0.0,0.0,0.0,0.0,0.0,0.0,0.0,0.0,0.0,0.0,0.0,0.0,0.0,0.0,0.0,0.0,0.0,0.0,0.0,0.0,0.0,0.0,0.0,0.0,0.0,0.0,0.0,0.0,0.0,0.0,0.0,0.0,0.0,0.0,0.0,0.0,0.0,0.0,0.0,0.0,0.0,0.0,0.0,0.0,0.0,0.0,0.0,0.0,0.0,0.0,0.0,-0.5173,-0.6158,-0.7297,-0.7386,-0.7216,-0.682,-0.6167,-0.5096,-0.3478,-0.2833,0.0,0.0,0.0,0.0,0.0,0.0,0.0,0.0,0.0,0.0,0.0,0.0,0.0,0.0,0.0,0.0,0.0,0.0,0.0,0.0,0.0,0.0,0.0,0.0,0.0,0.0,0.0,0.0,0.0,0.0,0.0,0.0,0.0,0.0,0.0,0.0,0.0,0.0,0.0,0.0,0.0,0.0,0.0,0.0,0.0,0.0,0.0,0.0,0.0,0.0,0.0,0.0,0.0,0.0,0.0,0.0,0.0,0.0,0.0,0.0,0.0,0.0,0.0,0.0,0.0,0.0,0.0,0.0,0.0,0.0,0.0,0.0,0.0,0.0,0.0,0.0,0.0,0.0,0.0,0.0,0.0,0.0,0.0,0.0,0.0,0.0,0.0,0.0,0.0,0.0,0.0,0.0,0.0,0.0,0.0,0.0,0.0,0.0,0.0,0.0,0.0,0.0,-0.6141,-0.6735,-0.7608,-0.7344,-0.6931,-0.6525,-0.5663,-0.4534,-0.3082,-0.229,0.0,0.0,0.0,0.0,0.0,0.0,0.0,0.0,0.0,0.0,0.0,0.0,0.0,0.0,0.0,0.0,0.0,0.0,0.0,0.0,0.0,0.0,0.0,0.0,0.0,0.0,0.0,0.0,0.0,0.0,0.0,0.0,0.0,0.0,0.0,0.0,0.0,0.0,0.0,0.0,0.0,0.0,0.0,0.0,0.0,0.0,0.0,0.0,0.0,0.0,0.0,0.0,0.0,0.0,0.0,0.0,0.0,0.0,0.0,0.0,0.0,0.0,0.0,0.0,0.0,0.0,0.0,0.0,0.0,0.0,0.0,0.0,0.0,0.0,0.0,0.0,0.0,0.0,0.0,0.0,0.0,0.0,0.0,0.0,0.0,0.0,0.0,0.0,0.0,0.0,0.0,0.0,0.0,0.0,0.0,0.0,0.0,0.0,0.0,0.0,0.0,0.0,-0.6382,-0.6735,-0.7608,-0.7344,-0.6931,-0.6525,-0.559,-0.4338,-0.2743,-0.1942,0.0,0.0,0.0,0.0,0.0,0.0,0.0,0.0,0.0,0.0,0.0,0.0,0.0,0.0,0.0,0.0,0.0,0.0,0.0,0.0,0.0,0.0,0.0,0.0,0.0,0.0,0.0,0.0,0.0,0.0,0.0,0.0,0.0,0.0,0.0,0.0,0.0,0.0,0.0,0.0,0.0,0.0,0.0,0.0,0.0,0.0,0.0,0.0,0.0,0.0,0.0,0.0,0.0,0.0,0.0,0.0,0.0,0.0,0.0,0.0,0.0,0.0,0.0,0.0,0.0,0.0,0.0,0.0,0.0,0.0,0.0,0.0,0.0,0.0,0.0,0.0,0.0,0.0,0.0,0.0,0.0,0.0,0.0,0.0,0.0,0.0,0.0,0.0,0.0,0.0,0.0,0.0,0.0,0.0,0.0,0.0,0.0,0.0,0.0,0.0,0.0,0.0,-0.6297,-0.6735,0.0,-0.7112,-0.6669,-0.651,-0.5119,-0.3777,-0.2671,0.0,0.0,0.0,0.0,0.0,0.0,0.0,0.0,0.0,0.0,0.0,0.0,0.0,0.0,0.0,0.0,0.0,0.0,0.0,0.0,0.0,0.0,0.0,0.0,0.0,0.0,0.0,0.0,0.0,0.0,0.0,0.0,0.0,0.0,0.0,0.0,0.0,0.0,0.0,0.0,0.0,0.0,0.0,0.0,0.0,0.0,0.0,0.0,0.0,0.0,0.0,0.0,0.0,0.0,0.0,0.0,0.0,0.0,0.0,0.0,0.0,0.0,0.0,0.0,0.0,0.0,0.0,0.0,0.0,0.0,0.0,0.0,0.0,0.0,0.0,0.0,0.0,0.0,0.0,0.0,0.0,0.0,0.0,0.0,0.0,0.0,0.0,0.0,0.0,0.0,0.0,0.0,0.0,0.0,0.0,0.0,0.0,0.0,0.0,0.0,0.0,0.0,-0.5922,-0.6285,-0.6687,0.0,-0.6904,-0.6442,-0.632,-0.4714,-0.3383,-0.2644,0.0,0.0,0.0,0.0,0.0,0.0,0.0,0.0,0.0,0.0,0.0,0.0,0.0,0.0,0.0,0.0,0.0,0.0,0.0,0.0,0.0,0.0,0.0,0.0,0.0,0.0,0.0,0.0,0.0,0.0,0.0,0.0,0.0,0.0,0.0,0.0,0.0,0.0,0.0,0.0,0.0,0.0,0.0,0.0,0.0,0.0,0.0,0.0,0.0,0.0,0.0,0.0,0.0,0.0,0.0,0.0,0.0,0.0,0.0,0.0,0.0,0.0,0.0,0.0,0.0,0.0,0.0,0.0,0.0,0.0,0.0,0.0,0.0,0.0,0.0,0.0,0.0,0.0,0.0,0.0,0.0,0.0,0.0,0.0,0.0,0.0,0.0,0.0,0.0,0.0,0.0,0.0,0.0,0.0,0.0,0.0,0.0,0.0,0.0,0.0,0.0,0.0,-0.6181,-0.6404,-0.6585,-0.7057,-0.6736,-0.6336,-0.5944,-0.4426,-0.3247,0.0,0.0,0.0,0.0,0.0,0.0,0.0,0.0,0.0,0.0,0.0,0.0,0.0,0.0,0.0,0.0,0.0,0.0,0.0,0.0,0.0,0.0,0.0,0.0,0.0,0.0,0.0,0.0,0.0,0.0,0.0,0.0,0.0,0.0,0.0,0.0,0.0,0.0,0.0,0.0,0.0,0.0,0.0,0.0,0.0,0.0,0.0,0.0,0.0,0.0,0.0,0.0,0.0,0.0,0.0,0.0,0.0,0.0,0.0,0.0,0.0,0.0,0.0,0.0,0.0,0.0,0.0,0.0,0.0,0.0,0.0,0.0,0.0,0.0,0.0,0.0,0.0,0.0,0.0,0.0,0.0,0.0,0.0,0.0,0.0,0.0,0.0,0.0,0.0,0.0,0.0,0.0,0.0,0.0,0.0,0.0,0.0,0.0,0.0,0.0,0.0,0.0,0.0,-0.6232,-0.6699,-0.7046,-0.7472,-0.6918,-0.6457,-0.6336,-0.4583,-0.3247,-0.2635,0.0,0.0,0.0,0.0,0.0,0.0,0.0,0.0,0.0,0.0,0.0,0.0,0.0,0.0,0.0,0.0,0.0,0.0,0.0,0.0,0.0,0.0,0.0,0.0,0.0,0.0,0.0,0.0,0.0,0.0,0.0,0.0,0.0,0.0,0.0,0.0,0.0,0.0,0.0,0.0,0.0,0.0,0.0,0.0,0.0,0.0,0.0,0.0,0.0,0.0,0.0,0.0,0.0,0.0,0.0,0.0,0.0,0.0,0.0,0.0,0.0,0.0,0.0,0.0,0.0,0.0,0.0,0.0,0.0,0.0,0.0,0.0,0.0,0.0,0.0,0.0,0.0,0.0,0.0,0.0,0.0,0.0,0.0,0.0,0.0,0.0,0.0,0.0,0.0,0.0,0.0,0.0,0.0,0.0,0.0,0.0,0.0,0.0,0.0,0.0,0.0,0.0,-0.6253,-0.6816,-0.7201,-0.7433,-0.688,-0.6442,-0.6275,-0.4695,-0.344,-0.2833,0.0,0.0,0.0,0.0,0.0,0.0,0.0,0.0,0.0,0.0,0.0,0.0,0.0,0.0,0.0,0.0,0.0,0.0,0.0,0.0,0.0,0.0,0.0,0.0,0.0,0.0,0.0,0.0,0.0,0.0,0.0,0.0,0.0,0.0,0.0,0.0,0.0,0.0,0.0,0.0,0.0,0.0,0.0,0.0,0.0,0.0,0.0,0.0,0.0,0.0,0.0,0.0,0.0,0.0,0.0,0.0,0.0,0.0,0.0,0.0,0.0,0.0,0.0,0.0,0.0,0.0,0.0,0.0,0.0,0.0,0.0,0.0,0.0,0.0,0.0,0.0,0.0,0.0,0.0,0.0,0.0,0.0,0.0,0.0,0.0,0.0,0.0,0.0,0.0,0.0,0.0,0.0,0.0,0.0,0.0,0.0,0.0,0.0,0.0,0.0,0.0,0.0,-0.6275,-0.6846,-0.7147,-0.7156,-0.6751,-0.6351,-0.5991,-0.4778,-0.3782,-0.3171,0.0,0.0,0.0,0.0,0.0,0.0,0.0,0.0,0.0,0.0,0.0,0.0,0.0,0.0,0.0,0.0,0.0,0.0,0.0,0.0,0.0,0.0,0.0,0.0,0.0,0.0,0.0,0.0,0.0,0.0,0.0,0.0,0.0,0.0,0.0,0.0,0.0,0.0,0.0,0.0,0.0,0.0,0.0,0.0,0.0,0.0,0.0,0.0,0.0,0.0,0.0,0.0,0.0,0.0,0.0,0.0,0.0,0.0,0.0,0.0,-0.838,0.0,0.0,0.0,0.0,0.0,0.0,0.0,0.0,0.0,0.0,0.0,0.0,0.0,0.0,0.0,0.0,0.0,0.0,0.0,0.0,0.0,0.0,0.0,0.0,0.0,0.0,0.0,0.0,0.0,0.0,0.0,0.0,0.0,0.0,0.0,0.0,0.0,0.0,0.0,0.0,0.0,-0.6326,-0.7086,-0.7569,-0.7574,-0.6933,-0.6473,-0.6381,-0.5115,-0.4064,-0.3449,-0.2402,0.0,0.0,0.0,0.0,0.0,0.0,0.0,0.0,0.0,0.0,0.0,0.0,0.0,0.0,0.0,0.0,0.0,0.0,0.0,0.0,0.0,0.0,0.0,0.0,0.0,0.0,0.0,0.0,0.0,0.0,0.0,0.0,0.0,0.0,0.0,0.0,0.0,0.0,0.0,0.0,0.0,0.0,0.0,0.0,0.0,0.0,0.0,0.0,0.0,0.0,0.0,0.0,0.0,0.0,0.0,0.0,0.0,0.0,0.0,0.0,-0.934,0.0,0.0,0.0,0.0,0.0,0.0,0.0,0.0,0.0,0.0,0.0,0.0,0.0,0.0,0.0,0.0,0.0,0.0,0.0,0.0,0.0,0.0,0.0,0.0,0.0,0.0,0.0,0.0,0.0,0.0,0.0,0.0,0.0,0.0,0.0,0.0,0.0,0.0,0.0,0.0,-0.6377,-0.7164,-0.7695,-0.7695,-0.6978,-0.6503,-0.6503,-0.5325,-0.4343,-0.3773,-0.2832,0.0,0.0,0.0,0.0,0.0,0.0,0.0,0.0,0.0,0.0,0.0,0.0,0.0,0.0,0.0,0.0,0.0,0.0,0.0,0.0,0.0,0.0,0.0,0.0,0.0,0.0,0.0,0.0,0.0,0.0,0.0,0.0,0.0,0.0,0.0,0.0,0.0,0.0,0.0,0.0,0.0,0.0,0.0,0.0,0.0,0.0,0.0,0.0,0.0,0.0,0.0,0.0,0.0,-1.2996,-1.2652,-1.2323,-1.2679,-1.2893,-1.2914,-1.1986,-1.1554,-1.1461,-1.0337,0.0,0.0,0.0,0.0,0.0,0.0,0.0,0.0,0.0,0.0,0.0,0.0,0.0,0.0,0.0,0.0,0.0,0.0,0.0,0.0,0.0,0.0,0.0,0.0,-0.8447,-0.8341,-0.6942,0.0,0.0,0.0,0.0,0.0,0.0,0.0,0.0,0.0,0.0,0.0,-0.6609,-0.733,-0.7797,-0.7723,-0.7046,-0.6554,-0.6397,-0.5472,-0.4668,-0.4178,-0.3328,-0.2495,0.0,0.0,0.0,0.0,0.0,0.0,0.0,0.0,0.0,0.0,0.0,0.0,0.0,0.0,0.0,0.0,0.0,0.0,0.0,0.0,0.0,0.0,0.0,0.0,0.0,0.0,0.0,0.0,0.0,0.0,0.0,0.0,-0.9736,-1.0352,0.0,0.0,0.0,0.0,0.0,0.0,0.0,0.0,0.0,0.0,0.0,0.0,0.0,-1.4564,-1.5409,-1.644,-1.6531,-1.5663,-1.6295,-1.6087,-1.5153,-1.4744,-1.4833,-1.5254,-1.5103,0.0,-1.2834,-1.1535,0.0,0.0,0.0,0.0,0.0,0.0,0.0,0.0,0.0,0.0,0.0,0.0,0.0,0.0,0.0,0.0,0.0,0.0,0.0,0.0,0.0,0.0,-0.996,-0.996,-1.0009,-0.9883,0.0,-0.7791,-0.648,-0.613,-0.5728,0.0,0.0,0.0,0.0,0.0,0.0,0.0,-0.7423,-0.7988,-0.8181,-0.7823,-0.7323,-0.6746,-0.6044,-0.5512,-0.5082,-0.471,-0.4137,-0.3399,-0.2496,-0.1633,0.0,0.0,0.0,0.0,0.0,0.0,0.0,0.0,0.0,0.0,0.0,0.0,0.0,0.0,0.0,0.0,0.0,0.0,0.0,0.0,0.0,0.0,0.0,0.0,0.0,0.0,0.0,0.0,0.0,-1.0405,-1.1313,-1.1512,-1.1386,-1.1204,0.0,0.0,0.0,0.0,0.0,0.0,0.0,0.0,0.0,-1.5491,-1.6192,-1.7009,-1.7986,-1.8322,-1.8406,-1.8231,-1.794,-1.7566,-1.7098,-1.6549,-1.6443,-1.6644,-1.6308,-1.5723,-1.4951,-1.3777,-1.2903,-1.2234,0.0,0.0,0.0,0.0,-1.1333,-1.1255,-1.1759,-1.1609,-1.1153,-1.0878,0.0,0.0,0.0,0.0,0.0,0.0,0.0,0.0,0.0,0.0,-1.1254,-1.148,-1.1286,-1.0968,-1.0772,-0.9856,-0.8749,0.0,-0.7495,-0.7148,-0.5981,0.0,0.0,0.0,0.0,-0.7369,-0.8018,-0.8467,-0.8555,-0.8087,-0.7473,-0.6844,-0.6183,-0.562,-0.5157,-0.4827,-0.444,-0.3815,-0.2922,-0.2188,-0.1386,0.0,0.0,0.0,0.0,0.0,0.0,0.0,0.0,0.0,0.0,0.0,0.0,0.0,0.0,0.0,0.0,0.0,0.0,0.0,0.0,0.0,0.0,0.0,0.0,0.0,0.0,0.0,0.0,-1.1992,-1.3021,-1.3045,-1.3291,-1.3276,0.0,0.0,0.0,0.0,0.0,0.0,-1.5847,-1.6606,-1.7293,-1.7753,-1.8487,-1.9295,-2.0202,-1.99,-1.998,-2.0345,-1.9189,-1.8634,-1.8608,-1.7926,-1.7589,-1.7564,-1.7137,-1.6926,-1.6848,-1.5613,-1.4601,-1.3792,-1.3257,-1.2793,-1.2546,-1.3328,-1.3378,-1.3156,-1.4003,-1.3956,-1.3424,-1.2944,-1.2705,-1.2374,-1.1202,0.0,0.0,0.0,0.0,-1.2323,-1.2936,-1.2771,-1.2526,-1.2775,-1.2498,-1.2101,-1.1815,-1.1475,-1.0811,0.0,-0.9102,-0.8704,-0.7314,0.0,0.0,0.0,0.0,-0.808,-0.8633,-0.8846,-0.875,-0.8255,-0.7526,-0.6822,-0.619,-0.5616,-0.5199,-0.4948,-0.4665,-0.414,-0.3311,-0.2649,-0.1866,-0.0952,0.0,0.0,0.0,0.0,0.0,0.0,0.0,0.0,0.0,0.0,0.0,0.0,0.0,0.0,0.0,0.0,0.0,0.0,0.0,0.0,0.0,0.0,0.0,0.0,0.0,0.0,0.0,0.0,0.0,-1.5827,-1.5197,0.0,0.0,0.0,0.0,-1.6382,-1.716,-1.7887,-1.8646,-1.9804,-2.0542,-2.0686,-2.1227,-2.154,-2.159,-2.157,-2.158,-2.158,-2.0387,-1.9814,-1.977,-1.8665,-1.8166,-1.8166,-1.8129,-1.8116,-1.799,-1.6333,-1.5618,-1.5517,-1.4984,-1.4765,-1.4733,-1.4783,-1.4796,-1.4783,-1.4839,-1.4504,-1.4126,-1.4524,-1.4317,-1.3808,-1.3286,-1.31,0.0,0.0,-1.3582,-1.3436,-1.4429,-1.4354,-1.3949,-1.3776,-1.3705,-1.3403,-1.2391,-1.2155,-1.1862,0.0,-1.0127,-0.9425,-0.8955,0.0,-0.8326,-0.8297,-0.8336,-0.8659,-0.9445,-0.9115,-0.8643,-0.8238,-0.7475,-0.6659,-0.58,-0.5461,-0.5286,-0.5273,-0.496,-0.4468,-0.3796,-0.3008,-0.2258,-0.1572,-0.0791,0.0,0.0,0.0,0.0,0.0,0.0,0.0,0.0,0.0,0.0,0.0,0.0,0.0,0.0,0.0,0.0,0.0,0.0,0.0,0.0,0.0,0.0,0.0,0.0,0.0,0.0,0.0,0.0,-1.7739,-1.8261,0.0,-1.8091,-1.8311,-1.8714,-1.9218,-1.9896,-2.0393,-2.068,-2.1103,-2.1376,-2.1405,-2.2017,-2.2343,-2.2343,-2.2333,-2.2352,-2.2331,-2.108,-2.0472,-2.0435,-1.9259,-1.8707,-1.8694,-1.8355,-1.8204,-1.8154,-1.7564,-1.7099,-1.6782,-1.6581,-1.6258,-1.5932,-1.5932,-1.5932,-1.5932,-1.5932,-1.5794,-1.5661,-1.5828,-1.5533,-1.5053,-1.4896,-1.4828,-1.4852,-1.5072,-1.5234,-1.5451,-1.5791,-1.549,-1.5054,-1.4982,-1.4365,-1.3703,-1.3323,-1.2912,-1.2559,-1.2259,-1.1465,-1.0674,-0.996,-0.9725,-0.953,-0.9211,-0.9172,-0.9377,-0.998,-0.958,-0.9067,-0.8584,-0.7756,-0.6918,-0.6098,-0.5742,-0.5363,-0.4886,-0.5022,-0.4631,-0.3523,-0.3284,-0.2724,-0.1747,-0.1233,-0.0768,0.0,0.0,0.0,0.0,0.0,0.0,0.0,0.0,0.0,0.0,0.0,0.0,0.0,0.0,0.0,0.0,0.0,0.0,0.0,0.0,0.0,0.0,0.0,0.0,0.0,0.0,-1.9211,-1.966,-2.054,-2.0995,-2.0737,-2.1154,-2.15,-2.1675,-2.2308,-2.2682,-2.2682,-2.2892,-2.3011,-2.3011,-2.3445,-2.3691,-2.3691,-2.368,-2.3551,-2.3305,-2.2505,-2.1733,-2.1036,-2.0294,-1.9711,-1.9246,-1.8894,-1.8744,-1.8744,-1.8744,-1.843,-1.7915,-1.7739,-1.7313,-1.681,-1.681,-1.6663,-1.65,-1.65,-1.65,-1.65,-1.65,-1.6249,-1.5969,-1.5969,-1.5969,-1.5969,-1.5969,-1.6233,-1.65,-1.65,-1.6194,-1.5842,-1.5654,-1.4835,-1.405,-1.3839,-1.3334,-1.2905,-1.2905,-1.2308,-1.1623,-1.1035,-1.0831,-1.0586,-1.0108,-1.004,-1.0098,-1.0283,-0.9677,-0.9099,-0.8736,-0.7747,-0.6884,-0.6253,-0.5773,-0.5248,-0.4635,-0.4762,-0.4379,-0.3279,-0.3274,-0.2844,-0.1885,-0.1498,-0.104,-0.05,0.0,0.0,0.0,0.0,0.0,0.0,0.0,0.0,0.0,0.0,0.0,0.0,0.0,0.0,0.0,0.0,0.0,0.0,0.0,0.0,0.0,0.0,0.0,-1.8792,-1.9393,-2.0322,-2.162,-2.1909,-2.222,-2.2736,-2.2922,-2.3171,-2.3633,-2.4261,-2.4634,-2.4634,-2.5247,-2.5615,-2.5615,-2.5615,-2.5615,-2.5615,-2.5615,-2.5254,-2.4556,-2.4654,-2.3621,-2.1667,-2.1783,-2.1095,-1.9849,-1.9836,-1.9823,-1.9823,-1.9811,-1.9484,-1.897,-1.8418,-1.789,-1.7423,-1.7423,-1.7049,-1.655,-1.655,-1.655,-1.655,-1.6525,-1.6525,-1.6525,-1.65,-1.65,-1.65,-1.65,-1.65,-1.65,-1.65,-1.65,-1.6358,-1.5742,-1.5141,-1.4537,-1.3933,-1.3334,-1.2905,-1.2905,-1.2539,-1.2223,-1.2223,-1.1875,-1.1457,-1.1016,-1.0928,0.0,-1.0371,-0.9368,-0.8695,-0.8695,-0.7452,-0.6506,-0.6236,-0.5561,-0.499,-0.4647,-0.4253,-0.3765,-0.316,-0.2996,-0.2631,-0.2011,-0.1541,-0.1122,-0.0733,0.0,0.0,0.0,0.0,0.0,0.0,0.0,0.0,0.0,0.0,0.0,0.0,0.0,0.0,0.0,0.0,0.0,0.0,0.0,0.0,0.0,0.0,-2.0872,-2.0872,-2.1829,-2.2847,-2.3693,-2.4253,-2.4655,-2.4784,-2.4842,-2.4908,-2.5038,-2.5217,-2.5322,-2.5322,-2.551,-2.5615,-2.5615,-2.5615,-2.5615,-2.5615,-2.5615,-2.5506,-2.5301,-2.4888,-2.411,-2.3032,-2.2577,-2.1888,-2.1004,-2.0629,-2.0453,-2.0427,-1.9974,-1.971,-1.9535,-1.8983,-1.8444,-1.7978,-1.7978,-1.7877,-1.7739,-1.7739,-1.7739,-1.7677,-1.7275,-1.7149,-1.7061,-1.6626,-1.65,-1.65,-1.65,-1.65,-1.65,-1.65,-1.65,-1.6358,-1.5742,-1.5141,-1.4537,-1.3933,-1.3334,-1.2905,-1.2905,-1.2807,-1.2705,-1.2705,-1.2334,-1.1979,-1.1862,-1.1297,0.0,-1.0752,-0.9549,-0.8695,-0.8695,-0.7602,-0.6787,-0.6512,-0.6131,-0.5639,-0.4996,-0.4952,-0.4632,-0.3933,-0.3667,-0.3064,-0.2015,-0.1685,-0.1465,0.0,0.0,0.0,0.0,0.0,0.0,0.0,0.0,0.0,0.0,0.0,0.0,0.0,0.0,0.0,0.0,0.0,0.0,0.0,0.0,0.0,0.0,-2.156,-2.2787,-2.3625,-2.3909,-2.4388,-2.5307,-2.5794,-2.6123,-2.6408,-2.6437,-2.6437,-2.6437,-2.6437,-2.6437,-2.6437,-2.6437,-2.6437,-2.6437,-2.6437,-2.6437,-2.6437,-2.6437,-2.614,-2.5514,-2.5463,-2.4615,-2.3043,-2.2962,-2.2407,-2.1468,-2.1182,-2.0905,-2.0666,-2.0327,-2.0024,0.0,0.0,0.0,0.0,0.0,-1.8204,-1.8204,-1.8204,-1.8204,-1.8154,-1.784,-1.7727,-1.7664,-1.7325,-1.7061,-1.6886,-1.6886,-1.6688,-1.65,-1.65,-1.65,-1.6358,-1.5742,-1.5141,-1.4537,-1.3933,-1.3334,-1.2905,-1.2905,-1.2905,0.0,-1.2905,-1.2666,-1.2418,-1.2233,-1.1775,-1.1307,-1.0957,-0.9754,-0.8882,-0.8712,-0.7682,-0.688,-0.6613,-0.6278,0.0,0.0,0.0,-0.4644,-0.4057,-0.3636,0.0,0.0,0.0,0.0,0.0,0.0,0.0,0.0,-0.0812,-0.0767,0.0,0.0,0.0,0.0,0.0,0.0,0.0,0.0,0.0,0.0,0.0,0.0,0.0,0.0,0.0,0.0,-2.3475,-2.4552,-2.6333,-2.5644,-2.5367,-2.6557,-2.6692,-2.6956,-2.754,-2.76,-2.763,-2.7705,-2.7645,-2.763,-2.7705,0.0,0.0,0.0,0.0,-2.756,-2.7484,-2.7575,-2.6864,-2.5398,-2.6149,-2.5094,-2.2542,-2.3191,-2.2834,-2.1669,-2.1606,-2.1333,-2.088,-2.0817,-2.0453,-1.9899,-1.9823,-1.9522,-1.9033,-1.8568,-1.838,-1.838,-1.838,0.0,0.0,-1.8317,-1.8292,-1.8292,-1.8229,-1.7865,-1.7498,-1.7498,-1.7061,-1.6588,-1.6588,-1.655,-1.6358,-1.5742,-1.5141,-1.4537,-1.3933,-1.3334,-1.2905,-1.2905,-1.2905,-1.2905,-1.2905,-1.2905,-1.2754,-1.234,-1.2233,-1.1921,-1.1141,-1.0034,-0.9173,-0.8807,0.0,0.0,-0.666,-0.6243,-0.5784,-0.5299,-0.4823,-0.4359,-0.3959,-0.3399,-0.3064,-0.3004,-0.2593,-0.236,-0.2304,-0.2304,-0.2293,-0.2267,-0.1699,-0.1446,0.0,0.0,0.0,0.0,0.0,0.0,0.0,0.0,0.0,0.0,0.0,0.0,0.0,0.0,0.0,-2.3977,-2.5241,-2.6153,-2.6566,-2.6851,-2.7121,-2.7375,-2.7405,-2.7465,-2.7585,-2.76,-2.7824,-2.8368,-2.7914,-2.7839,-2.8368,-2.7899,-2.76,-2.76,-2.76,-2.7306,-2.6721,-2.7306,-2.6864,-2.5398,0.0,0.0,-2.3919,-2.4063,-2.3635,-2.2757,-2.2347,-2.2096,-2.1958,-2.1506,-2.1031,-2.0478,-1.9987,-1.9748,-1.9635,-1.9535,-1.9497,-1.9497,-1.9497,-1.9497,-1.9422,-1.8983,-1.8845,-1.8757,-1.8342,-1.8129,0.0,-1.8053,-1.7639,-1.7234,-1.7234,-1.6873,-1.6358,-1.5742,-1.5141,-1.4537,-1.3933,-1.3334,-1.2905,-1.2905,-1.2905,-1.2905,-1.2905,-1.2905,-1.2876,-1.2773,-1.2428,-1.2145,-1.1969,-1.0405,-0.9265,-0.9198,-0.7878,-0.698,-0.692,-0.664,-0.6422,-0.6311,-0.5775,-0.5266,-0.4858,-0.4478,-0.4062,-0.3638,-0.3531,-0.3301,-0.2921,-0.2921,-0.287,-0.2757,-0.2419,-0.2327,0.0,0.0,0.0,0.0,0.0,0.0,0.0,0.0,0.0,0.0,0.0,-2.1201,0.0,0.0,-2.4687,-2.6324,-2.7171,-2.7709,-2.8064,-2.8393,-2.8483,-2.8154,-2.8109,-2.8244,-2.8573,-2.8603,-2.8753,-2.9071,-2.8798,-2.8753,-2.9071,-2.8783,-2.8603,-2.8603,-2.792,-2.7386,-2.7012,-2.6681,-2.5932,-2.4851,-2.5231,-2.4809,-2.3708,-2.3708,-2.3484,-2.3095,-2.2819,-2.2543,-2.2272,-2.1719,-2.1358,-2.1081,-2.0765,-2.03,-1.9798,-1.9798,-1.9798,-1.9798,-1.9798,-1.9798,-1.9761,-1.9497,-1.9384,-1.9334,-1.9083,-1.8819,-1.8594,-1.8594,-1.8216,-1.7727,-1.7473,-1.7184,-1.6707,-1.5814,-1.5141,-1.4537,-1.3933,-1.3334,-1.2905,-1.2905,-1.2905,-1.2905,-1.2905,-1.2905,-1.2905,-1.2905,-1.2695,-1.248,-1.2233,-1.1118,-1.0077,-0.9374,-0.8364,-0.7546,-0.7034,-0.6754,-0.6606,-0.6606,-0.6198,-0.5861,-0.5664,-0.5262,-0.4923,-0.466,-0.4459,-0.424,-0.4003,-0.4003,-0.3818,-0.3458,-0.3386,-0.3186,0.0,0.0,0.0,0.0,0.0,0.0,0.0,0.0,-2.0228,-2.2233,-2.3092,-2.4021,-2.5854,-2.6198,-2.6767,-2.8502,-2.8786,-2.8981,-2.9532,-2.9606,-2.9412,-2.8861,-2.8786,-2.9011,-2.9562,-2.9606,-2.9651,-2.9786,-2.9681,-2.9666,-2.9786,-2.9666,-2.9606,-2.9606,-2.8515,-2.7744,-2.7453,-2.6455,-2.5378,-2.423,-2.4405,-2.3988,-2.3108,-2.3108,-2.3108,-2.3108,-2.3108,-2.2844,-2.2406,-2.1995,-2.1744,-2.1644,-2.1644,-2.1029,-2.0125,-2.0125,-2.0062,-1.9962,-1.9962,-1.9899,-1.9798,-1.9798,-1.9798,-1.9773,-1.9631,-1.937,-1.9133,-1.897,-1.8659,-1.8207,-1.764,-1.7354,-1.6909,-1.5804,-1.5006,-1.4376,-1.3909,-1.3334,-1.2905,-1.2905,-1.2905,-1.2905,-1.2905,-1.2905,-1.2905,-1.2905,-1.2905,-1.2754,-1.2379,-1.1804,-1.0971,-0.9829,-0.8989,-0.8084,-0.709,-0.6807,-0.6673,-0.6673,-0.6419,-0.6277,-0.6277,-0.5863,-0.5646,-0.5646,-0.531,-0.5109,-0.5009,-0.5009,-0.4747,-0.4211,-0.4197,-0.3826,-1.7669,-1.7968,-1.8627,-1.9211,-1.9809,-2.0882,0.0,0.0,-2.3625,-2.563,-2.6093,-2.6587,-2.8008,-2.8263,-2.8532,-2.9367,-2.9502,-2.9517,-2.9592,-2.9606,-2.9577,-2.9517,-2.9502,-2.9532,-2.9592,-2.9606,-2.9804,-3.0357,-2.9894,-2.9819,-3.0372,-2.9879,-2.9606,-2.9606,-2.9451,-2.8675,-2.7244,-2.774,-2.6636,-2.4059,-2.471,-2.4348,-2.3108,-2.3108,-2.3108,-2.3108,-2.3108,-2.307,-2.3007,-2.2945,-2.2631,-2.2221,-2.2221,-2.1845,-2.1305,-2.1305,-2.1018,-2.0591,-2.0591,-2.0264,-1.9798,-1.9798,-1.9798,-1.9669,-1.9018,-1.9244,-1.9582,-1.8933,-1.8814,-1.8734,-1.8026,-1.7171,-1.6314,-1.5515,-1.4611,-1.3886,-1.3815,-1.3334,-1.2905,-1.2905,-1.2905,-1.2905,-1.2905,-1.2905,-1.2905,-1.2905,-1.2905,-1.2886,-1.2837,-1.1983,-1.1342,-1.1181,-0.9569,-0.8084,-0.709,-0.6973,-0.6953,-0.6953,-0.67,-0.6559,-0.6559,-0.6274,-0.6115,-0.6115,-0.6079,-0.585,-0.5441,-0.5441,-0.5285,-0.4969,-0.4441,-0.3873,-2.0468,-2.0797,0.0,0.0,-2.3071,-2.3954,-2.5435,-2.5839,-2.6282,-2.75,-2.8068,-2.8607,-2.9535,-2.9714,-2.9939,0.0,-3.0717,-3.0717,-3.0717,-3.0372,-3.0118,-3.0118,-2.9804,-2.9756,-3.0088,-3.0118,-3.0387,-3.1017,-3.0838,-3.0608,-3.0412,-3.0581,-3.0504,-3.0031,-2.9218,-2.8448,-2.7792,-2.6783,-2.5654,-2.4469,-2.4473,-2.4162,-2.3597,-2.3258,-2.3108,-2.3108,-2.3108,-2.3108,-2.3108,-2.3108,-2.297,-2.2757,-2.2757,-2.2619,-2.2372,-2.1732,-2.137,-2.1169,-2.1169,-2.0805,-2.0327,-2.0327,-2.0075,-1.9669,-1.8927,-1.8927,-1.9018,-1.8274,-1.844,-1.858,-1.7523,-1.7282,-1.6951,-1.5598,-1.4707,-1.4094,-1.3855,-1.3334,-1.2905,-1.2905,-1.2905,-1.2905,-1.2905,-1.2905,-1.2905,-1.2905,-1.2905,-1.2905,-1.2905,-1.2537,-1.2054,-1.1453,-0.9664,-0.834,-0.7918,-0.7334,-0.7,-0.7,-0.6886,-0.684,-0.684,-0.6727,-0.666,-0.666,-0.666,-0.6574,-0.6373,-0.6373,-0.6147,-0.5717,-0.5129,-0.4511,-2.2164,0.0,0.0,-2.459,-2.5651,-2.6557,-2.7036,-2.7675,-2.8349,-2.8981,-2.937,-2.9786,-3.0387,-3.0507,-3.0672,-3.1137,-3.1376,-3.1511,-3.1511,-3.0913,-3.0447,-3.0268,-2.9699,-2.949,-2.9939,-3.0088,-3.0476,-3.1182,-3.1174,-3.0896,-3.0329,-3.0837,-3.0807,-2.9981,-2.8946,-2.8322,-2.8074,-2.6419,-2.54,-2.5034,-2.4632,-2.4368,-2.4205,-2.3597,-2.3258,-2.3108,-2.3108,-2.3108,-2.3108,-2.3108,-2.3108,-2.3108,-2.3108,-2.3108,-2.3007,-2.2234,-2.1845,-2.1719,-2.1719,-2.1282,-2.0691,-2.0691,-2.0302,-1.9605,-1.8688,-1.8528,-1.8489,-1.755,-1.7813,-1.8139,-1.7008,-1.7021,-1.6988,-1.552,-1.4639,-1.408,-1.3776,-1.3304,-1.2905,-1.2905,-1.2905,-1.2905,-1.2905,-1.2905,-1.2905,-1.2905,-1.2905,-1.2905,-1.2905,-1.2905,-1.2503,-1.1518,-0.9975,-0.8879,-0.8518,-0.7659,-0.7086,-0.7006,-0.7,-0.7,-0.7,-0.7,-0.7,-0.7,-0.7,-0.7,-0.7,-0.7,-0.681,-0.6413,-0.5653,-0.5065,0.0,0.0,-2.4709,-2.5397,-2.7051,-2.8517,-2.8532,-2.9041,-2.9726,-3.0313,-2.9983,-2.9786,-3.0387,-3.0507,-3.0507,-3.0537,-3.1077,-3.1511,-3.1511,-3.0913,-3.0283,-2.9711,-2.9026,-2.8637,0.0,-2.9052,-2.9653,-3.0481,-3.0397,-3.0329,-3.0299,-3.0329,-2.995,-2.9066,-2.8989,-2.8561,-2.771,-2.7664,-2.6913,-2.5573,-2.5548,-2.5285,-2.475,-2.423,-2.3665,-2.3108,-2.3108,-2.3108,-2.3108,-2.3108,-2.3108,-2.3108,-2.3108,-2.3108,-2.3108,-2.3058,-2.2719,-2.2284,-2.2284,-2.1581,-2.0691,-2.0691,-2.0302,-1.9527,-1.807,-1.814,-1.8394,-1.695,-1.7062,-1.7457,-1.6687,-1.6227,-1.5771,-1.4986,-1.4165,-1.3522,-1.3512,-1.3189,-1.2905,-1.2905,-1.2905,-1.2905,-1.2905,-1.2905,-1.2905,-1.2905,-1.2905,-1.2905,-1.2905,-1.2905,-1.2503,-1.1518,-1.077,-0.9854,-0.8607,-0.7878,-0.735,-0.702,-0.7,-0.7,-0.7,-0.7,-0.7,-0.7,-0.7,-0.7,-0.7,-0.7,-0.7,-0.6958,-0.5819,-0.5281,0.0,0.0,-2.6303,-2.7859,-2.9056,-2.9983,-3.0419,-3.0357,-3.0253,-3.0462,-2.9669,-2.8996,-2.9205,-2.9235,-2.9385,-2.9819,-3.0432,-3.0972,-3.1436,-3.0913,-3.0283,-2.9681,-2.9011,0.0,0.0,0.0,0.0,-3.0419,-2.9958,-2.9583,-2.9445,-2.9442,-2.9034,-2.8149,-2.8149,-2.7986,-2.7703,-2.7162,-2.668,-2.6197,-2.5774,-2.5322,-2.4775,-2.46,-2.4412,-2.4199,-2.3835,-2.3703,-2.3678,-2.3258,-2.3108,-2.3108,-2.3108,-2.3108,-2.3108,-2.3108,-2.2995,-2.2832,-2.2832,-2.2343,-2.1694,-2.1358,-2.0855,-2.005,-1.8173,-1.7759,-1.7649,-1.6197,-1.6312,-1.6698,-1.595,-1.6028,-1.6039,-1.504,-1.4346,-1.3821,-1.3574,-1.3174,-1.2905,-1.2905,-1.2905,-1.2905,-1.2905,-1.2905,-1.2905,-1.2905,-1.2905,-1.2905,-1.2905,-1.2905,-1.2774,-1.244,-1.1599,-1.0698,-0.983,-0.8952,-0.8122,-0.7379,-0.7337,-0.7228,-0.7006,-0.7,-0.7,-0.7,-0.7,-0.7,-0.7,-0.7,-0.7,-0.6985,-0.6431,-0.589,-2.5375,-2.6617,-2.7724,-2.9475,-3.0387,-3.0898,-3.1092,-3.0821,-3.0372,-2.9924,-2.8786,-2.7889,-2.7889,-2.75,-2.7634,-2.9011,-2.9564,-3.0223,-3.1346,-3.0913,-3.0357,-2.9968,-2.934,-2.883,0.0,0.0,0.0,-2.9981,-2.952,-2.8991,-2.8575,-2.8524,-2.8149,-2.7284,-2.7263,-2.7263,-2.7263,-2.6748,-2.6499,-2.6487,-2.6122,-2.5624,-2.5096,-2.5096,-2.4996,-2.4775,-2.4443,-2.4293,-2.4255,-2.3647,-2.3409,-2.3396,-2.3183,-2.3108,-2.3108,-2.3108,-2.3108,-2.3108,-2.3108,-2.2744,-2.2221,-2.1669,-2.1144,-2.0364,-1.8546,-1.7825,-1.7357,-1.614,-1.595,-1.6007,-1.5526,-1.5748,-1.5908,-1.5182,-1.4678,-1.4287,-1.4023,-1.3516,-1.3105,-1.3105,-1.3013,-1.2905,-1.2905,-1.2905,-1.2905,-1.2905,-1.2905,-1.2905,-1.2905,-1.2905,-1.2905,-1.2905,-1.2085,-1.1334,-1.0796,-0.9952,-0.9028,-0.8068,-0.8009,-0.7757,-0.7194,-0.7181,-0.7128,-0.7006,-0.7128,-0.7181,-0.7181,-0.7273,-0.7326,-0.7304,-0.6688,-0.6137,-2.6378,-2.7694,-2.8996,-3.0238,-3.0987,-3.1271,-3.0657,-3.0417,-2.9998,-2.8757,-2.7395,-2.6447,0.0,0.0,-2.5457,-2.8068,-2.8577,-2.9325,-3.1227,-3.0943,-3.0537,0.0,0.0,0.0,0.0,0.0,0.0,-2.9245,0.0,-2.8561,-2.7802,-2.7703,-2.7284,-2.6521,-2.6499,-2.6499,-2.6499,-2.6499,-2.6499,-2.6499,-2.6499,-2.621,-2.5636,-2.5636,-2.5372,-2.4876,-2.4838,-2.4825,-2.4788,-2.4268,-2.4017,-2.3941,-2.3358,-2.3133,-2.3108,-2.3108,-2.3108,-2.3108,-2.3108,-2.2757,-2.2259,-2.1707,-2.1207,-2.0519,-1.9116,-1.8213,-1.7473,-1.6662,-1.595,-1.541,-1.541,-1.541,-1.541,-1.541,-1.5088,-1.4813,-1.4813,-1.4131,-1.351,-1.3516,-1.3164,-1.2905,-1.2905,-1.2905,-1.2905,-1.2905,-1.2905,-1.2905,-1.2905,-1.2905,-1.2905,-1.2905,-1.227,-1.171,-1.1395,-1.0789,-0.997,-0.8926,-0.8888,-0.8462,-0.7569,-0.7511,-0.7377,-0.7053,-0.737,-0.7511,-0.7511,-0.7789,-0.7905,-0.7882,-0.667,-0.6093,-2.8349,-2.94,-3.0223,-3.1032,-3.0987,-3.0717,-3.0552,-2.937,-2.8124,-2.7275,-2.5644,-2.4223,0.0,0.0,0.0,-2.6841,-2.8353,0.0,-3.1301,-3.1346,0.0,-3.0567,0.0,-3.0736,-3.0018,-2.9842,0.0,0.0,-2.7976,-2.7685,-2.8625,-2.7484,-2.6714,-2.6499,-2.6499,-2.6499,-2.6499,-2.6499,-2.6499,-2.6499,-2.6499,-2.6411,-2.6273,-2.6273,-2.6197,-2.6047,-2.5586,-2.5398,-2.536,-2.4833,-2.4368,-2.3979,-2.3841,-2.3484,-2.3108,-2.3108,-2.3108,-2.3108,-2.3108,-2.3007,-2.2807,-2.2284,-2.2008,-2.1468,-1.923,-1.843,-1.7899,-1.6185,-1.5555,-1.541,-1.541,-1.541,-1.541,-1.541,-1.5088,-1.4813,-1.4813,-1.4355,-1.386,-1.3574,-1.3164,-1.2905,-1.2905,-1.2905,-1.2905,-1.2905,-1.2905,-1.2905,-1.2905,-1.2905,-1.2905,-1.2905,-1.2715,-1.2184,-1.1063,-1.0806,-1.0087,-0.8609,-0.8521,-0.8317,-0.7822,-0.7792,-0.7752,-0.7679,-0.7746,-0.7792,-0.7792,-0.7866,-0.7905,-0.7888,-0.7831,-0.7211,-2.9609,-3.0462,-3.1017,-3.1406,-3.0987,-3.0283,-2.9415,-2.8169,-2.6731,-2.5204,-2.3744,0.0,0.0,0.0,0.0,0.0,0.0,0.0,-3.0793,-3.157,-3.1795,0.0,-3.1988,0.0,-3.1308,-3.1195,-3.0649,0.0,-2.8007,-2.7367,-2.7874,-2.7007,-2.6499,-2.6499,-2.6499,-2.6499,-2.6499,-2.6499,-2.6499,-2.6499,-2.6499,-2.6499,-2.6499,-2.6499,-2.6499,-2.6474,0.0,-2.5975,-2.5971,-2.5385,-2.4971,-2.4657,-2.418,-2.3803,-2.3446,-2.3195,-2.3108,-2.3108,-2.3108,-2.3108,-2.3007,-2.2456,-2.2309,-2.1915,-1.9876,-1.8908,-1.8196,-1.6636,-1.582,-1.541,-1.541,-1.541,-1.541,-1.541,-1.5234,-1.5059,-1.5059,-1.4727,-1.4238,-1.3633,-1.332,-1.3096,-1.2935,-1.2905,-1.2905,-1.2905,-1.2905,-1.2905,-1.2905,-1.2905,-1.2905,-1.2905,-1.2905,-1.2461,-1.1341,-1.1241,-1.0605,-0.9112,-0.901,-0.8744,-0.8136,-0.813,-0.8039,-0.7912,-0.8039,-0.813,-0.813,-0.8225,-0.8292,-0.8298,-0.8146,-0.748,-3.049,-3.1047,-3.1511,-3.1511,-3.0853,-2.9774,-2.8004,-2.6832,-2.5425,-2.2978,0.0,-2.1431,-2.1342,-2.1053,-2.1839,-2.4948,0.0,-2.75,-3.0133,-3.1509,-3.2317,-3.2497,-3.3095,-3.3192,-3.2443,-3.2259,-3.1535,-3.0118,-2.8551,-2.7374,-2.6679,-2.6555,-2.6499,-2.6499,-2.6499,-2.6499,-2.6499,-2.6499,-2.6499,-2.6499,-2.6499,-2.6499,-2.6499,-2.6499,-2.6499,-2.6499,-2.6499,-2.6499,-2.6449,-2.5946,-2.5661,-2.5498,-2.4506,-2.4067,-2.3929,-2.3321,-2.3108,-2.3108,-2.3108,-2.3108,-2.302,-2.2543,-2.2422,-2.2135,-2.0616,-1.9477,-1.8447,-1.7362,-1.6285,-1.5488,-1.543,-1.541,-1.541,-1.541,-1.541,-1.541,-1.541,-1.5078,-1.4598,-1.3818,-1.3584,-1.3389,-1.3027,-1.2944,-1.2905,-1.2905,-1.2905,-1.2905,-1.2905,-1.2905,-1.2905,-1.2905,-1.2905,-1.2608,-1.1864,-1.1715,-1.1141,-0.9891,-0.971,-0.9291,-0.8494,-0.8456,-0.831,-0.8025,-0.8297,-0.8456,-0.8456,-0.8684,-0.8804,-0.8778,-0.8156,-0.7396,-3.1308,-3.1406,-3.1511,-3.1511,-3.0195,-2.8697,-2.7809,-2.5494,0.0,0.0,0.0,-2.0045,-1.9493,-2.0557,-2.2248,-2.4425,0.0,0.0,0.0,0.0,-3.127,0.0,0.0,0.0,0.0,0.0,0.0,0.0,0.0,-2.7403,-2.7477,-2.685,-2.6499,-2.6499,-2.6499,-2.6499,-2.6499,-2.6499,-2.6499,-2.6499,-2.6499,-2.6499,-2.6499,-2.6499,-2.6499,-2.6499,-2.6499,0.0,-2.6487,-2.6386,-2.6059,-2.5536,-2.4921,-2.4406,-2.3929,-2.3321,-2.3108,-2.3108,-2.3108,-2.3108,-2.3083,-2.2995,-2.2957,-2.2575,-2.0568,-1.9802,-1.9183,-1.691,-1.6127,-1.5899,-1.5508,-1.541,-1.541,-1.541,-1.541,-1.541,-1.541,-1.5078,-1.4764,-1.459,-1.3994,-1.3486,-1.3408,-1.3105,-1.2905,-1.2905,-1.2905,-1.2905,-1.2905,-1.2905,-1.2905,-1.2905,-1.2905,-1.2608,-1.1864,-1.1291,-1.0644,-0.984,-0.929,-0.8909,-0.8738,-0.8731,-0.8711,-0.8657,-0.8704,-0.8731,-0.8731,-0.8784,-0.8804,-0.8804,-0.8672,-0.7883,-3.1431,-3.1511,-3.1421,-3.1062,-2.9789,-2.8066,-2.6091,0.0,0.0,0.0,0.0,-1.9286,-1.8969,0.0,0.0,0.0,0.0,0.0,0.0,0.0,0.0,0.0,0.0,0.0,0.0,0.0,0.0,0.0,0.0,-2.8366,-2.7126,-2.6714,-2.6499,-2.6499,-2.6499,-2.6499,-2.6499,-2.6499,-2.6499,-2.6499,-2.6499,-2.6499,-2.6499,-2.6499,-2.6499,-2.6499,-2.6499,-2.6499,-2.6499,-2.6499,-2.6336,-2.5963,-2.5146,-2.4625,-2.4318,-2.3434,-2.3108,-2.3108,-2.3108,-2.3108,-2.3035,-2.2598,-2.2476,-2.22,-2.0708,-1.9771,-1.888,-1.7226,-1.6447,-1.6046,-1.5831,-1.5586,-1.541,-1.541,-1.541,-1.541,-1.541,-1.5254,-1.5049,-1.4852,-1.4268,-1.3743,-1.3545,-1.3164,-1.2905,-1.2905,-1.2905,-1.2905,-1.2905,-1.2905,-1.2905,-1.2905,-1.2905,-1.2608,-1.1864,-1.1191,-1.0517,-0.984,-0.9159,-0.8804,-0.8804,-0.8804,-0.8804,-0.8804,-0.8804,-0.8804,-0.8804,-0.8804,-0.8804,-0.8804,-0.8804,-0.8023,-3.1149,-3.1391,-3.1346,-3.0672,-2.943,-2.7582,-2.4495,-2.261,0.0,0.0,-1.8263,-1.8593,-1.8708,0.0,0.0,0.0,0.0,0.0,0.0,0.0,0.0,0.0,0.0,0.0,0.0,0.0,0.0,0.0,0.0,-2.8847,-2.6773,-2.6562,-2.6499,-2.6499,-2.6499,-2.6499,-2.6499,-2.6499,-2.6499,-2.6499,-2.6499,-2.6499,-2.6499,-2.6499,-2.6499,-2.6499,-2.6499,-2.6499,-2.6499,-2.6499,-2.6499,-2.6386,-2.5259,-2.4788,-2.465,-2.3521,-2.3108,-2.3108,-2.3108,-2.3108,-2.2975,-2.2156,-2.1908,-2.169,-2.0655,-1.9587,-1.855,-1.7655,-1.6848,-1.6212,-1.6114,-1.5732,-1.541,-1.541,-1.541,-1.541,-1.541,-1.541,-1.5312,-1.498,-1.4492,-1.4007,-1.3675,-1.3213,-1.2905,-1.2905,-1.2905,-1.2905,-1.2905,-1.2905,-1.2905,-1.2905,-1.2905,-1.2666,-1.208,-1.1266,-1.0593,-1.0038,-0.9256,-0.8804,-0.8804,-0.8804,-0.8804,-0.8804,-0.8804,-0.8804,-0.8804,-0.8804,-0.8804,-0.8804,-0.8804,-0.8023,-3.0596,-3.1032,-3.1346,-3.0672,-2.9071,-2.7026,-2.4393,0.0,0.0,-1.7757,-1.7415,-1.7605,-1.8086,-1.8655,0.0,0.0,0.0,0.0,0.0,0.0,0.0,0.0,0.0,0.0,0.0,0.0,0.0,0.0,0.0,-2.7463,-2.7253,-2.6763,-2.6499,-2.6499,-2.6499,-2.6499,-2.6499,-2.6499,-2.6499,-2.6499,-2.6499,-2.6499,-2.6499,-2.6499,-2.6499,-2.6499,-2.6499,-2.6499,0.0,-2.6499,-2.6499,-2.6386,-2.5259,-2.4788,-2.465,-2.3521,-2.3108,-2.3108,-2.3108,-2.3108,-2.2975,-2.2156,-2.1908,-2.1585,-1.9911,-1.9333,-1.8998,-1.7744,-1.7041,-1.6541,-1.6202,-1.5732,-1.541,-1.541,-1.541,-1.541,-1.541,-1.541,-1.54,-1.5361,-1.466,-1.4094,-1.4055,-1.3408,-1.2905,-1.2905,-1.2905,-1.2905,-1.2905,-1.2905,-1.2905,-1.2905,-1.2905,-1.2881,-1.2798,-1.1559,-1.0762,-1.0712,-0.9517,-0.8804,-0.8804,-0.8804,-0.8804,-0.8804,-0.8804,-0.8804,-0.8804,-0.8804,-0.8804,-0.8804,-0.8804,-0.8023,-3.0081,-3.0702,-3.0761,-3.0118,-2.8783,-2.6758,-2.3516,0.0,-1.9469,-1.7268,-1.7076,-1.7463,-1.8007,-1.8535,-1.9255,0.0,-2.0726,-2.1684,0.0,0.0,0.0,0.0,0.0,0.0,0.0,0.0,0.0,0.0,0.0,-2.777,-2.777,-2.6977,-2.6499,-2.6499,-2.6499,-2.6499,-2.6499,-2.6499,-2.6499,-2.6499,-2.6499,-2.6499,-2.6499,-2.6499,-2.6499,-2.6499,-2.6499,-2.6499,0.0,-2.6499,-2.6499,-2.6411,-2.5598,-2.5096,-2.47,-2.3941,-2.3409,-2.3108,-2.3108,-2.3108,-2.2884,-2.1553,-2.1101,-2.0878,-1.965,-1.8944,-1.8398,-1.7904,-1.7451,-1.7021,-1.6582,-1.5937,-1.541,-1.541,-1.541,-1.541,-1.541,-1.541,-1.541,-1.541,-1.4932,-1.4443,-1.4153,-1.3617,-1.3174,-1.2944,-1.2905,-1.2905,-1.2905,-1.2905,-1.2905,-1.2905,-1.2905,-1.2725,-1.227,-1.135,-1.0644,-1.0218,-0.9309,-0.8804,-0.8804,-0.8804,-0.8804,-0.8804,-0.8804,-0.8804,-0.8804,-0.8804,-0.8804,-0.8804,-0.8804,-0.8023,-2.8742,-2.9639,-2.9789,-2.9172,-2.7887,-2.5904,0.0,0.0,-1.8992,-1.6913,-1.6795,-1.7271,-1.7967,-1.8419,-1.8893,-1.9584,-1.9872,-2.0636,-2.2448,0.0,0.0,0.0,0.0,0.0,0.0,0.0,0.0,0.0,-2.9062,-2.8285,-2.8109,-2.7218,-2.6663,-2.6499,-2.6499,-2.6499,-2.6499,-2.6499,-2.6499,-2.6499,-2.6499,-2.6499,-2.6499,-2.6499,-2.6499,-2.6499,-2.6499,-2.6499,0.0,-2.6499,-2.6499,-2.6436,-2.5858,-2.5272,-2.4725,-2.4205,-2.364,-2.3108,-2.3108,-2.3108,-2.2811,-2.1132,-2.059,-2.0398,-1.9276,-1.8496,-1.8008,-1.8008,-1.7705,-1.7256,-1.668,-1.6074,-1.5566,-1.5439,-1.541,-1.541,-1.541,-1.541,-1.541,-1.541,-1.5068,-1.4687,-1.4348,-1.3867,-1.3408,-1.3105,-1.2983,-1.2905,-1.2905,-1.2905,-1.2905,-1.2905,-1.2691,-1.2369,-1.1839,-1.1191,-1.0517,-0.984,-0.9159,-0.8804,-0.8804,-0.8804,-0.8804,-0.8804,-0.8804,-0.8804,-0.8804,-0.8804,-0.8804,-0.8804,-0.8804,-0.8129,-2.6273,-2.7604,-2.8457,-2.7794,-2.6204,-2.4178,0.0,-1.9661,-1.7968,-1.6751,-1.65,-1.6837,-1.7907,-1.8106,-1.8458,-1.953,-2.0258,-2.1171,-2.2508,0.0,0.0,0.0,0.0,0.0,0.0,0.0,0.0,0.0,-2.9754,0.0,-2.8134,-2.7582,-2.7065,-2.6512,-2.6499,-2.6499,-2.6499,-2.6499,-2.6499,-2.6499,-2.6499,-2.6499,-2.6499,-2.6499,-2.6499,-2.6499,-2.6499,-2.6499,0.0,-2.6499,-2.6499,-2.6436,-2.5858,-2.5272,-2.4725,-2.4205,-2.364,-2.3108,-2.3108,-2.3108,-2.2811,-2.1132,-2.059,-2.0268,-1.8529,-1.8008,-1.8008,-1.8008,-1.7705,-1.721,-1.633,-1.6095,-1.5977,-1.5508,-1.541,-1.541,-1.541,-1.541,-1.541,-1.541,-1.5068,-1.4813,-1.4775,-1.4072,-1.3506,-1.3496,-1.3145,-1.2905,-1.2905,-1.2905,-1.2905,-1.2905,-1.2236,-1.1814,-1.1789,-1.1191,-1.0517,-0.984,-0.9159,-0.8804,-0.8804,-0.8804,-0.8804,-0.8804,-0.8804,-0.8804,-0.8804,-0.8804,-0.8804,-0.8804,-0.8804,-0.8401,-2.4754,-2.5531,-2.5815,-2.5591,-2.4513,-2.2956,-2.0898,-1.9317,-1.785,-1.6279,-1.6237,-1.6596,-1.6943,-1.7614,-1.8641,-2.0253,-2.1015,0.0,0.0,0.0,0.0,0.0,0.0,0.0,0.0,0.0,0.0,-3.1143,-2.9446,-2.8285,-2.8109,-2.7218,-2.6675,-2.6499,-2.6499,-2.6499,-2.6499,-2.6499,-2.6499,-2.6499,-2.6499,-2.6499,-2.6499,-2.6499,-2.6499,-2.6499,-2.6499,-2.6499,-2.6499,-2.6499,-2.6499,-2.6474,-2.6298,-2.585,-2.5285,-2.4757,-2.4205,-2.3665,-2.3246,-2.2732,-2.2094,-2.0974,-2.0204,-1.9497,-1.8337,-1.8008,-1.8008,-1.8008,-1.7705,-1.7246,-1.667,-1.632,-1.5977,-1.5518,-1.541,-1.541,-1.541,-1.541,-1.541,-1.541,-1.5303,-1.5117,-1.4834,-1.4316,-1.3812,-1.3555,-1.3154,-1.2725,-1.2212,-1.2153,-1.1981,-1.1509,-1.1275,-1.1116,-1.1116,-1.0491,-0.984,-0.9159,-0.891,-0.8804,-0.8804,-0.8804,-0.8804,-0.8804,-0.8804,-0.8804,-0.8804,-0.8804,-0.8804,-0.8778,-0.8289,-0.791,0.0,-2.3532,-2.3578,-2.3578,-2.2553,-2.1173,-1.9753,-1.8326,-1.7013,-1.5913,-1.5969,-1.6262,-1.6461,-1.738,-1.8553,-1.9918,-2.0435,0.0,0.0,0.0,0.0,0.0,0.0,0.0,0.0,0.0,-3.0558,-3.1143,-2.9471,-2.8323,-2.8109,-2.7256,-2.6713,-2.6499,-2.6499,-2.6499,-2.6499,-2.6499,-2.6499,-2.6499,-2.6499,-2.6499,-2.6499,-2.6499,-2.6499,-2.6499,-2.6499,-2.6499,0.0,-2.6499,-2.6499,-2.6499,-2.6499,-2.6135,-2.5536,-2.5008,-2.4469,-2.3885,-2.296,-2.2322,-2.169,-2.0494,-1.9529,-1.8721,-1.8168,-1.8008,-1.8008,-1.8008,-1.7822,-1.7519,-1.709,-1.665,-1.6201,-1.5762,-1.5527,-1.541,-1.541,-1.541,-1.541,-1.541,-1.541,-1.5322,-1.5068,-1.4668,-1.4228,-1.3782,-1.3389,-1.2815,-1.1907,-1.1789,-1.1541,-1.0864,-1.0559,-1.0415,-1.0415,-1.0038,-0.951,-0.8831,-0.8804,-0.8804,-0.8804,-0.8804,-0.8804,-0.8804,-0.8804,-0.8804,-0.8804,-0.8804,-0.8804,-0.8778,-0.8321,-0.8103,0.0,0.0,0.0,0.0,-2.0283,-1.887,-1.8267,-1.6816,0.0,-1.558,-1.5663,-1.5843,-1.6356,-1.7341,-1.8305,-1.8932,-1.9113,0.0,0.0,0.0,0.0,0.0,0.0,0.0,0.0,-3.0931,-3.1143,-3.118,-2.9729,-2.8612,-2.8134,-2.7544,-2.7014,-2.6512,-2.6499,-2.6499,-2.6499,-2.6499,-2.6499,-2.6499,-2.6499,-2.6499,-2.6499,-2.6499,-2.6499,0.0,-2.6499,-2.6499,-2.6499,-2.6499,-2.6499,-2.6499,-2.6499,-2.6172,-2.5586,-2.4973,-2.4423,-2.3748,-2.2347,-2.1788,-2.1428,-1.9759,-1.8654,-1.8008,-1.8008,-1.8008,-1.8008,-1.8008,-1.8008,-1.791,-1.749,-1.708,-1.6629,-1.6202,-1.5782,-1.5449,-1.542,-1.541,-1.541,-1.541,-1.541,-1.541,-1.541,-1.5068,-1.4648,-1.4211,-1.3792,-1.3125,-1.1938,-1.1776,-1.1493,-1.0745,-1.009,-0.9744,-0.9744,-0.9744,-0.9465,-0.8831,-0.8804,-0.8804,-0.8804,-0.8804,-0.8804,-0.8804,-0.8804,-0.8804,-0.8804,-0.8804,-0.8804,-0.8804,-0.8804,-0.8804,-1.8225,0.0,-1.822,-1.822,-1.7376,-1.6498,0.0,-1.5679,-1.4959,-1.4563,0.0,0.0,-1.5863,-1.7097,-1.8602,-2.0165,-2.1187,-2.2349,0.0,0.0,0.0,0.0,0.0,0.0,0.0,-3.0502,-3.0419,-3.1143,-2.9407,-2.8247,-2.8109,-2.718,-2.6625,-2.6499,-2.6499,-2.6499,-2.6499,-2.6499,-2.6499,-2.6499,-2.6499,-2.6499,-2.6499,-2.6499,-2.6499,-2.6499,-2.6499,-2.6499,-2.6499,-2.6499,-2.6499,-2.6499,-2.6499,-2.6411,-2.612,-2.4837,-2.4023,-2.3415,-2.188,-2.073,-1.9716,-1.8664,-1.8168,-1.8008,-1.8008,-1.8008,-1.8008,-1.8008,-1.8008,-1.791,-1.749,-1.7305,-1.7031,-1.6281,-1.6016,-1.585,-1.5488,-1.541,-1.541,-1.541,-1.541,-1.541,-1.541,-1.5068,-1.4746,-1.4648,-1.4258,-1.3389,-1.1783,-1.1566,-1.097,-0.9435,-0.914,-0.9035,-0.9035,-0.9035,-0.8962,-0.8811,-0.8804,-0.8804,-0.8804,-0.8804,-0.8804,-0.8804,-0.8804,-0.8804,-0.8804,-0.8804,-0.8804,-0.8804,-0.8804,-0.8804,-1.6024,-1.6703,-1.7167,-1.712,-1.678,-1.641,-1.6138,0.0,0.0,0.0,0.0,0.0,0.0,0.0,0.0,0.0,-2.0629,0.0,0.0,0.0,0.0,0.0,0.0,0.0,0.0,-2.9859,-2.9606,-3.012,-2.8665,-2.772,-2.772,-2.6952,-2.6499,-2.6499,-2.6499,-2.6499,-2.6499,-2.6499,-2.6499,-2.6499,-2.6499,-2.6499,-2.6499,-2.6499,-2.6499,-2.6499,-2.6499,-2.6499,-2.6499,-2.6499,-2.6499,-2.6499,-2.6499,-2.6211,-2.5636,-2.4366,-2.3436,-2.2569,-2.0897,-1.9609,-1.863,-1.8134,-1.8008,-1.8008,-1.8008,-1.8008,-1.8008,-1.8008,-1.8008,-1.7959,-1.7734,-1.7529,-1.7298,-1.6809,-1.6388,-1.6026,-1.5791,-1.5557,-1.541,-1.541,-1.541,-1.541,-1.541,-1.5225,-1.501,-1.4842,-1.458,-1.377,-1.1927,-1.1687,-1.1051,-0.9384,-0.9212,-0.9152,-0.8991,-0.8978,-0.8918,-0.8818,-0.8804,-0.8804,-0.8804,-0.8804,-0.8804,-0.8804,-0.8804,-0.8804,-0.8804,-0.8804,-0.8804,-0.8804,-0.8804,-0.8804,-1.4593,-1.5935,-1.7127,-1.6918,-1.7008,-1.7014,-1.6498,0.0,0.0,0.0,0.0,0.0,0.0,0.0,0.0,0.0,0.0,0.0,0.0,0.0,0.0,0.0,0.0,0.0,-2.9666,-2.9214,-2.8863,-2.8775,-2.7858,-2.7281,-2.7281,-2.6788,-2.6499,-2.6499,-2.6499,-2.6499,-2.6499,-2.6499,-2.6499,-2.6499,-2.6499,-2.6499,-2.6499,-2.6499,-2.6499,-2.6499,0.0,0.0,-2.6499,-2.6499,-2.6418,-2.628,-2.628,-2.5652,-2.4637,-2.3557,-2.2605,-2.1559,-1.9714,-1.862,-1.8008,-1.8008,-1.8008,-1.8008,-1.8008,-1.8008,-1.8008,-1.8008,-1.8008,-1.8008,-1.8008,-1.7744,-1.7461,-1.7402,-1.6838,-1.6261,-1.6124,-1.5801,-1.5488,-1.542,-1.541,-1.541,-1.541,-1.541,-1.5293,-1.4932,-1.4883,-1.4195,-1.2251,-1.2013,-1.1406,-0.9853,-0.9715,-0.9579,-0.9297,-0.9277,-0.9171,-0.8958,-0.8858,-0.8804,-0.8804,-0.8804,-0.8804,-0.8804,-0.8804,-0.8804,-0.8804,-0.8804,-0.8804,-0.8804,-0.8804,-0.8804,-1.5502,-1.6218,-1.6466,-1.5882,-1.5843,-1.5928,-1.5836,0.0,0.0,0.0,0.0,0.0,0.0,0.0,0.0,0.0,0.0,0.0,0.0,0.0,0.0,0.0,0.0,-2.9603,-2.9076,-2.8938,-2.87,-2.8273,-2.7645,-2.7281,-2.7281,-2.6788,-2.6499,-2.6499,-2.6499,-2.6499,-2.6499,-2.6499,-2.6499,-2.6499,-2.6499,-2.6499,-2.6499,-2.6499,-2.6499,-2.6499,0.0,-2.6499,-2.6499,-2.6499,-2.599,-2.5229,-2.5229,-2.4636,-2.3557,-2.2205,-2.1403,-2.0723,-1.8831,-1.811,-1.8008,-1.8008,-1.8008,-1.8008,-1.8008,-1.8008,-1.8008,-1.8008,-1.8008,-1.8008,-1.8008,-1.7959,-1.7822,-1.7471,-1.7318,-1.7005,-1.6251,-1.6036,-1.5889,-1.5488,-1.541,-1.541,-1.541,-1.541,-1.5391,-1.5322,-1.5312,-1.4628,-1.275,-1.2505,-1.1784,-0.9909,-0.9715,-0.9666,-0.9619,-0.9619,-0.9593,-0.9552,-0.9078,-0.8804,-0.8804,-0.8804,-0.8804,-0.8804,-0.8804,-0.8804,-0.8804,-0.8804,-0.8804,-0.8804,-0.8804,-0.8804,-1.4341,-1.5069,-1.5705,-1.5973,-1.677,-1.7329,-1.6754,0.0,0.0,0.0,0.0,0.0,0.0,0.0,0.0,0.0,0.0,-2.4639,-2.6191,-2.6965,-2.7618,0.0,0.0,-2.8775,-2.8511,-2.821,-2.7934,-2.7682,-2.719,-2.6876,-2.6876,-2.6637,-2.6499,-2.6499,-2.6499,-2.6499,-2.6499,-2.6499,-2.6499,-2.6499,-2.6499,-2.6499,-2.6499,-2.6499,-2.6499,-2.6452,0.0,-2.599,-2.6418,-2.5311,-2.4921,-2.4933,-2.4409,-2.3551,-2.2504,-2.0859,-1.9859,-1.9142,-1.8316,-1.8008,-1.8008,-1.8008,-1.8008,-1.8008,-1.8008,-1.8008,-1.8008,-1.8008,-1.8008,-1.8008,-1.8008,-1.8008,-1.7959,-1.7764,-1.7549,-1.7207,-1.6562,-1.6261,-1.5958,-1.5498,-1.541,-1.541,-1.541,-1.541,-1.541,-1.541,-1.541,-1.4769,-1.3054,-1.2829,-1.2136,-1.038,-1.0191,-1.0124,-0.9933,-0.992,-0.9846,-0.9722,-0.9279,-0.9011,-0.9011,-0.8891,-0.8804,-0.8804,-0.8804,-0.8804,-0.8804,-0.8804,-0.8804,-0.8804,-0.8804,-0.8804,-1.3717,-1.4425,-1.5309,-1.6263,0.0,-1.8494,-1.806,0.0,0.0,0.0,0.0,0.0,0.0,-1.9761,0.0,-2.3183,-2.4004,-2.495,-2.659,-2.6752,-2.7069,-2.8083,-2.8163,-2.8059,-2.7921,-2.7532,-2.7266,-2.714,-2.6738,-2.6499,-2.6499,-2.6499,-2.6499,-2.6499,-2.6499,-2.6499,-2.6499,-2.6499,-2.6499,-2.6499,-2.6499,-2.6499,-2.6499,-2.6499,-2.6383,-2.6094,-2.5335,-2.53,-2.5687,-2.4145,-2.3818,-2.4228,-2.3441,-2.2413,-2.1182,-1.9687,-1.8662,-1.8008,-1.8008,-1.8008,-1.8008,-1.8008,-1.8008,-1.8008,-1.8008,-1.8008,-1.8008,-1.8008,-1.8008,-1.8008,-1.8008,-1.8008,-1.8008,-1.8008,-1.7764,-1.7412,-1.695,-1.6533,-1.6124,-1.5644,-1.5488,-1.541,-1.541,-1.541,-1.541,-1.541,-1.541,-1.4815,-1.3221,-1.3009,-1.2366,-1.0776,-1.0593,-1.0499,-1.0241,-1.0221,-1.0127,-0.993,-0.9546,-0.9317,-0.9317,-0.9038,-0.8884,-0.8884,-0.8844,-0.8804,-0.8804,-0.8804,-0.8804,-0.8804,-0.8804,-0.8804,-1.5261,-1.558,-1.5789,-1.6363,-1.6952,0.0,-1.9277,-1.9274,0.0,-1.9573,0.0,0.0,0.0,-2.1807,-2.3258,-2.4474,-2.5146,-2.5732,-2.6451,0.0,-2.7266,-2.7374,-2.7806,-2.7908,-2.7394,-2.7306,-2.7102,-2.66,-2.6512,-2.6499,-2.6499,-2.6499,-2.6499,-2.6499,-2.6499,-2.6499,-2.6499,-2.6499,-2.6499,-2.6499,-2.6499,-2.6499,-2.6499,-2.6499,-2.599,-2.5111,-2.5052,-2.4516,-2.3697,-2.3551,-2.2999,-2.2215,-2.214,-2.1052,-1.9426,-1.8857,-1.8364,-1.8008,-1.8008,-1.8008,-1.8008,-1.8008,-1.8008,-1.8008,-1.8008,-1.8008,-1.8008,-1.8008,-1.8008,-1.8008,-1.8008,-1.8008,-1.8008,-1.8008,-1.7988,-1.7852,-1.7432,-1.6992,-1.6553,-1.6134,-1.5693,-1.541,-1.541,-1.541,-1.541,-1.541,-1.541,-1.4815,-1.3221,-1.3009,-1.2366,-1.0776,-1.0593,-1.0586,-1.0566,-1.0559,-1.0553,-1.0533,-0.9997,-0.9653,-0.9653,-0.9337,-0.9178,-0.9178,-0.8918,-0.8804,-0.8804,-0.8804,-0.8804,-0.8804,-0.8804,-0.8804,-1.4588,-1.5449,-1.6258,-1.645,-1.7435,0.0,0.0,-1.994,-2.0703,-2.1232,-2.1603,0.0,0.0,0.0,-2.3916,-2.4662,-2.5561,-2.6248,-2.6461,-2.6675,-2.6801,-2.6801,-2.6989,-2.704,-2.6826,-2.6801,-2.6713,-2.6512,-2.6499,-2.6499,-2.6499,-2.6499,-2.6499,-2.6499,-2.6499,-2.6499,-2.6499,-2.6499,-2.6499,-2.6499,-2.6499,-2.6499,-2.6499,-2.6499,-2.5943,-2.4969,-2.4337,-2.3854,-2.3404,-2.2199,-2.1821,-2.1893,-2.1022,-1.9952,-1.8822,-1.8666,-1.8334,-1.8008,-1.8008,-1.8008,-1.8008,-1.8008,-1.8008,-1.8008,-1.8008,-1.8008,-1.8008,-1.8008,-1.8008,-1.8008,-1.8008,-1.8008,-1.8008,-1.8008,-1.8008,-1.79,-1.7471,-1.7041,-1.657,-1.6183,-1.5703,-1.541,-1.541,-1.541,-1.541,-1.541,-1.4962,-1.4234,-1.313,-1.2573,-1.1841,-1.0713,-1.0593,-1.0593,-1.0593,-1.0593,-1.0593,-1.0593,-1.018,-0.9953,-0.9953,-0.9673,-0.9519,-0.9519,-0.9412,-0.9352,-0.9352,-0.9138,-0.9051,-0.9044,-0.8891,-0.8804,-1.4387,-1.5286,-1.6287,-1.645,0.0,0.0,-1.966,-2.0677,-2.1744,-2.2661,-2.312,0.0,0.0,0.0,0.0,0.0,-2.5883,-2.6499,-2.6499,-2.6499,-2.6499,-2.6499,-2.6499,-2.6499,-2.6499,-2.6499,-2.6499,-2.6499,-2.6499,-2.6499,-2.6499,-2.6499,-2.6499,-2.6499,-2.6499,-2.6499,-2.6499,-2.6499,-2.6499,-2.6499,-2.6499,-2.6499,-2.6499,-2.6499,-2.5769,-2.4492,-2.3818,-2.3147,-2.2489,-2.1155,-2.0883,-2.1223,-2.0135,-1.9277,-1.8588,-1.8451,-1.8252,-1.8008,-1.8008,-1.8008,-1.8008,-1.8008,-1.8008,-1.8008,-1.8008,-1.8008,-1.8008,-1.8008,-1.8008,-1.8008,-1.8008,-1.8008,-1.8008,-1.8008,-1.8008,-1.793,-1.7646,-1.7246,-1.6807,-1.6357,-1.5918,-1.5566,-1.5439,-1.541,-1.541,-1.541,-1.4932,-1.4213,-1.313,-1.2512,-1.1779,-1.0713,-1.0593,-1.0593,-1.0593,-1.0593,-1.0593,-1.0593,-1.0367,-1.0254,-1.0254,-0.998,-0.982,-0.982,-0.9733,-0.9715,-0.9715,-0.9479,-0.9351,-0.9351,-0.9172,-0.9085,-1.5047,-1.5299,-1.5856,0.0,0.0,0.0,-2.1129,-2.1506,-2.1995,-2.3678,0.0,-2.418,-2.47,0.0,0.0,-2.5511,-2.6122,-2.6499,-2.6499,-2.6499,-2.6499,-2.6499,-2.6499,-2.6499,-2.6499,-2.6499,-2.6499,-2.6499,-2.6499,-2.6499,-2.6499,-2.6499,-2.6499,-2.6499,-2.6499,-2.6499,-2.6499,-2.6499,-2.6499,-2.6499,-2.6499,-2.6499,-2.6499,-2.6499,-2.5394,-2.3514,-2.3514,-2.2414,-2.0605,-2.0595,-2.0303,-1.9863,-1.9443,-1.9014,-1.8549,-1.8164,-1.8008,-1.8008,-1.8008,-1.8008,-1.8008,-1.8008,-1.8008,-1.8008,-1.8008,-1.8008,-1.8008,-1.8008,-1.8008,-1.8008,-1.8008,-1.8008,-1.8008,-1.8008,-1.8008,-1.8008,-1.8008,-1.7676,-1.7256,-1.6785,-1.6367,-1.5958,-1.5488,-1.541,-1.541,-1.541,-1.5381,-1.4805,-1.3191,-1.2978,-1.2366,-1.0776,-1.0593,-1.0593,-1.0593,-1.0593,-1.0593,-1.0593,-1.0593,-1.0593,-1.0593,-1.0274,-1.009,-1.009,-0.984,-0.9722,-0.9722,-0.9693,-0.9715,-0.9715,-0.9715,-0.9715,-1.5047,-1.6153,0.0,-1.7664,0.0,0.0,0.0,-2.2962,0.0,0.0,0.0,-2.5172,-2.5335,0.0,0.0,-2.5573,-2.6122,-2.6499,-2.6499,-2.6499,-2.6499,-2.6499,-2.6499,-2.6499,-2.6499,-2.6499,-2.6499,-2.6499,-2.6499,-2.6499,-2.6499,-2.6499,-2.6499,-2.6499,-2.6499,-2.6499,-2.6499,-2.6499,-2.6499,-2.6499,-2.5769,-2.5804,-2.6499,-2.6499,-2.5394,-2.3514,-2.3514,-2.2414,-2.0576,-2.0234,-1.9678,-1.8968,-1.8841,-1.8539,-1.8149,-1.8057,-1.8008,-1.8008,-1.8008,-1.8008,-1.8008,-1.8008,-1.8008,-1.8008,-1.8008,-1.8008,-1.8008,-1.8008,-1.8008,-1.8008,-1.8008,-1.8008,-1.8008,-1.8008,-1.8008,-1.8008,-1.8008,-1.7676,-1.7256,-1.6785,-1.6367,-1.5958,-1.5488,-1.541,-1.541,-1.541,-1.4451,-1.3122,-1.1514,-1.1296,-1.1115,-1.0656,-1.0593,-1.0593,-1.0593,-1.0593,-1.0593,-1.0593,-1.0593,-1.0593,-1.0593,-1.0506,-1.0459,-1.0459,-1.0372,-1.0332,-1.0332,-1.0094,-0.9987,-0.998,-0.978,-0.9715,-1.5575,-1.6835,0.0,-1.8731,-2.0589,-2.2594,-2.381,0.0,0.0,0.0,0.0,-2.5661,-2.59,-2.5749,0.0,-2.5933,-2.6273,-2.6499,-2.6499,-2.6499,-2.6499,-2.6499,-2.6499,-2.6499,-2.6499,-2.6499,-2.6499,-2.6499,-2.6499,-2.6499,-2.6499,-2.6499,-2.6499,-2.6499,-2.6499,-2.6499,-2.6499,-2.6499,-2.6499,-2.6499,-2.5873,-2.5699,-2.5873,-2.5499,-2.4433,-2.2877,-2.2322,-2.1401,-2.0273,-1.9844,-1.9221,-1.8598,-1.8598,-1.8344,-1.8008,-1.8008,-1.8008,-1.8008,-1.8008,-1.8008,-1.8008,-1.8008,-1.8008,-1.8008,-1.8008,-1.8008,-1.8008,-1.8008,-1.8008,-1.8008,-1.8008,-1.8008,-1.8008,-1.8008,-1.8008,-1.8008,-1.8008,-1.7812,-1.751,-1.707,-1.6631,-1.6191,-1.5742,-1.5253,-1.4932,-1.4932,-1.3537,-1.2174,-1.1195,-1.0807,-1.0593,-1.0593,-1.0593,-1.0593,-1.0593,-1.0593,-1.0593,-1.0593,-1.0593,-1.0593,-1.0593,-1.0593,-1.0593,-1.0593,-1.0593,-1.0593,-1.0593,-1.0412,-1.0294,-1.0287,-1.0144,-1.0064,-1.6274,0.0,0.0,-1.9673,-2.1292,0.0,-2.5209,0.0,-2.5858,-2.6386,0.0,-2.5837,-2.6399,-2.6059,-2.585,-2.6411,-2.6499,-2.6499,-2.6499,-2.6499,-2.6499,-2.6499,-2.6499,-2.6499,-2.6499,-2.6499,-2.6499,-2.6499,-2.6499,-2.6499,-2.6499,-2.6499,-2.6499,-2.6499,-2.6499,-2.6499,-2.6499,-2.6499,-2.6499,-2.6499,-2.6302,-2.5769,-2.4826,-2.4,-2.3036,-2.1931,-2.0494,-1.9893,-1.9824,-1.9394,-1.8975,-1.8549,-1.8549,-1.8315,-1.8008,-1.8008,-1.8008,-1.8008,-1.8008,-1.8008,-1.8008,-1.8008,-1.8008,-1.8008,-1.8008,-1.8008,-1.8008,-1.8008,-1.8008,-1.8008,-1.8008,-1.8008,-1.8008,-1.8008,-1.8008,-1.8008,-1.8008,-1.8008,-1.7881,-1.7461,-1.7031,-1.657,-1.609,-1.5016,-1.4145,-1.3995,-1.2749,-1.1764,-1.171,-1.1045,-1.0593,-1.0593,-1.0593,-1.0593,-1.0593,-1.0593,-1.0593,-1.0593,-1.0593,-1.0593,-1.0593,-1.0593,-1.0593,-1.0593,-1.0593,-1.0593,-1.0593,-1.0593,-1.0593,-1.0593,-1.0593,-1.0593,0.0,-1.7325,0.0,0.0,0.0,0.0,0.0,0.0,-2.6348,-2.6461,-2.6399,-2.6348,-2.6474,-2.6386,-2.6348,-2.6474,-2.6499,-2.6499,-2.6499,-2.6499,-2.6499,-2.6499,-2.6499,-2.6499,-2.6499,-2.6499,-2.6499,-2.6499,-2.6499,-2.6499,-2.6499,-2.6499,-2.6499,-2.6499,-2.6499,-2.6499,-2.6499,-2.6499,-2.6499,-2.6487,-2.4909,-2.4036,-2.3854,-2.4409,-2.3708,-2.1931,-2.0494,-1.9727,-1.9385,-1.8955,-1.849,-1.8144,-1.8144,-1.8086,-1.8008,-1.8008,-1.8008,-1.8008,-1.8008,-1.8008,-1.8008,-1.8008,-1.8008,-1.8008,-1.8008,-1.8008,-1.8008,-1.8008,-1.8008,-1.8008,-1.8008,-1.8008,-1.8008,-1.8008,-1.8008,-1.8008,-1.8008,-1.8008,-1.7881,-1.7461,-1.7031,-1.6437,-1.5606,-1.4765,-1.3786,-1.2504,-1.2012,-1.1555,-1.0926,-1.0713,-1.0593,-1.0593,-1.0593,-1.0593,-1.0593,-1.0593,-1.0593,-1.0593,-1.0593,-1.0593,-1.0593,-1.0593,-1.0593,-1.0593,-1.0593,-1.0593,-1.0593,-1.0593,-1.0593,-1.0593,-1.0593,-1.0593,0.0,0.0,0.0,0.0,0.0,0.0,0.0,0.0,0.0,0.0,-2.6499,-2.6499,-2.6499,-2.6499,-2.6499,-2.6499,-2.6499,-2.6499,-2.6499,-2.6499,-2.6499,-2.6499,-2.6499,-2.6499,-2.6499,-2.6499,-2.6499,-2.6499,-2.6499,-2.6499,-2.6499,-2.6499,-2.6499,-2.6499,-2.6499,-2.6499,-2.6499,-2.6499,-2.6499,-2.6487,-2.4719,-2.3283,-2.2233,-2.2691,-2.2184,-2.0954,-2.0009,-1.9365,-1.8945,-1.8481,-1.8178,-1.8008,-1.8008,-1.8008,-1.8008,-1.8008,-1.8008,-1.8008,-1.8008,-1.8008,-1.8008,-1.8008,-1.8008,-1.8008,-1.8008,-1.8008,-1.8008,-1.8008,-1.8008,-1.8008,-1.8008,-1.7681,-1.732,-1.732,-1.732,-1.7467,-1.7896,-1.7647,-1.74,-1.7658,-1.6953,-1.6141,-1.5665,-1.427,-1.2844,-1.1599,-1.1318,-1.1076,-1.0649,-1.0593,-1.0593,-1.0593,-1.0593,-1.0593,-1.0593,-1.0593,-1.0593,-1.0593,-1.0593,-1.0593,-1.0593,-1.0593,-1.0593,-1.0593,-1.0593,-1.0593,-1.0593,-1.0593,-1.0593,-1.0593,-1.0593,-1.0593,0.0,0.0,0.0,0.0,0.0,0.0,0.0,0.0,0.0,0.0,-2.6499,-2.6499,-2.6499,-2.6499,-2.6499,-2.6499,-2.6499,-2.6499,-2.6499,-2.6499,-2.6499,-2.6499,-2.6499,-2.6499,-2.6499,-2.6499,-2.6499,-2.6499,-2.6499,-2.6499,-2.6499,-2.6499,-2.6449,-2.6348,-2.6348,-2.6298,-2.621,-2.621,-2.621,-2.6197,-2.4645,-2.2706,-2.0538,-2.0424,-2.0146,-1.9785,-1.9355,-1.8965,-1.8568,-1.8184,-1.8008,-1.8008,-1.8008,-1.8008,-1.8008,-1.8008,-1.8008,-1.8008,-1.8008,-1.8008,-1.8008,-1.8008,-1.8008,-1.8008,-1.8008,-1.8008,-1.8008,-1.8008,-1.8008,-1.7974,-1.7794,-1.7173,-1.6567,-1.6384,-1.6245,-1.6358,-1.7329,-1.6897,-1.6602,-1.7364,-1.6451,-1.5477,-1.538,-1.357,-1.189,-1.1168,-1.0894,-1.074,-1.074,-1.074,-1.072,-1.0673,-1.0667,-1.0646,-1.0593,-1.0593,-1.0593,-1.0593,-1.0593,-1.0593,-1.0593,-1.0593,-1.0593,-1.0593,-1.0593,-1.0593,-1.0593,-1.0593,-1.0593,-1.0593,-1.0593,-1.0593,0.0,0.0,0.0,0.0,0.0,0.0,0.0,0.0,0.0,0.0,-2.6499,-2.6499,-2.6499,-2.6499,-2.6499,-2.6499,-2.6499,-2.6499,-2.6499,-2.6499,-2.6499,-2.6499,-2.6499,-2.6499,-2.6499,-2.6499,-2.6499,-2.6499,-2.6499,-2.6499,-2.6499,-2.6499,-2.626,-2.5724,-2.5711,-2.5498,-2.5046,-2.5046,-2.5046,-2.5013,-2.3172,-2.1304,-1.9505,-1.9478,-1.9424,-1.9346,-1.888,-1.8656,-1.8568,-1.8184,-1.8008,-1.8008,-1.8008,-1.8008,-1.8008,-1.8008,-1.8008,-1.8008,-1.8008,-1.8008,-1.8008,-1.8008,-1.8008,-1.8008,-1.8008,-1.8008,-1.8008,-1.8008,-1.8008,-1.7794,-1.7001,-1.6706,-1.6384,-1.5587,-1.4736,-1.4343,-1.5376,-1.5482,-1.5411,-1.5552,-1.4732,-1.381,-1.3236,-1.2455,-1.1796,-1.141,-1.1336,-1.1275,-1.1275,-1.1275,-1.1209,-1.0962,-1.0935,-1.0835,-1.0613,-1.0593,-1.0593,-1.0593,-1.0593,-1.0593,-1.0593,-1.0593,-1.0593,-1.0593,-1.0593,-1.0593,-1.0593,-1.0593,-1.0593,-1.0593,-1.0593,-1.0593,-1.4902,0.0,0.0,0.0,0.0,0.0,0.0,0.0,0.0,0.0,-2.6273,-2.6499,-2.6499,-2.6499,-2.6499,-2.6499,-2.6499,-2.6499,-2.6499,-2.6499,-2.6499,-2.6499,-2.6499,-2.6499,-2.6499,-2.6499,-2.6499,-2.6499,-2.6499,-2.6499,-2.6499,-2.6185,-2.585,-2.5598,-2.4821,-2.453,-2.48,-2.4308,-2.3667,-2.2864,-2.1821,-2.0376,-1.8584,-1.8818,-1.8926,-1.8916,-1.8685,-1.8471,-1.8237,-1.8086,-1.8008,-1.8008,-1.8008,-1.8008,-1.8008,-1.8008,-1.8008,-1.8008,-1.8008,-1.8008,-1.8008,-1.8008,-1.8008,-1.8008,-1.8008,-1.8008,-1.8008,-1.8008,-1.8008,-1.7794,-1.6853,-1.6219,-1.5579,-1.4593,-1.3629,-1.3025,-1.3484,-1.3991,-1.4343,-1.4343,-1.3991,-1.3439,-1.2636,-1.2175,-1.1859,-1.1697,-1.153,-1.1389,-1.1389,-1.1389,-1.1342,-1.1249,-1.1236,-1.1182,-1.1056,-1.0895,-1.0834,-1.0834,-1.068,-1.0593,-1.0593,-1.0593,-1.0593,-1.0593,-1.0593,-1.0593,-1.0593,-1.0593,-1.0593,-1.0593,-1.0593,-1.0593,0.0,0.0,0.0,0.0,0.0,0.0,0.0,0.0,0.0,0.0,-2.5737,-2.6122,-2.6248,-2.6399,-2.6499,-2.6499,-2.6499,-2.6499,-2.6499,-2.6499,-2.6499,-2.6499,-2.6499,-2.6499,-2.6499,-2.6499,-2.6499,-2.6499,-2.6361,-2.6273,-2.6273,-2.5711,-2.5223,-2.4876,-2.3845,-2.3448,-2.3717,-2.3075,-2.2141,-2.0842,-2.0572,-1.9569,-1.8018,-1.8295,-1.8442,-1.8442,-1.8442,-1.8266,-1.8008,-1.8008,-1.8008,-1.8008,-1.8008,-1.8008,-1.8008,-1.8008,-1.8008,-1.8008,-1.8008,-1.8008,-1.8008,-1.8008,-1.8008,-1.8008,-1.8008,-1.8008,-1.8008,-1.8008,-1.8008,-1.7725,-1.6532,-1.572,-1.4879,-1.3637,-1.2806,-1.2305,-1.2305,-1.2842,-1.3346,-1.3346,-1.3346,-1.3135,-1.2409,-1.2124,-1.2013,-1.2013,-1.179,-1.1615,-1.1615,-1.1615,-1.1582,-1.155,-1.1536,-1.151,-1.1395,-1.1229,-1.1102,-1.1102,-1.0902,-1.078,-1.0707,-1.07,-1.0667,-1.0593,-1.0593,-1.0593,-1.0593,-1.0593,-1.0593,-1.0593,-1.0593,-1.0593,0.0,0.0,0.0,0.0,0.0,0.0,0.0,0.0,0.0,0.0,-2.4883,-2.5059,-2.5548,-2.6122,-2.6499,-2.6499,-2.6499,-2.6499,-2.6499,-2.6499,-2.6499,-2.6499,-2.6499,-2.6499,-2.6499,-2.6499,-2.6499,-2.6499,-2.5984,-2.5636,-2.5636,-2.5146,-2.4241,-2.2886,-2.2774,-2.2128,-2.083,-2.0765,-2.0302,-1.9407,-1.9395,-1.8895,-1.8008,-1.8037,-1.8047,-1.8047,-1.8047,-1.8037,-1.8008,-1.8008,-1.8008,-1.8008,-1.8008,-1.8008,-1.8008,-1.8008,-1.8008,-1.8008,-1.8008,-1.8008,-1.8008,-1.8008,-1.8008,-1.8008,-1.8008,-1.8008,-1.8008,-1.8008,-1.8008,-1.7588,-1.5763,-1.5234,-1.4736,-1.2806,-1.2335,-1.2305,-1.2305,-1.2335,-1.2372,-1.2372,-1.2372,-1.2378,-1.2305,-1.2291,-1.2278,-1.2278,-1.2265,-1.2258,-1.2258,-1.2258,-1.2151,-1.1913,-1.1879,-1.173,-1.1415,-1.1375,-1.1369,-1.1369,-1.1355,-1.1256,-1.0982,-1.0969,-1.0874,-1.0593,-1.0593,-1.0593,-1.0593,-1.0593,-1.0593,-1.0593,-1.0593,-1.0593,0.0,0.0,0.0,0.0,0.0,0.0,0.0,0.0,0.0,0.0,-2.4286,-2.485,-2.5059,-2.5536,-2.6059,-2.6436,-2.6499,-2.6499,-2.6499,-2.6499,-2.6499,-2.6499,-2.6499,-2.6499,-2.6499,-2.6499,-2.6336,-2.5971,-2.5711,-2.5448,-2.5109,-2.4594,-2.3801,-2.2726,-2.1806,-2.0834,-1.9792,-1.9759,-1.9595,-1.9299,-1.8721,-1.8303,-1.8008,-1.8008,-1.8008,-1.8008,-1.8008,-1.8008,-1.8008,-1.8008,-1.8008,-1.8008,-1.8008,-1.8008,-1.8008,-1.8008,-1.8008,-1.8008,-1.8008,-1.8008,-1.8008,-1.8008,-1.8008,-1.8008,-1.8008,-1.8008,-1.8008,-1.8008,-1.7579,-1.6819,-1.5517,-1.4736,-1.3918,-1.2622,-1.2305,-1.2305,-1.2305,-1.2305,-1.2305,-1.2305,-1.2305,-1.2305,-1.2305,-1.2305,-1.2305,-1.2305,-1.2305,-1.2305,-1.2305,-1.2305,-1.2265,-1.2158,-1.2144,-1.2104,-1.1997,-1.1817,-1.171,-1.171,-1.153,-1.1342,-1.1276,-1.1089,-1.0942,-1.0874,-1.0687,-1.0593,-1.0593,-1.0593,-1.0593,-1.0593,-1.0593,-1.0593,0.0,0.0,0.0,0.0,0.0,0.0,0.0,0.0,0.0,0.0,-2.3296,-2.4061,-2.4469,-2.482,-2.5247,-2.5812,-2.6084,-2.6197,-2.6197,-2.6373,-2.6499,-2.6499,-2.6499,-2.6499,-2.6499,-2.6323,-2.6047,-2.5624,-2.5259,0.0,-2.4114,-2.3584,-2.2761,-2.1606,-2.0369,-1.9464,-1.8888,-1.8844,-1.8844,-1.8854,-1.8269,-1.8008,-1.8008,-1.8008,-1.8008,-1.8008,-1.8008,-1.8008,-1.8008,-1.8008,-1.8008,-1.8008,-1.8008,-1.8008,-1.8008,-1.8008,-1.8008,-1.8008,-1.8008,-1.8008,-1.8008,-1.8008,-1.8008,-1.8008,-1.8008,-1.8008,-1.794,-1.7613,-1.707,-1.6315,-1.5021,-1.3954,-1.3062,-1.2445,-1.2305,-1.2305,-1.2305,-1.2305,-1.2305,-1.2305,-1.2305,-1.2305,-1.2305,-1.2305,-1.2305,-1.2305,-1.2305,-1.2305,-1.2305,-1.2305,-1.2305,-1.2305,-1.2305,-1.2305,-1.2305,-1.2124,-1.2011,-1.2011,-1.183,-1.1677,-1.1577,-1.1296,-1.1096,-1.0995,-1.074,-1.0593,-1.0593,-1.0593,-1.0593,-1.0593,-1.0593,-1.0593,0.0,0.0,0.0,0.0,0.0,0.0,0.0,0.0,0.0,0.0,-2.187,-2.2585,-2.3715,-2.3941,-2.4117,-2.4625,-2.5209,-2.5573,-2.5573,-2.6084,-2.6449,-2.6449,-2.6449,-2.6449,-2.6449,-2.59,-2.5573,-2.5548,-2.4582,-2.3622,-2.2735,-2.2119,-2.1037,-1.9365,-1.8462,-1.8008,-1.8008,-1.8008,-1.8008,-1.8008,-1.8008,-1.8008,-1.8008,-1.8008,-1.8008,-1.8008,-1.8008,-1.8008,-1.8008,-1.8008,-1.8008,-1.8008,-1.8008,-1.8008,-1.8008,-1.8008,-1.8008,-1.8008,-1.8008,-1.8008,-1.8008,-1.8008,-1.8008,-1.8008,-1.8008,-1.8008,-1.7794,-1.6853,-1.6567,-1.6105,-1.4163,-1.2989,-1.2305,-1.2305,-1.2305,-1.2305,-1.2305,-1.2305,-1.2305,-1.2305,-1.2305,-1.2305,-1.2305,-1.2305,-1.2305,-1.2305,-1.2305,-1.2305,-1.2305,-1.2305,-1.2305,-1.2305,-1.2305,-1.2305,-1.2305,-1.2305,-1.2305,-1.2305,-1.2305,-1.2178,-1.1933,-1.1597,-1.1309,-1.1022,-1.0767,-1.0613,-1.0606,-1.0593,-1.0593,-1.0593,-1.0593,-1.0593,-1.1762,0.0,0.0,0.0,0.0,0.0,0.0,0.0,0.0,0.0,0.0,-2.084,-2.197,-2.251,-2.2824,-2.2987,-2.4111,-2.5034,-2.5034,-2.5172,-2.5272,-2.5272,-2.5272,-2.5272,-2.5272,-2.5134,-2.487,0.0,-2.4167,-2.3461,-2.2178,-2.0797,-1.9792,-1.9299,-1.8462,-1.8008,-1.8008,-1.8008,-1.8008,-1.8008,-1.8008,-1.8008,-1.8008,-1.8008,-1.8008,-1.8008,-1.8008,-1.8008,-1.8008,-1.8008,-1.8008,-1.8008,-1.8008,-1.8008,-1.8008,-1.8008,-1.8008,-1.8008,-1.8008,-1.8008,-1.8008,-1.8008,-1.8008,-1.8008,-1.8008,-1.8008,-1.7794,-1.6853,-1.6105,-1.5155,-1.32,-1.2482,-1.2305,-1.2305,-1.2305,-1.2305,-1.2305,-1.2305,-1.2305,-1.2305,-1.2305,-1.2305,-1.2305,-1.2305,-1.2305,-1.2305,-1.2305,-1.2305,-1.2305,-1.2305,-1.2305,-1.2305,-1.2305,-1.2305,-1.2305,-1.2305,-1.2305,-1.2305,-1.2305,-1.2265,-1.2184,-1.1904,-1.1745,-1.1665,-1.1336,-1.1082,-1.0875,-1.0693,-1.0593,-1.0593,-1.0593,-1.0707,0.0,0.0,0.0,0.0,0.0,0.0,0.0,-1.6441,0.0,0.0,0.0,-1.9748,-2.0627,-2.1242,-2.1631,-2.1631,-2.2836,-2.391,-2.4406,-2.4669,-2.4788,-2.4788,-2.4788,-2.4788,-2.4788,-2.4587,-2.4343,-2.4017,-2.3778,-2.2942,-2.1439,-1.9683,-1.8754,-1.8754,-1.8269,-1.8008,-1.8008,-1.8008,-1.8008,-1.8008,-1.8008,-1.8008,-1.8008,-1.8008,-1.8008,-1.8008,-1.8008,-1.8008,-1.8008,-1.8008,-1.8008,-1.8008,-1.8008,-1.8008,-1.8008,-1.8008,-1.8008,-1.8008,-1.8008,-1.8008,-1.794,-1.7545,-1.7432,-1.7329,-1.6941,-1.6828,-1.662,-1.5649,-1.4728,-1.3738,-1.2586,-1.2305,-1.2305,-1.2305,-1.2305,-1.2305,-1.2305,-1.2305,-1.2305,-1.2305,-1.2305,-1.2305,-1.2305,-1.2305,-1.2305,-1.2305,-1.2305,-1.2305,-1.2305,-1.2305,-1.2305,-1.2305,-1.2305,-1.2305,-1.2305,-1.2305,-1.2305,-1.2305,-1.2305,-1.2305,-1.2305,-1.2024,-1.1906,-1.1906,-1.1577,-1.1309,-1.1176,-1.0914,-1.0774,-1.0774,-1.0894,-1.1009,0.0,0.0,0.0,0.0,0.0,0.0,-1.5634,-1.5441,-1.5224,0.0,0.0,0.0,-1.9296,-1.9921,-2.036,-2.041,-2.1377,-2.2523,-2.3653,-2.4261,-2.46,-2.46,-2.46,-2.46,-2.46,-2.4192,-2.3873,-2.3767,-2.3108,-2.2021,-2.0526,-1.8877,-1.8008,-1.8008,-1.8008,-1.8008,-1.8008,-1.8008,-1.8008,-1.8008,-1.8008,-1.8008,-1.8008,-1.8008,-1.8008,-1.8008,-1.8008,-1.8008,-1.8008,-1.8008,-1.8008,-1.8008,-1.8008,-1.8008,-1.8008,-1.8008,-1.8008,-1.8008,-1.8008,-1.8008,-1.7872,-1.6922,-1.6602,-1.6419,-1.5482,-1.5199,-1.4985,-1.3991,-1.3025,-1.2305,-1.2305,-1.2305,-1.2305,-1.2305,-1.2305,-1.2305,-1.2305,-1.2305,-1.2305,-1.2305,-1.2305,-1.2305,-1.2305,-1.2305,-1.2305,-1.2305,-1.2305,-1.2305,-1.2305,-1.2305,-1.2305,-1.2305,-1.2305,-1.2305,-1.2305,-1.2305,-1.2305,-1.2305,-1.2305,-1.2305,-1.2305,-1.2051,-1.1953,-1.1953,-1.1623,-1.1476,-1.1435,-1.1182,-1.1042,-1.1049,-1.1309,-1.1409,0.0,0.0,0.0,0.0,0.0,0.0,-1.4595,-1.3946,-1.3775,0.0,0.0,0.0,0.0,0.0,0.0,0.0,-1.9947,-2.1408,-2.2485,-2.3083,-2.3434,-2.3434,-2.3434,-2.3434,-2.3434,-2.3333,-2.3027,-2.2356,-2.0903,-1.9911,-1.9562,-1.8563,-1.8008,-1.8008,-1.8008,-1.8008,-1.8008,-1.8008,-1.8008,-1.8008,-1.8008,-1.8008,-1.8008,-1.8008,-1.8008,-1.8008,-1.8008,-1.8008,-1.8008,-1.8008,-1.8008,-1.8008,-1.8008,-1.8008,-1.8008,-1.8008,-1.8008,-1.8008,-1.8008,-1.8008,-1.7872,-1.6922,-1.6602,-1.6419,-1.5482,-1.5199,-1.4985,-1.3991,-1.3025,-1.2305,-1.2305,-1.2305,-1.2305,-1.2305,-1.2305,-1.2305,-1.2305,-1.2305,-1.2305,-1.2305,-1.2305,-1.2305,-1.2305,-1.2305,-1.2305,-1.2305,-1.2305,-1.2305,-1.2305,-1.2305,-1.2305,-1.2305,-1.2305,-1.2305,-1.2305,-1.2305,-1.2305,-1.2305,-1.2305,-1.2305,-1.2305,-1.2245,-1.2218,-1.2218,-1.1931,-1.1784,-1.1819,-1.1483,-1.1309,-1.1309,-1.1369,-1.1557,0.0,0.0,0.0,-1.7426,0.0,0.0,0.0,-1.4115,-1.3358,-1.4473,-1.4192,0.0,0.0,0.0,0.0,0.0,0.0,0.0,-2.0536,-2.1619,-2.2309,-2.2309,-2.2309,-2.2309,-2.2309,-2.2309,-2.2058,-2.148,-2.0125,-1.9299,-1.9299,-1.8462,-1.8008,-1.8008,-1.8008,-1.8008,-1.8008,-1.8008,-1.8008,-1.8008,-1.8008,-1.8008,-1.8008,-1.8008,-1.8008,-1.8008,-1.8008,-1.8008,-1.8008,-1.8008,-1.8008,-1.8008,-1.8008,-1.8008,-1.8008,-1.8008,-1.8008,-1.8008,-1.8008,-1.8008,-1.7759,-1.6358,-1.5895,-1.5614,-1.4199,-1.373,-1.3665,-1.3127,-1.2659,-1.2305,-1.2305,-1.2305,-1.2305,-1.2305,-1.2305,-1.2305,-1.2305,-1.2305,-1.2305,-1.2305,-1.2305,-1.2305,-1.2305,-1.2305,-1.2305,-1.2305,-1.2305,-1.2305,-1.2305,-1.2305,-1.2305,-1.2305,-1.2305,-1.2305,-1.2305,-1.2305,-1.2305,-1.2305,-1.2305,-1.2305,-1.2305,-1.2305,-1.2305,-1.2305,-1.2158,-1.2084,-1.2084,-1.1937,-1.179,-1.165,-1.1797,-1.1944,0.0,0.0,0.0,0.0,0.0,-1.5537,0.0,0.0,0.0,-1.3865,0.0,0.0,0.0,0.0,0.0,0.0,0.0,0.0,0.0,0.0,0.0,-2.1129,-2.1072,-2.1039,-2.1123,-2.0884,-2.0702,-2.0629,-1.9428,-1.8825,-1.9129,-1.8342,-1.793,-1.8008,-1.8008,-1.8008,-1.8008,-1.8008,-1.8008,-1.8008,-1.8008,-1.8008,-1.8008,-1.8008,-1.8008,-1.8008,-1.8008,-1.8008,-1.8008,-1.8008,-1.8008,-1.8008,-1.8008,-1.8008,-1.8008,-1.8008,-1.8008,-1.8008,-1.8008,-1.7862,-1.7432,-1.5763,-1.495,-1.4343,-1.2769,-1.2305,-1.2305,-1.2305,-1.2305,-1.2305,-1.2305,-1.2305,-1.2305,-1.2305,-1.2305,-1.2305,-1.2305,-1.2305,-1.2305,-1.2305,-1.2305,-1.2305,-1.2305,-1.2305,-1.2305,-1.2305,-1.2305,-1.2305,-1.2305,-1.2305,-1.2305,-1.2305,-1.2305,-1.2305,-1.2305,-1.2305,-1.2305,-1.2305,-1.2305,-1.2305,-1.2305,-1.2305,-1.2305,-1.2305,-1.2305,-1.2305,-1.2305,-1.2114,-1.1995,-1.1993,-1.2191,-1.2305,0.0,0.0,0.0,0.0,-1.8243,0.0,0.0,0.0,-1.2859,-1.2596,0.0,0.0,0.0,0.0,0.0,0.0,0.0,0.0,0.0,0.0,0.0,-1.9759,-1.9503,-1.9351,-1.9777,-1.8684,-1.8335,-1.9242,-1.7597,-1.716,-1.851,-1.7891,-1.7627,-1.7998,-1.8008,-1.8008,-1.8008,-1.8008,-1.8008,-1.8008,-1.8008,-1.8008,-1.8008,-1.8008,-1.8008,-1.8008,-1.8008,-1.8008,-1.8008,-1.8008,-1.8008,-1.8008,-1.8008,-1.8008,-1.8008,-1.8008,-1.8008,-1.8008,-1.8008,-1.7467,-1.6602,-1.5552,-1.4019,-1.2586,-1.2372,-1.2305,-1.2305,-1.2305,-1.2305,-1.2305,-1.2305,-1.2305,-1.2305,-1.2305,-1.2305,-1.2305,-1.2305,-1.2305,-1.2305,-1.2305,-1.2305,-1.2305,-1.2305,-1.2305,-1.2305,-1.2305,-1.2305,-1.2305,-1.2305,-1.2305,-1.2305,-1.2305,-1.2305,-1.2305,-1.2305,-1.2305,-1.2305,-1.2305,-1.2305,-1.2305,-1.2305,-1.2305,-1.2305,-1.2305,-1.2305,-1.2305,-1.2305,-1.1391,-1.1415,-1.2258,-1.2285,-1.2305,0.0,0.0,0.0,0.0,0.0,0.0,-1.5798,0.0,-1.2914,0.0,0.0,0.0,0.0,0.0,0.0,0.0,-1.3494,0.0,0.0,0.0,0.0,0.0,0.0,0.0,-1.8249,-1.7271,-1.6806,-1.721,-1.6602,-1.6461,-1.7071,-1.7283,-1.7461,-1.7637,-1.7881,-1.8008,-1.8008,-1.8008,-1.8008,-1.8008,-1.8008,-1.8008,-1.8008,-1.8008,-1.8008,-1.8008,-1.8008,-1.8008,-1.8008,-1.8008,-1.8008,-1.8008,-1.8008,-1.8008,-1.8008,-1.8008,-1.8008,-1.8008,-1.8008,-1.7759,-1.7182,-1.5693,-1.3875,-1.2305,-1.2305,-1.2305,-1.2305,-1.2305,-1.2305,-1.2305,-1.2305,-1.2305,-1.2305,-1.2305,-1.2305,-1.2305,-1.2305,-1.2305,-1.2305,-1.2305,-1.2305,-1.2305,-1.2305,-1.2305,-1.2305,-1.2305,-1.2305,-1.2305,-1.2305,-1.2305,-1.2305,-1.2305,-1.2305,-1.2305,-1.2305,-1.2305,-1.2305,-1.2305,-1.2305,-1.2305,-1.2305,-1.2305,-1.2305,-1.2305,-1.2305,-1.2305,-1.2305,-1.1279,-1.1013,-1.1428,-1.0832,-1.0571,-2.2133,0.0,0.0,0.0,0.0,0.0,0.0,0.0,0.0,0.0,0.0,0.0,0.0,0.0,0.0,0.0,0.0,0.0,0.0,0.0,0.0,0.0,0.0,0.0,0.0,-1.601,-1.5551,-1.5955,-1.5685,-1.5722,-1.6188,-1.6619,-1.7012,-1.7406,-1.7676,-1.79,-1.8008,-1.8008,-1.8008,-1.8008,-1.8008,-1.8008,-1.8008,-1.8008,-1.8008,-1.8008,-1.8008,-1.8008,-1.8008,-1.8008,-1.8008,-1.8008,-1.8008,-1.8008,-1.8008,-1.8008,-1.8008,-1.8008,-1.8008,-1.7657,-1.6906,-1.5013,-1.3448,-1.2305,-1.2305,-1.2305,-1.2305,-1.2305,-1.2305,-1.2305,-1.2305,-1.2305,-1.2305,-1.2305,-1.2305,-1.2305,-1.2305,-1.2305,-1.2305,-1.2305,-1.2305,-1.2305,-1.2305,-1.2305,-1.2305,-1.2305,-1.2305,-1.2305,-1.2305,-1.2305,-1.2305,-1.2305,-1.2305,-1.2305,-1.2305,-1.2305,-1.2305,-1.2305,-1.2305,-1.2305,-1.2305,-1.2305,-1.2305,-1.2305,-1.2305,-1.215,-1.1885,-1.087,-1.026,-0.9959,-0.9518,-0.9296,0.0,0.0,0.0,-1.9773,0.0,0.0,0.0,0.0,-1.3948,0.0,0.0,0.0,0.0,0.0,0.0,0.0,0.0,0.0,0.0,0.0,0.0,0.0,0.0,0.0,0.0,-1.4778,-1.4448,0.0,-1.4691,-1.4577,-1.6388,-1.5827,-1.6064,-1.7376,-1.7393,-1.7598,-1.8008,-1.8008,-1.8008,-1.8008,-1.8008,-1.8008,-1.8008,-1.8008,-1.8008,-1.8008,-1.8008,-1.8008,-1.8008,-1.8008,-1.8008,-1.8008,-1.8008,-1.8008,-1.8008,-1.8008,-1.8008,-1.8008,-1.8008,-1.6793,-1.4985,-1.3018,-1.2342,-1.2305,-1.2305,-1.2305,-1.2305,-1.2305,-1.2305,-1.2305,-1.2305,-1.2305,-1.2305,-1.2305,-1.2305,-1.2305,-1.2305,-1.2305,-1.2305,-1.2305,-1.2305,-1.2305,-1.2305,-1.2305,-1.2305,-1.2305,-1.2305,-1.2305,-1.2305,-1.2305,-1.2305,-1.2305,-1.2305,-1.2305,-1.2305,-1.2305,-1.2305,-1.2305,-1.2305,-1.2305,-1.2305,-1.2305,-1.2305,-1.2305,-1.2305,-1.1811,-1.0864,-0.9857,-0.8841,-0.7936,-0.8846,-0.9296,0.0,0.0,-2.4309,-2.1091,0.0,0.0,0.0,0.0,0.0,0.0,0.0,0.0,0.0,0.0,0.0,0.0,0.0,0.0,0.0,0.0,0.0,0.0,0.0,0.0,0.0,0.0,0.0,0.0,-1.3606,0.0,-1.4489,-1.5092,-1.5752,-1.6515,-1.7112,-1.7578,-1.8008,-1.8008,-1.8008,-1.8008,-1.8008,-1.8008,-1.8008,-1.8008,-1.8008,-1.8008,-1.8008,-1.8008,-1.8008,-1.8008,-1.8008,-1.8008,-1.8008,-1.8008,-1.794,-1.7285,-1.7467,-1.7906,-1.7285,-1.5834,-1.4099,-1.3455,-1.2806,-1.2305,-1.2305,-1.2305,-1.2305,-1.2305,-1.2305,-1.2305,-1.2305,-1.2305,-1.2305,-1.2305,-1.2305,-1.2305,-1.2305,-1.2305,-1.2305,-1.2305,-1.2305,-1.2305,-1.2305,-1.2305,-1.2305,-1.2305,-1.2305,-1.2305,-1.2305,-1.2305,-1.2305,-1.2305,-1.2305,-1.2305,-1.2305,-1.2305,-1.2305,-1.2305,-1.2305,-1.2305,-1.2305,-1.2305,-1.2305,-1.2305,-1.2305,-1.215,-1.1774,-1.0121,-0.9112,-0.8765,-0.7783,-0.7326,-2.4888,-2.5197,0.0,-2.1705,-2.0499,0.0,-1.595,0.0,0.0,0.0,0.0,0.0,0.0,0.0,0.0,0.0,0.0,0.0,0.0,-1.0908,0.0,0.0,0.0,0.0,0.0,0.0,-1.2418,-1.2742,-1.2863,0.0,0.0,-1.4397,-1.5225,-1.584,-1.6689,-1.7353,-1.7783,-1.7939,-1.8008,-1.8008,-1.8008,-1.8008,-1.8008,-1.8008,-1.8008,-1.8008,-1.8008,-1.8008,-1.8008,-1.8008,-1.8008,-1.8008,-1.8008,-1.7794,-1.7467,-1.7207,-1.7285,-1.7329,-1.6,-1.4764,-1.3637,-1.331,-1.2806,-1.2305,-1.2305,-1.2305,-1.2305,-1.2305,-1.2305,-1.2305,-1.2305,-1.2305,-1.2305,-1.2305,-1.2305,-1.2305,-1.2305,-1.2305,-1.2305,-1.2305,-1.2305,-1.2305,-1.2305,-1.2305,-1.2305,-1.2305,-1.2305,-1.2305,-1.2305,-1.2305,-1.2305,-1.2305,-1.2305,-1.2305,-1.2305,-1.2305,-1.2305,-1.2305,-1.2305,-1.2305,-1.2305,-1.2305,-1.2305,-1.2305,-1.1959,-1.1583,-1.1211,-0.9561,-0.858,-0.8199,-0.6911,-0.63]},{"header":{"parameterUnit":"m.s-1","parameterCategory":1,"la1":30.6,"la2":29.2853,"lo1":-89.7004,"lo2":-87.6739,"dy":0.0162,"dx":0.0183,"nx":112,"ny":82,"refTime":"2024-05-21T00:00:00:Z","depth":0,"parameterNumber":3,"parameterNumberName":"V-component_of_WINDS"},"data":[0.0,0.0,0.0,0.0,0.0,0.0,0.0,0.0,0.0,0.0,0.0,0.0,0.0,0.0,0.0,0.0,0.0,0.0,0.0,0.0,0.0,0.0,0.0,0.0,0.0,0.0,0.0,0.0,0.0,0.0,0.0,0.0,0.0,0.0,0.0,0.0,0.0,0.0,0.0,0.0,0.0,0.0,0.0,0.0,0.0,0.0,0.0,0.0,0.0,0.0,0.0,0.0,0.0,0.0,0.0,0.0,0.0,0.0,0.0,0.0,0.0,0.0,0.0,0.0,0.0,0.0,0.0,0.0,0.0,0.0,0.0,0.0,0.0,0.0,0.0,0.0,0.0,0.0,0.0,0.0,0.0,0.0,0.0,0.0,0.0,0.0,0.0,0.0,0.0,0.0,0.0,1.1117,1.2542,1.3445,1.3594,1.3773,1.3368,1.2105,0.0,0.0,0.0,0.0,0.0,0.0,0.0,0.0,0.0,0.0,0.0,0.0,0.0,0.0,0.0,0.0,0.0,0.0,0.0,0.0,0.0,0.0,0.0,0.0,0.0,0.0,0.0,0.0,0.0,0.0,0.0,0.0,0.0,0.0,0.0,0.0,0.0,0.0,0.0,0.0,0.0,0.0,0.0,0.0,0.0,0.0,0.0,0.0,0.0,0.0,0.0,0.0,0.0,0.0,0.0,0.0,0.0,0.0,0.0,0.0,0.0,0.0,0.0,0.0,0.0,0.0,0.0,0.0,0.0,0.0,0.0,0.0,0.0,0.0,0.0,0.0,0.0,0.0,0.0,0.0,0.0,0.0,0.0,0.0,0.0,0.0,0.0,0.0,0.0,0.0,0.0,0.0,0.0,0.0,0.0,0.0,0.0,0.0,0.0,0.0,0.0,0.0,0.0,0.0,0.9806,1.1881,1.288,1.3445,1.3594,1.3773,1.3382,1.2151,0.0,0.0,0.0,0.0,0.0,0.0,0.0,0.0,0.0,0.0,0.0,0.0,0.0,0.0,0.0,0.0,0.0,0.0,0.0,0.0,0.0,0.0,0.0,0.0,0.0,0.0,0.0,0.0,0.0,0.0,0.0,0.0,0.0,0.0,0.0,0.0,0.0,0.0,0.0,0.0,0.0,0.0,0.0,0.0,0.0,0.0,0.0,0.0,0.0,0.0,0.0,0.0,0.0,0.0,0.0,0.0,0.0,0.0,0.0,0.0,0.0,0.0,0.0,0.0,0.0,0.0,0.0,0.0,0.0,0.0,0.0,0.0,0.0,0.0,0.0,0.0,0.0,0.0,0.0,0.0,0.0,0.0,0.0,0.0,0.0,0.0,0.0,0.0,0.0,0.0,0.0,0.0,0.0,0.0,0.0,0.0,0.0,0.0,0.0,0.0,0.0,0.0,0.0,0.9858,1.0856,1.2702,1.3257,1.3572,1.3754,1.4016,1.3629,1.2331,1.1974,0.0,0.0,0.0,0.0,0.0,0.0,0.0,0.0,0.0,0.0,0.0,0.0,0.0,0.0,0.0,0.0,0.0,0.0,0.0,0.0,0.0,0.0,0.0,0.0,0.0,0.0,0.0,0.0,0.0,0.0,0.0,0.0,0.0,0.0,0.0,0.0,0.0,0.0,0.0,0.0,0.0,0.0,0.0,0.0,0.0,0.0,0.0,0.0,0.0,0.0,0.0,0.0,0.0,0.0,0.0,0.0,0.0,0.0,0.0,0.0,0.0,0.0,0.0,0.0,0.0,0.0,0.0,0.0,0.0,0.0,0.0,0.0,0.0,0.0,0.0,0.0,0.0,0.0,0.0,0.0,0.0,0.0,0.0,0.0,0.0,0.0,0.0,0.0,0.0,0.0,0.0,0.0,0.0,0.0,0.0,0.0,0.0,0.0,0.0,0.0,0.0,0.0,1.1223,1.1695,1.3244,1.3526,1.3676,1.3874,1.4016,1.36,1.2477,1.1513,0.0,0.0,0.0,0.0,0.0,0.0,0.0,0.0,0.0,0.0,0.0,0.0,0.0,0.0,0.0,0.0,0.0,0.0,0.0,0.0,0.0,0.0,0.0,0.0,0.0,0.0,0.0,0.0,0.0,0.0,0.0,0.0,0.0,0.0,0.0,0.0,0.0,0.0,0.0,0.0,0.0,0.0,0.0,0.0,0.0,0.0,0.0,0.0,0.0,0.0,0.0,0.0,0.0,0.0,0.0,0.0,0.0,0.0,0.0,0.0,0.0,0.0,0.0,0.0,0.0,0.0,0.0,0.0,0.0,0.0,0.0,0.0,0.0,0.0,0.0,0.0,0.0,0.0,0.0,0.0,0.0,0.0,0.0,0.0,0.0,0.0,0.0,0.0,0.0,0.0,0.0,0.0,0.0,0.0,0.0,0.0,0.0,0.0,0.0,0.0,0.0,0.0,1.111,1.1695,1.3244,1.3526,1.3676,1.3874,1.3455,1.2965,1.2435,1.0942,0.0,0.0,0.0,0.0,0.0,0.0,0.0,0.0,0.0,0.0,0.0,0.0,0.0,0.0,0.0,0.0,0.0,0.0,0.0,0.0,0.0,0.0,0.0,0.0,0.0,0.0,0.0,0.0,0.0,0.0,0.0,0.0,0.0,0.0,0.0,0.0,0.0,0.0,0.0,0.0,0.0,0.0,0.0,0.0,0.0,0.0,0.0,0.0,0.0,0.0,0.0,0.0,0.0,0.0,0.0,0.0,0.0,0.0,0.0,0.0,0.0,0.0,0.0,0.0,0.0,0.0,0.0,0.0,0.0,0.0,0.0,0.0,0.0,0.0,0.0,0.0,0.0,0.0,0.0,0.0,0.0,0.0,0.0,0.0,0.0,0.0,0.0,0.0,0.0,0.0,0.0,0.0,0.0,0.0,0.0,0.0,0.0,0.0,0.0,0.0,0.0,0.0,1.1158,1.1695,0.0,1.3627,1.3827,1.3881,1.36,1.3119,1.2431,0.0,0.0,0.0,0.0,0.0,0.0,0.0,0.0,0.0,0.0,0.0,0.0,0.0,0.0,0.0,0.0,0.0,0.0,0.0,0.0,0.0,0.0,0.0,0.0,0.0,0.0,0.0,0.0,0.0,0.0,0.0,0.0,0.0,0.0,0.0,0.0,0.0,0.0,0.0,0.0,0.0,0.0,0.0,0.0,0.0,0.0,0.0,0.0,0.0,0.0,0.0,0.0,0.0,0.0,0.0,0.0,0.0,0.0,0.0,0.0,0.0,0.0,0.0,0.0,0.0,0.0,0.0,0.0,0.0,0.0,0.0,0.0,0.0,0.0,0.0,0.0,0.0,0.0,0.0,0.0,0.0,0.0,0.0,0.0,0.0,0.0,0.0,0.0,0.0,0.0,0.0,0.0,0.0,0.0,0.0,0.0,0.0,0.0,0.0,0.0,0.0,0.0,1.0964,1.1165,1.17,0.0,1.3734,1.3934,1.399,1.3497,1.2964,1.2437,0.0,0.0,0.0,0.0,0.0,0.0,0.0,0.0,0.0,0.0,0.0,0.0,0.0,0.0,0.0,0.0,0.0,0.0,0.0,0.0,0.0,0.0,0.0,0.0,0.0,0.0,0.0,0.0,0.0,0.0,0.0,0.0,0.0,0.0,0.0,0.0,0.0,0.0,0.0,0.0,0.0,0.0,0.0,0.0,0.0,0.0,0.0,0.0,0.0,0.0,0.0,0.0,0.0,0.0,0.0,0.0,0.0,0.0,0.0,0.0,0.0,0.0,0.0,0.0,0.0,0.0,0.0,0.0,0.0,0.0,0.0,0.0,0.0,0.0,0.0,0.0,0.0,0.0,0.0,0.0,0.0,0.0,0.0,0.0,0.0,0.0,0.0,0.0,0.0,0.0,0.0,0.0,0.0,0.0,0.0,0.0,0.0,0.0,0.0,0.0,0.0,0.0,1.0842,1.112,1.1758,1.3413,1.3773,1.3983,1.4175,1.3039,1.2334,0.0,0.0,0.0,0.0,0.0,0.0,0.0,0.0,0.0,0.0,0.0,0.0,0.0,0.0,0.0,0.0,0.0,0.0,0.0,0.0,0.0,0.0,0.0,0.0,0.0,0.0,0.0,0.0,0.0,0.0,0.0,0.0,0.0,0.0,0.0,0.0,0.0,0.0,0.0,0.0,0.0,0.0,0.0,0.0,0.0,0.0,0.0,0.0,0.0,0.0,0.0,0.0,0.0,0.0,0.0,0.0,0.0,0.0,0.0,0.0,0.0,0.0,0.0,0.0,0.0,0.0,0.0,0.0,0.0,0.0,0.0,0.0,0.0,0.0,0.0,0.0,0.0,0.0,0.0,0.0,0.0,0.0,0.0,0.0,0.0,0.0,0.0,0.0,0.0,0.0,0.0,0.0,0.0,0.0,0.0,0.0,0.0,0.0,0.0,0.0,0.0,0.0,0.0,1.0903,1.1603,1.2328,1.3343,1.3726,1.3927,1.3983,1.2943,1.2334,1.2399,0.0,0.0,0.0,0.0,0.0,0.0,0.0,0.0,0.0,0.0,0.0,0.0,0.0,0.0,0.0,0.0,0.0,0.0,0.0,0.0,0.0,0.0,0.0,0.0,0.0,0.0,0.0,0.0,0.0,0.0,0.0,0.0,0.0,0.0,0.0,0.0,0.0,0.0,0.0,0.0,0.0,0.0,0.0,0.0,0.0,0.0,0.0,0.0,0.0,0.0,0.0,0.0,0.0,0.0,0.0,0.0,0.0,0.0,0.0,0.0,0.0,0.0,0.0,0.0,0.0,0.0,0.0,0.0,0.0,0.0,0.0,0.0,0.0,0.0,0.0,0.0,0.0,0.0,0.0,0.0,0.0,0.0,0.0,0.0,0.0,0.0,0.0,0.0,0.0,0.0,0.0,0.0,0.0,0.0,0.0,0.0,0.0,0.0,0.0,0.0,0.0,0.0,1.0913,1.1806,1.2599,1.341,1.3724,1.3934,1.4011,1.2944,1.2301,1.2395,0.0,0.0,0.0,0.0,0.0,0.0,0.0,0.0,0.0,0.0,0.0,0.0,0.0,0.0,0.0,0.0,0.0,0.0,0.0,0.0,0.0,0.0,0.0,0.0,0.0,0.0,0.0,0.0,0.0,0.0,0.0,0.0,0.0,0.0,0.0,0.0,0.0,0.0,0.0,0.0,0.0,0.0,0.0,0.0,0.0,0.0,0.0,0.0,0.0,0.0,0.0,0.0,0.0,0.0,0.0,0.0,0.0,0.0,0.0,0.0,0.0,0.0,0.0,0.0,0.0,0.0,0.0,0.0,0.0,0.0,0.0,0.0,0.0,0.0,0.0,0.0,0.0,0.0,0.0,0.0,0.0,0.0,0.0,0.0,0.0,0.0,0.0,0.0,0.0,0.0,0.0,0.0,0.0,0.0,0.0,0.0,0.0,0.0,0.0,0.0,0.0,0.0,1.0924,1.1857,1.2697,1.3493,1.3766,1.3976,1.4156,1.3039,1.2323,1.2373,0.0,0.0,0.0,0.0,0.0,0.0,0.0,0.0,0.0,0.0,0.0,0.0,0.0,0.0,0.0,0.0,0.0,0.0,0.0,0.0,0.0,0.0,0.0,0.0,0.0,0.0,0.0,0.0,0.0,0.0,0.0,0.0,0.0,0.0,0.0,0.0,0.0,0.0,0.0,0.0,0.0,0.0,0.0,0.0,0.0,0.0,0.0,0.0,0.0,0.0,0.0,0.0,0.0,0.0,0.0,0.0,0.0,0.0,0.0,0.0,1.0654,0.0,0.0,0.0,0.0,0.0,0.0,0.0,0.0,0.0,0.0,0.0,0.0,0.0,0.0,0.0,0.0,0.0,0.0,0.0,0.0,0.0,0.0,0.0,0.0,0.0,0.0,0.0,0.0,0.0,0.0,0.0,0.0,0.0,0.0,0.0,0.0,0.0,0.0,0.0,0.0,0.0,1.0984,1.2305,1.3243,1.3421,1.3718,1.392,1.3962,1.3455,1.289,1.2279,1.067,0.0,0.0,0.0,0.0,0.0,0.0,0.0,0.0,0.0,0.0,0.0,0.0,0.0,0.0,0.0,0.0,0.0,0.0,0.0,0.0,0.0,0.0,0.0,0.0,0.0,0.0,0.0,0.0,0.0,0.0,0.0,0.0,0.0,0.0,0.0,0.0,0.0,0.0,0.0,0.0,0.0,0.0,0.0,0.0,0.0,0.0,0.0,0.0,0.0,0.0,0.0,0.0,0.0,0.0,0.0,0.0,0.0,0.0,0.0,0.0,1.1612,0.0,0.0,0.0,0.0,0.0,0.0,0.0,0.0,0.0,0.0,0.0,0.0,0.0,0.0,0.0,0.0,0.0,0.0,0.0,0.0,0.0,0.0,0.0,0.0,0.0,0.0,0.0,0.0,0.0,0.0,0.0,0.0,0.0,0.0,0.0,0.0,0.0,0.0,0.0,0.0,1.1045,1.244,1.3396,1.3396,1.3696,1.3906,1.3906,1.3562,1.3026,1.2244,1.115,0.0,0.0,0.0,0.0,0.0,0.0,0.0,0.0,0.0,0.0,0.0,0.0,0.0,0.0,0.0,0.0,0.0,0.0,0.0,0.0,0.0,0.0,0.0,0.0,0.0,0.0,0.0,0.0,0.0,0.0,0.0,0.0,0.0,0.0,0.0,0.0,0.0,0.0,0.0,0.0,0.0,0.0,0.0,0.0,0.0,0.0,0.0,0.0,0.0,0.0,0.0,0.0,0.0,1.3785,1.4206,1.4364,1.501,1.5366,1.5425,1.4317,1.4016,1.4217,1.2966,0.0,0.0,0.0,0.0,0.0,0.0,0.0,0.0,0.0,0.0,0.0,0.0,0.0,0.0,0.0,0.0,0.0,0.0,0.0,0.0,0.0,0.0,0.0,0.0,1.4631,1.4557,1.2654,0.0,0.0,0.0,0.0,0.0,0.0,0.0,0.0,0.0,0.0,0.0,1.1475,1.2728,1.3608,1.365,1.3903,1.4055,1.3955,1.3672,1.3182,1.2442,1.1704,1.0649,0.0,0.0,0.0,0.0,0.0,0.0,0.0,0.0,0.0,0.0,0.0,0.0,0.0,0.0,0.0,0.0,0.0,0.0,0.0,0.0,0.0,0.0,0.0,0.0,0.0,0.0,0.0,0.0,0.0,0.0,0.0,0.0,0.9929,1.0557,0.0,0.0,0.0,0.0,0.0,0.0,0.0,0.0,0.0,0.0,0.0,0.0,0.0,1.2329,1.2872,1.4072,1.4593,1.4447,1.5909,1.6586,1.65,1.7073,1.7639,1.8179,1.7999,0.0,1.5466,1.4308,0.0,0.0,0.0,0.0,0.0,0.0,0.0,0.0,0.0,0.0,0.0,0.0,0.0,0.0,0.0,0.0,0.0,0.0,0.0,0.0,0.0,0.0,1.7208,1.7208,1.7293,1.7117,0.0,1.4127,1.2415,1.2329,1.1809,0.0,0.0,0.0,0.0,0.0,0.0,0.0,1.2922,1.3836,1.4423,1.4598,1.4768,1.4676,1.4196,1.4265,1.4009,1.3209,1.2456,1.1663,1.0809,0.9628,0.0,0.0,0.0,0.0,0.0,0.0,0.0,0.0,0.0,0.0,0.0,0.0,0.0,0.0,0.0,0.0,0.0,0.0,0.0,0.0,0.0,0.0,0.0,0.0,0.0,0.0,0.0,0.0,0.0,0.9576,1.0806,1.119,1.1511,1.1526,0.0,0.0,0.0,0.0,0.0,0.0,0.0,0.0,0.0,1.3675,1.4357,1.4818,1.5058,1.7123,1.7969,1.7644,1.9029,1.9638,1.9582,1.9462,1.9552,1.9791,1.9435,1.8779,1.7897,1.6638,1.5688,1.4974,0.0,0.0,0.0,0.0,1.3995,1.3806,1.5152,1.5512,1.5387,1.5392,0.0,0.0,0.0,0.0,0.0,0.0,0.0,0.0,0.0,0.0,1.8186,1.8597,1.8876,1.8949,1.8611,1.7245,1.5583,0.0,1.3732,1.3165,1.1132,0.0,0.0,0.0,0.0,1.2795,1.3887,1.4665,1.5199,1.5453,1.5195,1.4975,1.488,1.4642,1.4169,1.3353,1.3034,1.2334,1.1147,1.0517,0.9785,0.0,0.0,0.0,0.0,0.0,0.0,0.0,0.0,0.0,0.0,0.0,0.0,0.0,0.0,0.0,0.0,0.0,0.0,0.0,0.0,0.0,0.0,0.0,0.0,0.0,0.0,0.0,0.0,1.0821,1.2011,1.2272,1.2919,1.299,0.0,0.0,0.0,0.0,0.0,0.0,1.3624,1.4058,1.4607,1.5331,1.6392,1.6921,1.6914,1.9008,1.985,1.9476,2.0668,2.1248,2.1219,2.1035,2.0961,2.0932,2.0423,2.0217,2.0079,1.8565,1.7401,1.6473,1.58,1.5246,1.4918,1.5919,1.5979,1.5783,1.7486,1.7823,1.7494,1.7294,1.7131,1.6647,1.4865,0.0,0.0,0.0,0.0,1.5951,1.6859,1.7904,1.8925,1.9766,2.0196,2.039,2.031,1.9875,1.8724,0.0,1.5764,1.5114,1.2669,0.0,0.0,0.0,0.0,1.4031,1.4952,1.5596,1.6073,1.6333,1.5778,1.5413,1.5467,1.4873,1.4237,1.3642,1.3452,1.2886,1.179,1.1415,1.0718,0.9562,0.0,0.0,0.0,0.0,0.0,0.0,0.0,0.0,0.0,0.0,0.0,0.0,0.0,0.0,0.0,0.0,0.0,0.0,0.0,0.0,0.0,0.0,0.0,0.0,0.0,0.0,0.0,0.0,0.0,1.4471,1.5297,0.0,0.0,0.0,0.0,1.396,1.4462,1.5446,1.6974,1.714,1.7661,1.8708,1.8331,1.8114,1.8116,1.8261,1.8309,1.8309,1.9431,1.9988,2.0031,2.1143,2.165,2.165,2.1605,2.159,2.144,1.9465,1.8612,1.8493,1.7818,1.7518,1.7519,1.7579,1.7594,1.7579,1.7685,1.7911,1.8285,1.9013,1.8827,1.8159,1.7354,1.6433,0.0,0.0,1.6848,1.751,1.8889,1.9531,2.0108,2.1212,2.1513,2.145,2.1194,2.1106,2.0598,0.0,1.7585,1.6367,1.5511,0.0,1.4385,1.4334,1.4402,1.496,1.64,1.6831,1.71,1.732,1.679,1.6226,1.5722,1.4952,1.4475,1.4438,1.3721,1.3354,1.3459,1.1952,1.1161,1.1278,0.9773,0.0,0.0,0.0,0.0,0.0,0.0,0.0,0.0,0.0,0.0,0.0,0.0,0.0,0.0,0.0,0.0,0.0,0.0,0.0,0.0,0.0,0.0,0.0,0.0,0.0,0.0,0.0,0.0,1.5318,1.6263,0.0,1.5657,1.6059,1.634,1.6233,1.6732,1.7264,1.7859,1.7905,1.8096,1.8484,1.8639,1.8707,1.8707,1.95,1.9863,1.9887,2.1126,2.1715,2.1723,2.2155,2.2343,2.2328,2.1874,2.1695,2.1635,2.0932,2.0378,1.9956,1.9717,1.9375,1.8986,1.8986,1.8986,1.8986,1.8986,1.9075,1.921,1.9502,1.9138,1.8547,1.8272,1.7948,1.77,1.7923,1.8398,1.8953,1.9457,1.9871,2.0252,2.0668,2.1197,2.1561,2.1477,2.1703,2.1752,2.1181,1.9858,1.8442,1.7208,1.6802,1.6464,1.5994,1.5927,1.6282,1.7287,1.7645,1.7892,1.815,1.7627,1.7069,1.6528,1.5723,1.5091,1.4656,1.4279,1.3691,1.2866,1.2203,1.1458,1.0579,1.0042,0.9363,0.0,0.0,0.0,0.0,0.0,0.0,0.0,0.0,0.0,0.0,0.0,0.0,0.0,0.0,0.0,0.0,0.0,0.0,0.0,0.0,0.0,0.0,0.0,0.0,0.0,0.0,1.612,1.6497,1.7543,1.7971,1.74,1.8027,1.8403,1.8228,1.8719,1.9032,1.9032,1.9208,1.9309,1.9309,1.9673,1.9835,1.9835,2.063,2.1159,2.1401,2.2213,2.2753,2.3057,2.2988,2.2977,2.2987,2.2517,2.2338,2.2338,2.2338,2.1964,2.135,2.1141,2.0632,2.0034,2.0034,1.9902,1.9708,1.9708,1.9708,1.9708,1.9708,1.9408,1.9031,1.9031,1.9031,1.9031,1.9031,1.9346,1.9708,1.9708,1.9909,2.0141,2.0263,2.0846,2.143,2.1567,2.1974,2.2296,2.2296,2.1265,2.0082,1.9113,1.8713,1.829,1.7551,1.7433,1.7534,1.7766,1.8103,1.84,1.8576,1.8141,1.7588,1.695,1.6189,1.5462,1.4758,1.4656,1.4101,1.291,1.2549,1.1791,1.0556,1.0025,0.9494,0.897,0.0,0.0,0.0,0.0,0.0,0.0,0.0,0.0,0.0,0.0,0.0,0.0,0.0,0.0,0.0,0.0,0.0,0.0,0.0,0.0,0.0,0.0,0.0,1.5768,1.6237,1.7014,1.8141,1.9214,1.9659,1.912,2.0014,2.041,1.9874,2.0402,2.0717,2.0717,2.1232,2.1493,2.1493,2.1493,2.1493,2.1493,2.1493,2.1856,2.2551,2.2443,2.286,2.3697,2.3564,2.3583,2.3655,2.364,2.3625,2.3625,2.361,2.3272,2.2658,2.1999,2.1321,2.0718,2.0718,2.0318,1.9768,1.9768,1.9768,1.9768,1.9738,1.9738,1.9738,1.9708,1.9708,1.9708,1.9708,1.9708,1.9708,1.9708,1.9708,1.98,2.0195,2.0649,2.1102,2.1506,2.1974,2.2296,2.2296,2.1718,2.1224,2.1224,2.0568,1.9794,1.908,1.8927,0.0,1.7918,1.8287,1.8595,1.8595,1.8328,1.7814,1.7018,1.6325,1.5588,1.4795,1.4832,1.456,1.3823,1.2979,1.218,1.1406,0.9801,0.8973,0.8935,0.0,0.0,0.0,0.0,0.0,0.0,0.0,0.0,0.0,0.0,0.0,0.0,0.0,0.0,0.0,0.0,0.0,0.0,0.0,0.0,0.0,0.0,1.7513,1.7513,1.8317,1.9171,1.9925,2.0623,2.0964,2.0842,2.1077,2.118,2.1056,2.1207,2.1295,2.1295,2.1405,2.1493,2.1493,2.1493,2.1493,2.1493,2.1493,2.1592,2.1801,2.2213,2.2829,2.3644,2.4052,2.4524,2.5031,2.453,2.4321,2.4291,2.3804,2.349,2.3281,2.2673,2.2029,2.1425,2.1425,2.1306,2.1141,2.1141,2.1141,2.1066,2.0587,2.0438,2.0333,1.9857,1.9708,1.9708,1.9708,1.9708,1.9708,1.9708,1.9708,1.98,2.0195,2.0649,2.1102,2.1506,2.1974,2.2296,2.2296,2.2127,2.2006,2.2006,2.1363,2.0801,2.0598,1.9616,0.0,1.8623,1.8589,1.8595,1.8595,1.8815,1.8647,1.7832,1.7077,1.6319,1.5607,1.4963,1.4308,1.3603,1.3394,1.2702,1.1425,1.0945,1.0425,0.0,0.0,0.0,0.0,0.0,0.0,0.0,0.0,0.0,0.0,0.0,0.0,0.0,0.0,0.0,0.0,0.0,0.0,0.0,0.0,0.0,0.0,1.8091,1.912,1.9823,2.0062,2.0464,2.1282,2.1644,2.192,2.2159,2.2184,2.2184,2.2184,2.2184,2.2184,2.2184,2.2184,2.2184,2.2184,2.2184,2.2184,2.2184,2.2184,2.2474,2.3124,2.318,2.377,2.4873,2.4894,2.516,2.5585,2.5187,2.4859,2.4575,2.4171,2.3864,0.0,0.0,0.0,0.0,0.0,2.1695,2.1695,2.1695,2.1695,2.1635,2.1261,2.1126,2.1051,2.0647,2.0333,2.0124,2.0124,1.9932,1.9708,1.9708,1.9708,1.98,2.0195,2.0649,2.1102,2.1506,2.1974,2.2296,2.2296,2.2296,0.0,2.2296,2.1938,2.1563,2.1241,2.0446,1.9633,1.8978,1.8989,1.8939,1.863,1.9014,1.8967,1.817,1.773,0.0,0.0,0.0,1.4673,1.3587,1.3281,0.0,0.0,0.0,0.0,0.0,0.0,0.0,0.0,0.9908,1.0166,0.0,0.0,0.0,0.0,0.0,0.0,0.0,0.0,0.0,0.0,0.0,0.0,0.0,0.0,0.0,0.0,1.9698,2.0602,2.2096,2.1518,2.1333,2.2284,2.2397,2.2569,2.3058,2.3108,2.3133,2.3195,2.3145,2.3133,2.3195,0.0,0.0,0.0,0.0,2.3125,2.3215,2.3138,2.3872,2.5398,2.4652,2.5094,2.6569,2.5926,2.5696,2.5824,2.5749,2.5367,2.4829,2.4754,2.4321,2.3714,2.3625,2.3266,2.2733,2.2128,2.1904,2.1904,2.1904,0.0,0.0,2.1829,2.1799,2.1799,2.1724,2.1291,2.0808,2.0808,2.0333,1.9813,1.9813,1.9768,1.98,2.0195,2.0649,2.1102,2.1506,2.1974,2.2296,2.2296,2.2296,2.2296,2.2296,2.2296,2.209,2.1427,2.1241,2.0699,1.9345,1.9482,1.9449,1.878,0.0,0.0,1.8298,1.8259,1.7671,1.6248,1.6089,1.5391,1.3921,1.3142,1.2702,1.2636,1.2747,1.2812,1.2822,1.2822,1.2923,1.3106,1.2187,1.2219,0.0,0.0,0.0,0.0,0.0,0.0,0.0,0.0,0.0,0.0,0.0,0.0,0.0,0.0,0.0,2.0163,2.1179,2.1945,2.2243,2.2481,2.2706,2.292,2.2945,2.2995,2.3095,2.3108,2.3296,2.3803,2.3371,2.3308,2.3803,2.3358,2.3108,2.3108,2.3108,2.3424,2.406,2.3424,2.3872,2.5398,0.0,0.0,2.6506,2.6376,2.6656,2.718,2.6632,2.6333,2.6168,2.563,2.5008,2.435,2.3819,2.3535,2.34,2.3281,2.3236,2.3236,2.3236,2.3236,2.3146,2.2673,2.2508,2.2403,2.1859,2.1605,0.0,2.1515,2.1021,2.0494,2.0494,2.0109,1.98,2.0195,2.0649,2.1102,2.1506,2.1974,2.2296,2.2296,2.2296,2.2296,2.2296,2.2296,2.2245,2.2124,2.158,2.1089,2.0784,2.0148,1.9644,1.9502,1.9378,1.9242,1.9077,1.8493,1.801,1.7698,1.6478,1.5682,1.5466,1.4704,1.3993,1.3402,1.341,1.3489,1.3596,1.3596,1.4345,1.5737,1.417,1.3908,0.0,0.0,0.0,0.0,0.0,0.0,0.0,0.0,0.0,0.0,0.0,1.779,0.0,0.0,2.0715,2.2137,2.2799,2.3251,2.3496,2.3772,2.3847,2.3572,2.3534,2.3647,2.3923,2.3948,2.4073,2.4393,2.4111,2.4073,2.4393,2.4098,2.3948,2.3948,2.4058,2.4283,2.4698,2.4395,2.4824,2.596,2.5563,2.5973,2.7034,2.7034,2.7255,2.7585,2.7255,2.6926,2.6542,2.5884,2.5397,2.5068,2.4747,2.4193,2.3595,2.3595,2.3595,2.3595,2.3595,2.3595,2.355,2.3236,2.3152,2.3092,2.2742,2.2428,2.2209,2.2209,2.171,2.1126,2.0778,2.0434,2.0222,2.0287,2.0649,2.1102,2.1506,2.1974,2.2296,2.2296,2.2296,2.2296,2.2296,2.2296,2.2296,2.2296,2.1989,2.1617,2.1241,2.0854,2.0379,1.9765,1.9705,1.9593,1.9326,1.8555,1.8089,1.8089,1.697,1.6323,1.6393,1.6075,1.5732,1.5363,1.5423,1.5485,1.5548,1.5548,1.6056,1.6996,1.6552,1.6392,0.0,0.0,0.0,0.0,0.0,0.0,0.0,0.0,1.6974,1.8656,1.9334,2.0111,2.1694,2.1983,2.246,2.3916,2.4155,2.4318,2.4725,2.4788,2.4625,2.4217,2.4155,2.4343,2.475,2.4788,2.4825,2.4938,2.485,2.4838,2.4938,2.4838,2.4788,2.4788,2.4952,2.5201,2.5488,2.5548,2.5994,2.691,2.6751,2.6995,2.76,2.76,2.76,2.76,2.76,2.7285,2.6761,2.6213,2.5914,2.5794,2.5794,2.5061,2.3984,2.3984,2.3909,2.3789,2.3789,2.3714,2.3595,2.3595,2.3595,2.3616,2.3709,2.3342,2.2903,2.3013,2.2485,2.1794,2.1351,2.1005,2.0788,2.069,2.0892,2.1213,2.1521,2.1974,2.2296,2.2296,2.2296,2.2296,2.2296,2.2296,2.2296,2.2296,2.2296,2.209,2.1495,2.146,2.113,2.0153,2.0071,1.9884,1.9347,1.8702,1.8335,1.8335,1.7575,1.7128,1.7128,1.7088,1.7059,1.7059,1.7166,1.7247,1.7256,1.7256,1.7411,1.7709,1.8455,1.8495,1.4859,1.511,1.563,1.612,1.6622,1.7561,0.0,0.0,1.9823,2.1506,2.1895,2.2309,2.3502,2.3715,2.3941,2.4587,2.47,2.4713,2.4775,2.4788,2.4763,2.4713,2.47,2.4725,2.4775,2.4788,2.5008,2.5473,2.5084,2.5021,2.5485,2.5071,2.4788,2.4788,2.4822,2.5537,2.6948,2.6324,2.6811,2.8356,2.7686,2.7459,2.76,2.76,2.76,2.76,2.76,2.7555,2.748,2.7405,2.7031,2.6482,2.6482,2.6033,2.539,2.539,2.4993,2.4485,2.4485,2.4096,2.3595,2.3595,2.3595,2.3702,2.4178,2.3924,2.3597,2.4071,2.3442,2.2676,2.302,2.2176,2.1357,2.1801,2.1713,2.1536,2.1582,2.1974,2.2296,2.2296,2.2296,2.2296,2.2296,2.2296,2.2296,2.2296,2.2296,2.2262,2.2178,2.1785,2.1443,2.1307,2.0579,1.9884,1.9347,1.9224,1.9168,1.9168,1.8408,1.7961,1.7961,1.7296,1.6917,1.6917,1.693,1.699,1.7125,1.7125,1.7562,1.8383,1.8678,1.8824,1.7174,1.7451,0.0,0.0,1.9359,2.01,2.1343,2.1681,2.2004,2.3075,2.3552,2.4004,2.4782,2.4933,2.5121,0.0,2.5774,2.5774,2.5774,2.5485,2.5272,2.5272,2.5008,2.4913,2.5247,2.5272,2.5498,2.6084,2.5933,2.6084,2.6788,2.6176,2.5995,2.6452,2.6598,2.6996,2.7671,2.7977,2.8492,2.916,2.8465,2.8165,2.8184,2.7779,2.76,2.76,2.76,2.76,2.76,2.76,2.7435,2.718,2.718,2.7016,2.6662,2.5899,2.5412,2.5173,2.5173,2.4739,2.4171,2.4171,2.3924,2.3702,2.4225,2.4225,2.4178,2.4697,2.4304,2.3728,2.3843,2.3196,2.2443,2.2173,2.2167,2.2123,2.1696,2.1974,2.2296,2.2296,2.2296,2.2296,2.2296,2.2296,2.2296,2.2296,2.2296,2.2296,2.2296,2.2102,2.1858,2.1539,2.0665,2.0011,1.9783,1.9486,1.9297,1.9297,1.8985,1.8794,1.8794,1.8482,1.8298,1.8298,1.8298,1.8309,1.8379,1.8379,1.8642,1.9145,1.9311,1.9444,1.8556,0.0,0.0,2.0679,2.1571,2.2284,2.2686,2.317,2.3735,2.4318,2.4644,2.4938,2.5498,2.5598,2.5737,2.6185,2.6386,2.6499,2.6499,2.5996,2.5548,2.5398,2.4921,2.4745,2.5121,2.5641,2.6029,2.6223,2.6625,2.7095,2.767,2.7162,2.7196,2.8019,2.8198,2.8384,2.863,2.9406,2.9805,2.9834,2.9355,2.9041,2.8846,2.8184,2.7779,2.76,2.76,2.76,2.76,2.76,2.76,2.76,2.76,2.76,2.748,2.6497,2.6033,2.5884,2.5884,2.5307,2.4605,2.4605,2.4141,2.373,2.441,2.4532,2.4536,2.524,2.5031,2.4626,2.4689,2.4252,2.3652,2.3173,2.2979,2.2754,2.2207,2.2197,2.2296,2.2296,2.2296,2.2296,2.2296,2.2296,2.2296,2.2296,2.2296,2.2296,2.2296,2.2296,2.2099,2.1548,2.0971,2.0482,2.0127,1.9822,1.9536,1.9315,1.9297,1.9297,1.9297,1.9297,1.9297,1.9297,1.9297,1.9297,1.9297,1.9297,1.9365,1.952,1.9713,1.9852,0.0,0.0,2.0779,2.1358,2.2698,2.3929,2.3941,2.4368,2.4888,2.5435,2.5159,2.4938,2.5498,2.5598,2.5598,2.5624,2.6135,2.6499,2.6499,2.5996,2.541,2.4876,2.4356,2.4029,0.0,2.576,2.6525,2.569,2.6893,2.767,2.7703,2.767,2.8051,2.8939,2.8989,2.9383,3.024,3.0256,3.0353,3.0477,3.0447,3.0133,2.9562,2.8876,2.8203,2.76,2.76,2.76,2.76,2.76,2.76,2.76,2.76,2.76,2.76,2.754,2.7136,2.6557,2.6557,2.5719,2.4605,2.4605,2.4141,2.3794,2.4871,2.4796,2.4632,2.567,2.5596,2.5281,2.5819,2.5349,2.4875,2.5378,2.4411,2.3361,2.3344,2.2786,2.2296,2.2296,2.2296,2.2296,2.2296,2.2296,2.2296,2.2296,2.2296,2.2296,2.2296,2.2296,2.2099,2.1548,2.1779,2.1437,2.0217,2.0323,2.0126,1.9352,1.9297,1.9297,1.9297,1.9297,1.9297,1.9297,1.9297,1.9297,1.9297,1.9297,1.9297,1.9312,1.9645,1.9796,0.0,0.0,2.2071,2.3376,2.4381,2.5159,2.5581,2.5473,2.5385,2.5561,2.4895,2.433,2.4506,2.4531,2.4657,2.5021,2.5536,2.6047,2.6436,2.5996,2.541,2.485,2.4343,0.0,0.0,0.0,0.0,2.5581,2.6563,2.7586,2.8497,2.8556,2.8971,2.9858,2.9858,3.0011,3.0299,3.0837,3.1101,3.1152,3.0717,3.0178,2.9592,2.9382,2.9157,2.8903,2.8468,2.8248,2.8218,2.7779,2.76,2.76,2.76,2.76,2.76,2.76,2.7465,2.727,2.727,2.6686,2.5854,2.5397,2.4799,2.4376,2.5013,2.507,2.5147,2.6175,2.6104,2.5835,2.6349,2.6027,2.5606,2.5596,2.4847,2.4,2.3511,2.2818,2.2296,2.2296,2.2296,2.2296,2.2296,2.2296,2.2296,2.2296,2.2296,2.2296,2.2296,2.2296,2.2237,2.2044,2.1815,2.1575,2.1384,2.1153,2.0752,2.0136,2.0089,1.9858,1.9315,1.9297,1.9297,1.9297,1.9297,1.9297,1.9297,1.9297,1.9297,1.9323,2.009,2.0539,2.1292,2.2334,2.3263,2.4732,2.5498,2.5984,2.6147,2.5862,2.5485,2.5109,2.4155,2.3401,2.3401,2.3075,2.3188,2.4343,2.4808,2.536,2.6361,2.5996,2.5473,2.5146,2.4619,2.4406,0.0,0.0,0.0,2.6005,2.705,2.818,2.9397,2.9473,2.9858,3.0703,3.0748,3.0748,3.0748,3.1248,3.1511,3.1496,3.1062,3.0537,2.9909,2.9909,2.9789,2.9592,2.9131,2.8951,2.8906,2.8244,2.7959,2.7944,2.769,2.76,2.76,2.76,2.76,2.76,2.76,2.7165,2.6482,2.5824,2.5143,2.4649,2.4836,2.5047,2.5373,2.621,2.6349,2.6314,2.6624,2.647,2.6215,2.6033,2.5423,2.4746,2.4289,2.341,2.2699,2.2699,2.2482,2.2296,2.2296,2.2296,2.2296,2.2296,2.2296,2.2296,2.2296,2.2296,2.2296,2.2296,2.2085,2.1888,2.1832,2.165,2.1332,2.0815,2.0796,2.0474,1.9767,1.973,1.9583,1.9315,1.9583,1.973,1.973,2.005,2.0197,2.0205,2.0971,2.1403,2.2133,2.3238,2.433,2.5372,2.6059,2.6298,2.5724,2.5523,2.5172,2.413,2.2987,2.2142,0.0,0.0,2.1408,2.3552,2.3979,2.4607,2.626,2.6021,2.5624,0.0,0.0,0.0,0.0,0.0,0.0,2.6974,0.0,2.9383,3.0208,3.0299,3.0703,3.1467,3.1511,3.1511,3.1511,3.1511,3.1511,3.1511,3.1511,3.1167,3.0552,3.0552,3.0238,2.9711,2.9666,2.9651,2.9606,2.8921,2.8622,2.8532,2.7899,2.763,2.76,2.76,2.76,2.76,2.76,2.718,2.6527,2.5869,2.5217,2.4672,2.4523,2.4839,2.5365,2.5905,2.6349,2.6691,2.6691,2.6691,2.6691,2.6691,2.6133,2.5592,2.5592,2.4475,2.3458,2.341,2.2801,2.2296,2.2296,2.2296,2.2296,2.2296,2.2296,2.2296,2.2296,2.2296,2.2296,2.2296,2.2541,2.2375,2.1658,2.1879,2.1878,2.1417,2.1391,2.1143,2.0586,2.0566,2.0199,1.9444,2.0181,2.0566,2.0566,2.14,2.1794,2.1803,2.2162,2.2348,2.3735,2.4669,2.536,2.6097,2.6059,2.5774,2.5636,2.4644,2.3547,2.2887,2.1518,2.0326,0.0,0.0,0.0,2.2523,2.3791,0.0,2.6323,2.6361,0.0,2.5649,0.0,2.5963,2.5752,2.6694,0.0,0.0,2.897,2.9302,2.932,3.0524,3.1278,3.1511,3.1511,3.1511,3.1511,3.1511,3.1511,3.1511,3.1511,3.1406,3.1241,3.1241,3.1152,3.0972,3.0492,3.0268,3.0223,2.9594,2.9041,2.8577,2.8412,2.8049,2.76,2.76,2.76,2.76,2.76,2.748,2.724,2.6557,2.6228,2.6042,2.5811,2.5839,2.6044,2.6412,2.6607,2.6691,2.6691,2.6691,2.6691,2.6691,2.6133,2.5592,2.5592,2.4864,2.4068,2.3511,2.2801,2.2296,2.2296,2.2296,2.2296,2.2296,2.2296,2.2296,2.2296,2.2296,2.2296,2.2296,2.236,2.2499,2.2745,2.2847,2.2789,2.2574,2.2566,2.2246,2.1492,2.1482,2.1372,2.117,2.1353,2.1482,2.1482,2.1684,2.1794,2.1821,2.2504,2.2957,2.4845,2.5561,2.6084,2.6411,2.6059,2.541,2.4682,2.3584,2.238,2.1102,1.9924,0.0,0.0,0.0,0.0,0.0,0.0,0.0,2.5896,2.6549,2.6738,0.0,2.6841,0.0,2.7276,2.7965,2.8705,0.0,2.9643,2.9865,3.0088,3.0999,3.1511,3.1511,3.1511,3.1511,3.1511,3.1511,3.1511,3.1511,3.1511,3.1511,3.1511,3.1511,3.1511,3.1481,0.0,3.0956,3.0883,3.0253,2.9759,2.9385,2.8816,2.8368,2.8004,2.7705,2.76,2.76,2.76,2.76,2.748,2.6821,2.6587,2.6585,2.6377,2.6265,2.629,2.6753,2.6791,2.6691,2.6691,2.6691,2.6691,2.6691,2.6387,2.6082,2.6082,2.5507,2.4661,2.3613,2.3071,2.2682,2.2347,2.2296,2.2296,2.2296,2.2296,2.2296,2.2296,2.2296,2.2296,2.2296,2.2296,2.248,2.2935,2.2984,2.307,2.328,2.332,2.3004,2.2354,2.2336,2.2161,2.1812,2.2161,2.2336,2.2336,2.2675,2.2859,2.2877,2.3408,2.3814,2.5528,2.6109,2.6499,2.6499,2.5946,2.4983,2.3446,2.2564,2.1476,1.9409,0.0,1.8183,1.8107,1.7783,1.8366,2.0981,0.0,2.3075,2.5285,2.644,2.7118,2.7268,2.777,2.8411,2.9148,2.9495,2.973,2.9791,3.0284,3.0805,3.1307,3.1438,3.1511,3.1511,3.1511,3.1511,3.1511,3.1511,3.1511,3.1511,3.1511,3.1511,3.1511,3.1511,3.1511,3.1511,3.1511,3.1511,3.1451,3.0853,3.0582,3.0387,2.9205,2.8682,2.8517,2.7854,2.76,2.76,2.76,2.76,2.7495,2.6926,2.6722,2.6733,2.6746,2.6624,2.6591,2.7057,2.7037,2.6826,2.6725,2.6691,2.6691,2.6691,2.6691,2.6691,2.6691,2.6116,2.5221,2.3934,2.3528,2.319,2.2564,2.2364,2.2296,2.2296,2.2296,2.2296,2.2296,2.2296,2.2296,2.2296,2.2296,2.2398,2.2669,2.2746,2.3033,2.366,2.3735,2.3587,2.318,2.3153,2.2832,2.2125,2.2795,2.3153,2.3153,2.3859,2.419,2.4199,2.4375,2.4575,2.598,2.6411,2.6499,2.6499,2.5393,2.4079,2.3283,2.1967,0.0,0.0,0.0,1.8048,1.7552,1.7792,1.8668,2.0541,0.0,0.0,0.0,0.0,2.6239,0.0,0.0,0.0,0.0,0.0,0.0,0.0,0.0,3.1663,3.0583,3.1161,3.1511,3.1511,3.1511,3.1511,3.1511,3.1511,3.1511,3.1511,3.1511,3.1511,3.1511,3.1511,3.1511,3.1511,3.1511,0.0,3.1496,3.1376,3.0987,3.0432,2.9699,2.9086,2.8517,2.7854,2.76,2.76,2.76,2.76,2.757,2.7465,2.742,2.7508,2.7859,2.7955,2.7911,2.7731,2.7653,2.7469,2.686,2.6691,2.6691,2.6691,2.6691,2.6691,2.6691,2.6116,2.5508,2.527,2.4239,2.3359,2.3224,2.2699,2.2296,2.2296,2.2296,2.2296,2.2296,2.2296,2.2296,2.2296,2.2296,2.2398,2.2669,2.296,2.3288,2.3682,2.3966,2.4068,2.4006,2.3988,2.3933,2.3786,2.3914,2.3988,2.3988,2.4135,2.419,2.419,2.4237,2.4444,2.6199,2.6499,2.6424,2.6122,2.4996,2.3707,2.2531,0.0,0.0,0.0,0.0,1.7634,1.7344,0.0,0.0,0.0,0.0,0.0,0.0,0.0,0.0,0.0,0.0,0.0,0.0,0.0,0.0,0.0,0.0,3.2275,3.0999,3.1278,3.1511,3.1511,3.1511,3.1511,3.1511,3.1511,3.1511,3.1511,3.1511,3.1511,3.1511,3.1511,3.1511,3.1511,3.1511,3.1511,3.1511,3.1511,3.1316,3.0941,2.9968,2.9412,2.8981,2.7989,2.76,2.76,2.76,2.76,2.7635,2.7968,2.8067,2.8161,2.8699,2.8834,2.8796,2.8955,2.8415,2.7722,2.735,2.6996,2.6691,2.6691,2.6691,2.6691,2.6691,2.642,2.6065,2.566,2.4712,2.3864,2.346,2.2801,2.2296,2.2296,2.2296,2.2296,2.2296,2.2296,2.2296,2.2296,2.2296,2.2398,2.2669,2.3009,2.3346,2.3682,2.4016,2.419,2.419,2.419,2.419,2.419,2.419,2.419,2.419,2.419,2.419,2.419,2.419,2.4419,2.6079,2.6399,2.6361,2.5737,2.4695,2.3402,2.1862,2.0627,0.0,0.0,1.7947,1.7605,1.7483,0.0,0.0,0.0,0.0,0.0,0.0,0.0,0.0,0.0,0.0,0.0,0.0,0.0,0.0,0.0,0.0,3.2606,3.1765,3.1585,3.1511,3.1511,3.1511,3.1511,3.1511,3.1511,3.1511,3.1511,3.1511,3.1511,3.1511,3.1511,3.1511,3.1511,3.1511,3.1511,3.1511,3.1511,3.1511,3.1376,3.0103,2.9606,2.9442,2.8094,2.76,2.76,2.76,2.76,2.7685,2.8295,2.8487,2.8654,2.9361,2.9523,2.9542,2.9972,2.9108,2.801,2.7841,2.7249,2.6691,2.6691,2.6691,2.6691,2.6691,2.6691,2.6522,2.5947,2.5101,2.4321,2.3746,2.2885,2.2296,2.2296,2.2296,2.2296,2.2296,2.2296,2.2296,2.2296,2.2296,2.2388,2.2599,2.2972,2.3311,2.3577,2.3958,2.419,2.419,2.419,2.419,2.419,2.419,2.419,2.419,2.419,2.419,2.419,2.419,2.4419,2.5278,2.6097,2.6361,2.5737,2.4393,2.2879,2.1771,0.0,0.0,1.8959,1.8798,1.8593,1.8125,1.7625,0.0,0.0,0.0,0.0,0.0,0.0,0.0,0.0,0.0,0.0,0.0,0.0,0.0,0.0,0.0,3.2512,3.2407,3.1824,3.1511,3.1511,3.1511,3.1511,3.1511,3.1511,3.1511,3.1511,3.1511,3.1511,3.1511,3.1511,3.1511,3.1511,3.1511,3.1511,0.0,3.1511,3.1511,3.1376,3.0103,2.9606,2.9442,2.8094,2.76,2.76,2.76,2.76,2.7685,2.8295,2.8487,2.8709,2.987,3.0201,3.0183,3.0123,2.9516,2.8722,2.7993,2.7249,2.6691,2.6691,2.6691,2.6691,2.6691,2.6691,2.6674,2.6607,2.5455,2.4474,2.4406,2.3224,2.2296,2.2296,2.2296,2.2296,2.2296,2.2296,2.2296,2.2296,2.2296,2.231,2.2335,2.287,2.3212,2.3236,2.3855,2.419,2.419,2.419,2.419,2.419,2.419,2.419,2.419,2.419,2.419,2.419,2.419,2.4419,2.5073,2.5762,2.5812,2.5272,2.4098,2.2803,2.1691,0.0,1.9725,1.9432,1.9132,1.8727,1.8204,1.7666,1.7261,0.0,1.7353,1.8155,0.0,0.0,0.0,0.0,0.0,0.0,0.0,0.0,0.0,0.0,0.0,3.3095,3.3095,3.2079,3.1511,3.1511,3.1511,3.1511,3.1511,3.1511,3.1511,3.1511,3.1511,3.1511,3.1511,3.1511,3.1511,3.1511,3.1511,3.1511,0.0,3.1511,3.1511,3.1406,3.0507,2.9909,2.9502,2.8532,2.7959,2.76,2.76,2.76,2.776,2.8732,2.9042,2.9203,3.0043,3.0539,3.0848,3.0777,3.0226,2.9482,2.8721,2.7604,2.6691,2.6691,2.6691,2.6691,2.6691,2.6691,2.6691,2.6691,2.5862,2.5017,2.4575,2.3644,2.2818,2.2364,2.2296,2.2296,2.2296,2.2296,2.2296,2.2296,2.2296,2.2377,2.2541,2.2952,2.3288,2.35,2.3937,2.419,2.419,2.419,2.419,2.419,2.419,2.419,2.419,2.419,2.419,2.419,2.419,2.4419,2.4117,2.487,2.4996,2.4424,2.3556,2.2567,0.0,0.0,1.9753,1.9716,1.9406,1.893,1.8243,1.7787,1.7312,1.6616,1.6638,1.7277,1.8795,0.0,0.0,0.0,0.0,0.0,0.0,0.0,0.0,0.0,3.4254,3.3709,3.3499,3.2437,3.1705,3.1511,3.1511,3.1511,3.1511,3.1511,3.1511,3.1511,3.1511,3.1511,3.1511,3.1511,3.1511,3.1511,3.1511,3.1511,0.0,3.1511,3.1511,3.1436,3.0748,3.0118,2.9532,2.8846,2.8173,2.76,2.76,2.76,2.7795,2.9019,2.9406,2.954,3.033,3.0858,3.119,3.119,3.0666,2.9888,2.889,2.7841,2.6962,2.6742,2.6691,2.6691,2.6691,2.6691,2.6691,2.6691,2.6099,2.5439,2.4914,2.4019,2.3224,2.2699,2.2431,2.2296,2.2296,2.2296,2.2296,2.2296,2.2374,2.2487,2.2682,2.3009,2.3346,2.3682,2.4016,2.419,2.419,2.419,2.419,2.419,2.419,2.419,2.419,2.419,2.419,2.419,2.419,2.4384,2.2046,2.3163,2.3879,2.3271,2.2728,2.201,0.0,2.0139,1.9695,1.97,1.9708,1.9369,1.8302,1.8106,1.7747,1.668,1.6999,1.7765,1.8845,0.0,0.0,0.0,0.0,0.0,0.0,0.0,0.0,0.0,3.4304,0.0,3.3529,3.2871,3.2183,3.1525,3.1511,3.1511,3.1511,3.1511,3.1511,3.1511,3.1511,3.1511,3.1511,3.1511,3.1511,3.1511,3.1511,3.1511,0.0,3.1511,3.1511,3.1436,3.0748,3.0118,2.9532,2.8846,2.8173,2.76,2.76,2.76,2.7795,2.9019,2.9406,2.9629,3.0838,3.119,3.119,3.119,3.0666,2.9734,2.8213,2.7807,2.7604,2.686,2.6691,2.6691,2.6691,2.6691,2.6691,2.6691,2.6099,2.5592,2.5592,2.4374,2.3393,2.3376,2.2767,2.2296,2.2296,2.2296,2.2296,2.2296,2.2537,2.2695,2.2708,2.3009,2.3346,2.3682,2.4016,2.419,2.419,2.419,2.419,2.419,2.419,2.419,2.419,2.419,2.419,2.419,2.419,2.4312,2.0817,2.1471,2.171,2.1521,2.1309,2.0943,2.0225,1.9873,1.9565,1.9102,1.9393,1.9345,1.817,1.8042,1.8119,1.8196,1.8068,0.0,0.0,0.0,0.0,0.0,0.0,0.0,0.0,0.0,0.0,3.4061,3.3873,3.3709,3.3499,3.2437,3.172,3.1511,3.1511,3.1511,3.1511,3.1511,3.1511,3.1511,3.1511,3.1511,3.1511,3.1511,3.1511,3.1511,3.1511,3.1511,3.1511,3.1511,3.1511,3.1481,3.1271,3.0806,3.0133,2.9505,2.8846,2.8203,2.7764,2.7885,2.8343,2.9134,2.9673,3.0166,3.0975,3.119,3.119,3.119,3.0666,2.9871,2.8873,2.8196,2.7604,2.6877,2.6691,2.6691,2.6691,2.6691,2.6691,2.6691,2.6505,2.6184,2.5693,2.4797,2.3983,2.3477,2.2784,2.2377,2.255,2.256,2.2652,2.2895,2.2989,2.3045,2.3045,2.3357,2.3682,2.4016,2.4151,2.419,2.419,2.419,2.419,2.419,2.419,2.419,2.419,2.419,2.419,2.4199,2.433,2.4435,0.0,2.0054,2.0361,2.0361,2.0486,2.0446,1.9883,1.9524,1.9188,1.8798,1.9031,1.904,1.8083,1.7998,1.8153,1.8332,1.808,0.0,0.0,0.0,0.0,0.0,0.0,0.0,0.0,0.0,3.4691,3.4061,3.3903,3.3754,3.3499,3.2482,3.1765,3.1511,3.1511,3.1511,3.1511,3.1511,3.1511,3.1511,3.1511,3.1511,3.1511,3.1511,3.1511,3.1511,3.1511,3.1511,0.0,3.1511,3.1511,3.1511,3.1511,3.1077,3.0432,2.9804,2.916,2.8528,2.8102,2.8189,2.8654,2.9473,3.0145,3.0699,3.1075,3.119,3.119,3.119,3.0869,3.0345,2.96,2.8839,2.8061,2.73,2.6894,2.6691,2.6691,2.6691,2.6691,2.6691,2.6691,2.6539,2.6099,2.5406,2.4644,2.3932,2.319,2.2708,2.2691,2.2708,2.2835,2.3165,2.3305,2.3392,2.3392,2.3577,2.3837,2.418,2.419,2.419,2.419,2.419,2.419,2.419,2.419,2.419,2.419,2.419,2.419,2.4199,2.4339,2.4393,0.0,0.0,0.0,0.0,1.9932,2.0192,1.9632,1.9049,0.0,1.8568,1.8625,1.855,1.8046,1.8035,1.7988,1.7615,1.7476,0.0,0.0,0.0,0.0,0.0,0.0,0.0,0.0,3.2953,3.4061,3.4027,3.4274,3.4174,3.3529,3.2826,3.2123,3.1525,3.1511,3.1511,3.1511,3.1511,3.1511,3.1511,3.1511,3.1511,3.1511,3.1511,3.1511,0.0,3.1511,3.1511,3.1511,3.1511,3.1511,3.1511,3.1511,3.1122,3.0492,2.9961,2.93,2.8744,2.8667,2.8653,2.8826,2.9995,3.074,3.119,3.119,3.119,3.119,3.119,3.119,3.1021,3.0294,2.9583,2.8874,2.7993,2.7266,2.6759,2.6708,2.6691,2.6691,2.6691,2.6691,2.6691,2.6691,2.6099,2.5372,2.4677,2.3949,2.3317,2.2873,2.2803,2.2925,2.3242,2.3555,2.3742,2.3742,2.3742,2.3876,2.418,2.419,2.419,2.419,2.419,2.419,2.419,2.419,2.419,2.419,2.419,2.419,2.419,2.419,2.419,1.5531,0.0,1.6513,1.6513,1.715,1.773,0.0,1.7761,1.7788,1.7279,0.0,0.0,1.8532,1.8294,1.8521,1.9773,1.9202,1.9003,0.0,0.0,0.0,0.0,0.0,0.0,0.0,3.4401,3.4839,3.4061,3.3829,3.3664,3.3499,3.2392,3.166,3.1511,3.1511,3.1511,3.1511,3.1511,3.1511,3.1511,3.1511,3.1511,3.1511,3.1511,3.1511,3.1511,3.1511,3.1511,3.1511,3.1511,3.1511,3.1511,3.1511,3.1406,3.1267,3.1155,3.0678,3.0038,3.0046,2.9952,3.0,3.0757,3.1075,3.119,3.119,3.119,3.119,3.119,3.119,3.1021,3.0294,2.9973,2.9499,2.8128,2.7672,2.7384,2.6826,2.6691,2.6691,2.6691,2.6691,2.6691,2.6691,2.6099,2.5541,2.5372,2.4695,2.4154,2.3959,2.3912,2.3934,2.3951,2.4044,2.4084,2.4084,2.4084,2.4132,2.4208,2.419,2.419,2.419,2.419,2.419,2.419,2.419,2.419,2.419,2.419,2.419,2.419,2.419,2.419,1.4748,1.5851,1.6944,1.6461,1.7491,1.8548,1.8241,0.0,0.0,0.0,0.0,0.0,0.0,0.0,0.0,0.0,2.036,0.0,0.0,0.0,0.0,0.0,0.0,0.0,0.0,3.4884,3.4818,3.427,3.3489,3.3036,3.3036,3.2049,3.1511,3.1511,3.1511,3.1511,3.1511,3.1511,3.1511,3.1511,3.1511,3.1511,3.1511,3.1511,3.1511,3.1511,3.1511,3.1511,3.1511,3.1511,3.1511,3.1511,3.1511,3.1726,3.1942,3.1327,3.1031,3.0921,3.0548,3.0558,3.0777,3.1095,3.119,3.119,3.119,3.119,3.119,3.119,3.119,3.1106,3.0717,3.0362,2.9886,2.9041,2.8314,2.7689,2.7283,2.6945,2.6691,2.6691,2.6691,2.6691,2.6691,2.637,2.5998,2.5643,2.5253,2.497,2.4866,2.485,2.4968,2.5267,2.5309,2.5144,2.4787,2.475,2.4585,2.4226,2.419,2.419,2.419,2.419,2.419,2.419,2.419,2.419,2.419,2.419,2.419,2.419,2.419,2.419,1.485,1.6866,1.8691,1.7329,1.8561,1.9964,1.9403,0.0,0.0,0.0,0.0,0.0,0.0,0.0,0.0,0.0,0.0,0.0,0.0,0.0,0.0,0.0,0.0,0.0,3.5355,3.4816,3.4474,3.4369,3.32,3.2512,3.2512,3.1854,3.1511,3.1511,3.1511,3.1511,3.1511,3.1511,3.1511,3.1511,3.1511,3.1511,3.1511,3.1511,3.1511,3.1511,0.0,0.0,3.1511,3.1511,3.1553,3.1668,3.1668,3.2104,3.262,3.1404,3.1257,3.1515,3.0723,3.076,3.119,3.119,3.119,3.119,3.119,3.119,3.119,3.119,3.119,3.119,3.119,3.0734,3.0243,3.0142,2.9092,2.8094,2.7858,2.73,2.6826,2.6708,2.6691,2.6691,2.6691,2.6691,2.6488,2.5862,2.5778,2.574,2.5685,2.5689,2.5922,2.653,2.6602,2.6319,2.5631,2.5576,2.5283,2.4612,2.4337,2.419,2.419,2.419,2.419,2.419,2.419,2.419,2.419,2.419,2.419,2.419,2.419,2.419,1.5983,1.7855,1.8941,1.6267,1.6549,1.7459,1.7358,0.0,0.0,0.0,0.0,0.0,0.0,0.0,0.0,0.0,0.0,0.0,0.0,0.0,0.0,0.0,0.0,3.528,3.4728,3.4563,3.4279,3.3694,3.2946,3.2512,3.2512,3.1854,3.1511,3.1511,3.1511,3.1511,3.1511,3.1511,3.1511,3.1511,3.1511,3.1511,3.1511,3.1511,3.1511,3.1511,0.0,3.1511,3.1511,3.1511,3.1881,3.2437,3.2437,3.2841,3.3409,3.3153,3.2723,3.2141,3.134,3.1131,3.119,3.119,3.119,3.119,3.119,3.119,3.119,3.119,3.119,3.119,3.119,3.1106,3.0869,3.026,2.992,2.9379,2.8077,2.7705,2.7452,2.6826,2.6691,2.6691,2.6691,2.6691,2.6657,2.6539,2.6522,2.6527,2.6507,2.6515,2.6545,2.6592,2.6602,2.6557,2.6429,2.6429,2.6355,2.6245,2.4942,2.419,2.419,2.419,2.419,2.419,2.419,2.419,2.419,2.419,2.419,2.419,2.419,2.419,1.5997,1.7335,1.8308,1.7017,1.8382,1.9847,1.9104,0.0,0.0,0.0,0.0,0.0,0.0,0.0,0.0,0.0,0.0,2.7304,2.877,3.0411,3.1632,0.0,0.0,3.4292,3.3978,3.3619,3.329,3.2991,3.2333,3.1959,3.1959,3.1675,3.1511,3.1511,3.1511,3.1511,3.1511,3.1511,3.1511,3.1511,3.1511,3.1511,3.1511,3.1511,3.1511,3.1524,0.0,3.1881,3.1553,3.2324,3.2625,3.2641,3.2986,3.3556,3.408,3.3626,3.2727,3.17,3.1328,3.119,3.119,3.119,3.119,3.119,3.119,3.119,3.119,3.119,3.119,3.119,3.119,3.119,3.1106,3.0768,3.0395,2.9803,2.8687,2.8094,2.757,2.6843,2.6691,2.6691,2.6691,2.6691,2.6691,2.6691,2.6691,2.6851,2.7292,2.7356,2.75,2.7855,2.7904,2.7721,2.7291,2.7255,2.7053,2.662,2.5493,2.4842,2.4842,2.4428,2.419,2.419,2.419,2.419,2.419,2.419,2.419,2.419,2.419,2.419,1.6383,1.7191,1.8004,1.8261,0.0,2.1654,2.1099,0.0,0.0,0.0,0.0,0.0,0.0,2.355,0.0,2.769,2.8607,2.9213,2.9726,3.091,3.1693,3.1534,3.2685,3.344,3.3275,3.2811,3.2422,3.2273,3.1795,3.1511,3.1511,3.1511,3.1511,3.1511,3.1511,3.1511,3.1511,3.1511,3.1511,3.1511,3.1511,3.1511,3.1511,3.1511,3.1582,3.1796,3.2355,3.2382,3.2076,3.3156,3.3391,3.3119,3.3633,3.4023,3.423,3.3422,3.2324,3.119,3.119,3.119,3.119,3.119,3.119,3.119,3.119,3.119,3.119,3.119,3.119,3.119,3.119,3.119,3.119,3.119,3.0768,3.0159,2.9433,2.8636,2.7858,2.7097,2.6826,2.6691,2.6691,2.6691,2.6691,2.6691,2.6691,2.7004,2.7797,2.7897,2.8188,2.8917,2.9005,2.8748,2.8136,2.8081,2.7824,2.7189,2.6227,2.5686,2.5686,2.4915,2.4493,2.4493,2.43,2.419,2.419,2.419,2.419,2.419,2.419,2.419,1.8147,1.8568,1.8775,1.9415,1.9372,0.0,2.1409,2.1359,0.0,2.3121,0.0,0.0,0.0,2.5989,2.7779,2.9232,2.9968,3.0599,3.1245,0.0,3.2422,3.2408,3.3065,3.326,3.2647,3.2542,3.2228,3.163,3.1525,3.1511,3.1511,3.1511,3.1511,3.1511,3.1511,3.1511,3.1511,3.1511,3.1511,3.1511,3.1511,3.1511,3.1511,3.1511,3.1881,3.2504,3.2574,3.2906,3.3453,3.3556,3.3937,3.4455,3.4503,3.4103,3.3394,3.2662,3.1887,3.119,3.119,3.119,3.119,3.119,3.119,3.119,3.119,3.119,3.119,3.119,3.119,3.119,3.119,3.119,3.119,3.119,3.1157,3.092,3.0192,2.9431,2.867,2.7874,2.7182,2.6691,2.6691,2.6691,2.6691,2.6691,2.6691,2.7004,2.7797,2.7897,2.8188,2.8917,2.9005,2.8987,2.8932,2.8913,2.8895,2.884,2.7372,2.6521,2.6521,2.5742,2.5301,2.5301,2.4585,2.419,2.419,2.419,2.419,2.419,2.419,2.419,1.7309,1.8371,1.9375,1.9648,2.0504,0.0,0.0,2.3141,2.4133,2.5247,2.5803,0.0,0.0,0.0,2.8502,2.9457,3.0462,3.1212,3.1466,3.172,3.1869,3.1869,3.2093,3.2153,3.1899,3.1869,3.1765,3.1525,3.1511,3.1511,3.1511,3.1511,3.1511,3.1511,3.1511,3.1511,3.1511,3.1511,3.1511,3.1511,3.1511,3.1511,3.1511,3.1511,3.1894,3.2614,3.3039,3.3365,3.3659,3.4512,3.4752,3.4615,3.4558,3.3787,3.2682,3.2412,3.1836,3.119,3.119,3.119,3.119,3.119,3.119,3.119,3.119,3.119,3.119,3.119,3.119,3.119,3.119,3.119,3.119,3.119,3.119,3.1004,3.026,2.9516,2.8773,2.7959,2.7199,2.6691,2.6691,2.6691,2.6691,2.6691,2.6923,2.727,2.784,2.8075,2.8412,2.894,2.9005,2.9005,2.9005,2.9005,2.9005,2.9005,2.797,2.7346,2.7346,2.6576,2.6153,2.6153,2.586,2.5695,2.5695,2.5191,2.4952,2.4934,2.4428,2.419,1.707,1.8177,1.9453,1.9648,0.0,0.0,2.3482,2.4642,2.5914,2.7006,2.7615,0.0,0.0,0.0,0.0,0.0,3.0778,3.1511,3.1511,3.1511,3.1511,3.1511,3.1511,3.1511,3.1511,3.1511,3.1511,3.1511,3.1511,3.1511,3.1511,3.1511,3.1511,3.1511,3.1511,3.1511,3.1511,3.1511,3.1511,3.1511,3.1511,3.1511,3.1511,3.1511,3.2035,3.2949,3.3391,3.3836,3.4301,3.5207,3.5188,3.4549,3.4268,3.3389,3.2276,3.2039,3.1613,3.119,3.119,3.119,3.119,3.119,3.119,3.119,3.119,3.119,3.119,3.119,3.119,3.119,3.119,3.119,3.119,3.119,3.119,3.1055,3.0565,2.9871,2.911,2.8332,2.7571,2.6962,2.6742,2.6691,2.6691,2.6691,2.6939,2.7303,2.784,2.8102,2.8438,2.894,2.9005,2.9005,2.9005,2.9005,2.9005,2.9005,2.8484,2.8172,2.8172,2.742,2.6979,2.6979,2.6741,2.6602,2.6602,2.6043,2.5778,2.5778,2.5199,2.4961,1.7893,1.8192,1.8897,0.0,0.0,0.0,2.5181,2.563,2.6213,2.8218,0.0,2.8816,2.9502,0.0,0.0,3.0402,3.1062,3.1511,3.1511,3.1511,3.1511,3.1511,3.1511,3.1511,3.1511,3.1511,3.1511,3.1511,3.1511,3.1511,3.1511,3.1511,3.1511,3.1511,3.1511,3.1511,3.1511,3.1511,3.1511,3.1511,3.1511,3.1511,3.1511,3.1511,3.2284,3.3582,3.3582,3.435,3.56,3.5583,3.5165,3.4404,3.3677,3.2933,3.2209,3.1461,3.119,3.119,3.119,3.119,3.119,3.119,3.119,3.119,3.119,3.119,3.119,3.119,3.119,3.119,3.119,3.119,3.119,3.119,3.119,3.119,3.119,3.0615,2.9888,2.9145,2.8349,2.757,2.6826,2.6691,2.6691,2.6691,2.6708,2.6987,2.7811,2.7911,2.8188,2.8917,2.9005,2.9005,2.9005,2.9005,2.9005,2.9005,2.9005,2.9005,2.9005,2.8227,2.7816,2.7816,2.7034,2.662,2.662,2.6631,2.6602,2.6602,2.6602,2.6602,1.7893,1.9208,0.0,2.1051,0.0,0.0,0.0,2.7365,0.0,0.0,0.0,2.9998,3.0193,0.0,0.0,3.0477,3.1062,3.1511,3.1511,3.1511,3.1511,3.1511,3.1511,3.1511,3.1511,3.1511,3.1511,3.1511,3.1511,3.1511,3.1511,3.1511,3.1511,3.1511,3.1511,3.1511,3.1511,3.1511,3.1511,3.1511,3.2035,3.2007,3.1511,3.1511,3.2284,3.3582,3.3582,3.435,3.5549,3.5047,3.4083,3.2936,3.2716,3.2192,3.1515,3.1275,3.119,3.119,3.119,3.119,3.119,3.119,3.119,3.119,3.119,3.119,3.119,3.119,3.119,3.119,3.119,3.119,3.119,3.119,3.119,3.119,3.119,3.0615,2.9888,2.9145,2.8349,2.757,2.6826,2.6691,2.6691,2.6691,2.7178,2.7823,2.8589,2.8676,2.8767,2.8982,2.9005,2.9005,2.9005,2.9005,2.9005,2.9005,2.9005,2.9005,2.9005,2.8767,2.8638,2.8638,2.84,2.829,2.829,2.7732,2.7438,2.742,2.6869,2.6602,1.8521,2.0064,0.0,2.2323,2.4537,2.6986,2.8438,0.0,0.0,0.0,0.0,3.0582,3.0866,3.0687,0.0,3.0838,3.1241,3.1511,3.1511,3.1511,3.1511,3.1511,3.1511,3.1511,3.1511,3.1511,3.1511,3.1511,3.1511,3.1511,3.1511,3.1511,3.1511,3.1511,3.1511,3.1511,3.1511,3.1511,3.1511,3.1511,3.1951,3.2092,3.1951,3.2201,3.2944,3.3996,3.3966,3.4416,3.5115,3.437,3.3376,3.2293,3.2293,3.1853,3.119,3.119,3.119,3.119,3.119,3.119,3.119,3.119,3.119,3.119,3.119,3.119,3.119,3.119,3.119,3.119,3.119,3.119,3.119,3.119,3.119,3.119,3.119,3.0852,3.0328,2.9567,2.8805,2.8044,2.7266,2.7028,2.6939,2.6939,2.7601,2.825,2.8694,2.8905,2.9005,2.9005,2.9005,2.9005,2.9005,2.9005,2.9005,2.9005,2.9005,2.9005,2.9005,2.9005,2.9005,2.9005,2.9005,2.9005,2.9005,2.851,2.8282,2.8264,2.7776,2.7556,1.9438,0.0,0.0,2.3445,2.5375,0.0,3.0043,0.0,3.0748,3.1376,0.0,3.0791,3.1391,3.0987,3.0806,3.1406,3.1511,3.1511,3.1511,3.1511,3.1511,3.1511,3.1511,3.1511,3.1511,3.1511,3.1511,3.1511,3.1511,3.1511,3.1511,3.1511,3.1511,3.1511,3.1511,3.1511,3.1511,3.1511,3.1511,3.1511,3.1625,3.2035,3.2722,3.3261,3.3912,3.4591,3.4533,3.4455,3.4336,3.3592,3.2865,3.2209,3.2209,3.1802,3.119,3.119,3.119,3.119,3.119,3.119,3.119,3.119,3.119,3.119,3.119,3.119,3.119,3.119,3.119,3.119,3.119,3.119,3.119,3.119,3.119,3.119,3.119,3.119,3.097,3.0243,2.9499,2.8773,2.808,2.7584,2.7317,2.7394,2.7974,2.8402,2.8446,2.8773,2.9005,2.9005,2.9005,2.9005,2.9005,2.9005,2.9005,2.9005,2.9005,2.9005,2.9005,2.9005,2.9005,2.9005,2.9005,2.9005,2.9005,2.9005,2.9005,2.9005,2.9005,2.9005,0.0,2.0647,0.0,0.0,0.0,0.0,0.0,0.0,3.1331,3.1466,3.1391,3.1331,3.1481,3.1376,3.1331,3.1481,3.1511,3.1511,3.1511,3.1511,3.1511,3.1511,3.1511,3.1511,3.1511,3.1511,3.1511,3.1511,3.1511,3.1511,3.1511,3.1511,3.1511,3.1511,3.1511,3.1511,3.1511,3.1511,3.1511,3.1496,3.261,3.3235,3.3365,3.2986,3.3469,3.4591,3.4533,3.4167,3.3575,3.2831,3.2107,3.1427,3.1427,3.1326,3.119,3.119,3.119,3.119,3.119,3.119,3.119,3.119,3.119,3.119,3.119,3.119,3.119,3.119,3.119,3.119,3.119,3.119,3.119,3.119,3.119,3.119,3.119,3.119,3.097,3.0243,2.9499,2.9051,2.9196,2.8139,2.75,2.8084,2.8298,2.8509,2.8839,2.894,2.9005,2.9005,2.9005,2.9005,2.9005,2.9005,2.9005,2.9005,2.9005,2.9005,2.9005,2.9005,2.9005,2.9005,2.9005,2.9005,2.9005,2.9005,2.9005,2.9005,2.9005,2.9005,0.0,0.0,0.0,0.0,0.0,0.0,0.0,0.0,0.0,0.0,3.1511,3.1511,3.1511,3.1511,3.1511,3.1511,3.1511,3.1511,3.1511,3.1511,3.1511,3.1511,3.1511,3.1511,3.1511,3.1511,3.1511,3.1511,3.1511,3.1511,3.1511,3.1511,3.1511,3.1511,3.1511,3.1511,3.1511,3.1511,3.1511,3.1496,3.2214,3.2717,3.304,3.3721,3.4243,3.453,3.4139,3.3541,3.2814,3.209,3.1565,3.119,3.119,3.119,3.119,3.119,3.119,3.119,3.119,3.119,3.119,3.119,3.119,3.119,3.119,3.119,3.119,3.119,3.119,3.119,3.119,3.1332,3.1488,3.1488,3.1488,3.143,3.1232,3.1351,3.131,3.0738,3.0195,2.9884,3.0092,2.9178,2.8596,2.9165,2.8919,2.8761,2.8964,2.9005,2.9005,2.9005,2.9005,2.9005,2.9005,2.9005,2.9005,2.9005,2.9005,2.9005,2.9005,2.9005,2.9005,2.9005,2.9005,2.9005,2.9005,2.9005,2.9005,2.9005,2.9005,2.9005,0.0,0.0,0.0,0.0,0.0,0.0,0.0,0.0,0.0,0.0,3.1511,3.1511,3.1511,3.1511,3.1511,3.1511,3.1511,3.1511,3.1511,3.1511,3.1511,3.1511,3.1511,3.1511,3.1511,3.1511,3.1511,3.1511,3.1511,3.1511,3.1511,3.1511,3.1451,3.1331,3.1331,3.1271,3.1167,3.1167,3.1167,3.1152,3.1332,3.1833,3.2629,3.4415,3.4895,3.4269,3.3525,3.2848,3.2242,3.1495,3.119,3.119,3.119,3.119,3.119,3.119,3.119,3.119,3.119,3.119,3.119,3.119,3.119,3.119,3.119,3.119,3.119,3.119,3.119,3.121,3.1291,3.1547,3.1825,3.1897,3.1969,3.1933,3.1506,3.1695,3.1807,3.1487,3.1268,3.1043,3.0764,3.0389,3.0184,3.0375,2.9831,2.9409,2.9409,2.9409,2.9354,2.9225,2.9207,2.9152,2.9005,2.9005,2.9005,2.9005,2.9005,2.9005,2.9005,2.9005,2.9005,2.9005,2.9005,2.9005,2.9005,2.9005,2.9005,2.9005,2.9005,2.9005,0.0,0.0,0.0,0.0,0.0,0.0,0.0,0.0,0.0,0.0,3.1511,3.1511,3.1511,3.1511,3.1511,3.1511,3.1511,3.1511,3.1511,3.1511,3.1511,3.1511,3.1511,3.1511,3.1511,3.1511,3.1511,3.1511,3.1511,3.1511,3.1511,3.1511,3.1227,3.0657,3.0642,3.0387,2.9849,2.9849,2.9849,2.9876,3.0961,3.2111,3.3279,3.3567,3.3643,3.3508,3.2784,3.2395,3.2242,3.1495,3.119,3.119,3.119,3.119,3.119,3.119,3.119,3.119,3.119,3.119,3.119,3.119,3.119,3.119,3.119,3.119,3.119,3.119,3.119,3.1291,3.164,3.1752,3.1897,3.2316,3.2713,3.2887,3.2417,3.2367,3.2401,3.2333,3.2608,3.2436,3.1089,3.162,3.1975,3.1347,3.1146,3.1085,3.1085,3.1085,3.0797,3.0118,3.0044,2.9769,2.906,2.9005,2.9005,2.9005,2.9005,2.9005,2.9005,2.9005,2.9005,2.9005,2.9005,2.9005,2.9005,2.9005,2.9005,2.9005,2.9005,2.9005,1.776,0.0,0.0,0.0,0.0,0.0,0.0,0.0,0.0,0.0,3.1241,3.1511,3.1511,3.1511,3.1511,3.1511,3.1511,3.1511,3.1511,3.1511,3.1511,3.1511,3.1511,3.1511,3.1511,3.1511,3.1511,3.1511,3.1511,3.1511,3.1511,3.1137,3.0806,3.0507,3.0516,3.0224,2.9621,2.9951,3.0089,3.0068,3.1382,3.2061,3.2188,3.2594,3.278,3.2763,3.2446,3.2073,3.1667,3.1326,3.119,3.119,3.119,3.119,3.119,3.119,3.119,3.119,3.119,3.119,3.119,3.119,3.119,3.119,3.119,3.119,3.119,3.119,3.119,3.1291,3.1696,3.2004,3.2298,3.2777,3.3211,3.3494,3.327,3.306,3.2887,3.2887,3.306,3.3056,3.2598,3.2564,3.2472,3.2137,3.1678,3.1397,3.1397,3.1397,3.1268,3.0907,3.087,3.0723,3.0375,2.9934,2.9666,2.9666,2.9244,2.9005,2.9005,2.9005,2.9005,2.9005,2.9005,2.9005,2.9005,2.9005,2.9005,2.9005,2.9005,2.9005,0.0,0.0,0.0,0.0,0.0,0.0,0.0,0.0,0.0,0.0,3.0672,3.1062,3.1212,3.1391,3.1511,3.1511,3.1511,3.1511,3.1511,3.1511,3.1511,3.1511,3.1511,3.1511,3.1511,3.1511,3.1511,3.1511,3.1346,3.1241,3.1241,3.0642,3.0261,3.0244,3.0247,3.0012,2.955,3.0004,3.0266,3.0396,3.1377,3.1622,3.1207,3.1769,3.2022,3.2022,3.2022,3.1718,3.119,3.119,3.119,3.119,3.119,3.119,3.119,3.119,3.119,3.119,3.119,3.119,3.119,3.119,3.119,3.119,3.119,3.119,3.119,3.119,3.119,3.1329,3.1843,3.223,3.2648,3.3229,3.3578,3.3807,3.3807,3.3564,3.3346,3.3346,3.3346,3.3451,3.3748,3.3311,3.2894,3.2894,3.2394,3.2021,3.2021,3.2021,3.1929,3.1733,3.1696,3.1623,3.1415,3.0852,3.0503,3.0503,2.9953,2.9519,2.9317,2.9299,2.9207,2.9005,2.9005,2.9005,2.9005,2.9005,2.9005,2.9005,2.9005,2.9005,0.0,0.0,0.0,0.0,0.0,0.0,0.0,0.0,0.0,0.0,2.9654,2.9864,3.0447,3.1062,3.1511,3.1511,3.1511,3.1511,3.1511,3.1511,3.1511,3.1511,3.1511,3.1511,3.1511,3.1511,3.1511,3.1511,3.0898,3.0552,3.0552,2.9968,2.9603,2.9558,2.9546,2.9498,2.9405,2.945,2.9748,3.0316,3.0371,3.0684,3.119,3.1241,3.1258,3.1258,3.1258,3.1241,3.119,3.119,3.119,3.119,3.119,3.119,3.119,3.119,3.119,3.119,3.119,3.119,3.119,3.119,3.119,3.119,3.119,3.119,3.119,3.119,3.119,3.1406,3.223,3.2484,3.2713,3.3578,3.3775,3.3807,3.3807,3.3775,3.3762,3.3762,3.3762,3.378,3.3807,3.377,3.3733,3.3733,3.3697,3.3678,3.3678,3.3678,3.3385,3.2619,3.2528,3.2228,3.147,3.136,3.1342,3.1342,3.1305,3.0925,3.0173,3.0136,2.9776,2.9005,2.9005,2.9005,2.9005,2.9005,2.9005,2.9005,2.9005,2.9005,0.0,0.0,0.0,0.0,0.0,0.0,0.0,0.0,0.0,0.0,2.9007,2.9681,2.9864,3.0432,3.0987,3.1436,3.1511,3.1511,3.1511,3.1511,3.1511,3.1511,3.1511,3.1511,3.1511,3.1511,3.1316,3.0883,3.0642,3.0328,2.9924,2.931,2.913,2.9484,2.9469,2.9617,2.9973,2.9995,3.0102,3.0293,3.0699,3.0995,3.119,3.119,3.119,3.119,3.119,3.119,3.119,3.119,3.119,3.119,3.119,3.119,3.119,3.119,3.119,3.119,3.119,3.119,3.119,3.119,3.119,3.119,3.119,3.119,3.119,3.119,3.1389,3.1715,3.235,3.2713,3.309,3.3648,3.3807,3.3807,3.3807,3.3807,3.3807,3.3807,3.3807,3.3807,3.3807,3.3807,3.3807,3.3807,3.3807,3.3807,3.3807,3.3807,3.3697,3.3403,3.3366,3.3256,3.2963,3.2467,3.2173,3.2173,3.1678,3.1268,3.098,3.0467,3.0063,2.9776,2.9262,2.9005,2.9005,2.9005,2.9005,2.9005,2.9005,2.9005,0.0,0.0,0.0,0.0,0.0,0.0,0.0,0.0,0.0,0.0,2.7824,2.8738,2.916,2.9579,3.0088,3.0761,3.1017,3.1152,3.1152,3.1361,3.1511,3.1511,3.1511,3.1511,3.1511,3.1301,3.0972,3.0537,3.0103,0.0,2.958,2.8929,2.8937,2.9738,2.9915,3.0187,3.0597,3.0601,3.0601,3.0617,3.1015,3.119,3.119,3.119,3.119,3.119,3.119,3.119,3.119,3.119,3.119,3.119,3.119,3.119,3.119,3.119,3.119,3.119,3.119,3.119,3.119,3.119,3.119,3.119,3.119,3.119,3.123,3.137,3.1603,3.1933,3.2583,3.3075,3.348,3.3734,3.3807,3.3807,3.3807,3.3807,3.3807,3.3807,3.3807,3.3807,3.3807,3.3807,3.3807,3.3807,3.3807,3.3807,3.3807,3.3807,3.3807,3.3807,3.3807,3.3807,3.3807,3.3311,3.2999,3.2999,3.2504,3.2082,3.1806,3.1035,3.0485,3.021,2.9409,2.9005,2.9005,2.9005,2.9005,2.9005,2.9005,2.9005,0.0,0.0,0.0,0.0,0.0,0.0,0.0,0.0,0.0,0.0,2.6063,2.6916,2.8263,2.8532,2.8742,2.9412,3.0043,3.0477,3.0477,3.1017,3.1451,3.1451,3.1451,3.1451,3.1451,3.0866,3.0477,3.0447,2.9295,2.8848,2.9429,2.8892,2.9088,3.0251,3.0878,3.119,3.119,3.119,3.119,3.119,3.119,3.119,3.119,3.119,3.119,3.119,3.119,3.119,3.119,3.119,3.119,3.119,3.119,3.119,3.119,3.119,3.119,3.119,3.119,3.119,3.119,3.119,3.119,3.119,3.119,3.119,3.1291,3.1696,3.1825,3.2039,3.2965,3.3508,3.3807,3.3807,3.3807,3.3807,3.3807,3.3807,3.3807,3.3807,3.3807,3.3807,3.3807,3.3807,3.3807,3.3807,3.3807,3.3807,3.3807,3.3807,3.3807,3.3807,3.3807,3.3807,3.3807,3.3807,3.3807,3.3807,3.3807,3.3458,3.2674,3.1861,3.1072,3.0283,2.9482,2.906,2.9042,2.9005,2.9005,2.9005,2.9005,2.9005,1.43,0.0,0.0,0.0,0.0,0.0,0.0,0.0,0.0,0.0,0.0,2.4837,2.6183,2.6826,2.72,2.7395,2.8798,2.9834,2.9834,2.9998,3.0118,3.0118,3.0118,3.0118,3.0118,2.9953,2.9639,0.0,2.8801,2.8651,2.8773,2.9428,2.9973,3.0293,3.0878,3.119,3.119,3.119,3.119,3.119,3.119,3.119,3.119,3.119,3.119,3.119,3.119,3.119,3.119,3.119,3.119,3.119,3.119,3.119,3.119,3.119,3.119,3.119,3.119,3.119,3.119,3.119,3.119,3.119,3.119,3.119,3.1291,3.1696,3.2039,3.25,3.3404,3.3721,3.3807,3.3807,3.3807,3.3807,3.3807,3.3807,3.3807,3.3807,3.3807,3.3807,3.3807,3.3807,3.3807,3.3807,3.3807,3.3807,3.3807,3.3807,3.3807,3.3807,3.3807,3.3807,3.3807,3.3807,3.3807,3.3807,3.3807,3.3697,3.3476,3.2706,3.2161,3.194,3.1146,3.0448,2.9879,2.928,2.9005,2.9005,2.9005,2.9317,0.0,0.0,0.0,0.0,0.0,0.0,0.0,2.0212,0.0,0.0,0.0,2.3535,2.4582,2.5315,2.5779,2.5779,2.7215,2.8558,2.9086,2.94,2.9606,2.9606,2.9606,2.9606,2.9606,2.9367,2.9011,2.8622,2.8338,2.8394,2.8842,3.0021,3.0679,3.0679,3.1015,3.119,3.119,3.119,3.119,3.119,3.119,3.119,3.119,3.119,3.119,3.119,3.119,3.119,3.119,3.119,3.119,3.119,3.119,3.119,3.119,3.119,3.119,3.119,3.119,3.119,3.123,3.1408,3.1449,3.1506,3.1694,3.1732,3.1841,3.2264,3.2695,3.3166,3.3662,3.3807,3.3807,3.3807,3.3807,3.3807,3.3807,3.3807,3.3807,3.3807,3.3807,3.3807,3.3807,3.3807,3.3807,3.3807,3.3807,3.3807,3.3807,3.3807,3.3807,3.3807,3.3807,3.3807,3.3807,3.3807,3.3807,3.3807,3.3807,3.3807,3.3807,3.3036,3.2601,3.2601,3.1806,3.1176,3.0705,2.9886,2.95,2.95,2.9831,3.0246,0.0,0.0,0.0,0.0,0.0,0.0,2.0328,2.0033,1.9707,0.0,0.0,0.0,2.32,2.3899,2.4372,2.4432,2.5533,2.6841,2.8188,2.8978,2.9382,2.9382,2.9382,2.9382,2.9382,2.8831,2.8513,2.8576,2.8157,2.8376,2.9451,3.058,3.119,3.119,3.119,3.119,3.119,3.119,3.119,3.119,3.119,3.119,3.119,3.119,3.119,3.119,3.119,3.119,3.119,3.119,3.119,3.119,3.119,3.119,3.119,3.119,3.119,3.119,3.119,3.119,3.1269,3.166,3.1807,3.188,3.2367,3.2501,3.2599,3.306,3.3494,3.3807,3.3807,3.3807,3.3807,3.3807,3.3807,3.3807,3.3807,3.3807,3.3807,3.3807,3.3807,3.3807,3.3807,3.3807,3.3807,3.3807,3.3807,3.3807,3.3807,3.3807,3.3807,3.3807,3.3807,3.3807,3.3807,3.3807,3.3807,3.3807,3.3807,3.3807,3.3807,3.3109,3.2729,3.2729,3.1935,3.1531,3.1525,3.0723,3.0338,3.0356,3.1072,3.1452,0.0,0.0,0.0,0.0,0.0,0.0,1.8934,1.8934,1.9179,0.0,0.0,0.0,0.0,0.0,0.0,0.0,2.4359,2.5457,2.6797,2.757,2.7989,2.7989,2.7989,2.7989,2.7989,2.7869,2.7996,2.8486,2.9305,2.987,3.0123,3.0818,3.119,3.119,3.119,3.119,3.119,3.119,3.119,3.119,3.119,3.119,3.119,3.119,3.119,3.119,3.119,3.119,3.119,3.119,3.119,3.119,3.119,3.119,3.119,3.119,3.119,3.119,3.119,3.119,3.1269,3.166,3.1807,3.188,3.2367,3.2501,3.2599,3.306,3.3494,3.3807,3.3807,3.3807,3.3807,3.3807,3.3807,3.3807,3.3807,3.3807,3.3807,3.3807,3.3807,3.3807,3.3807,3.3807,3.3807,3.3807,3.3807,3.3807,3.3807,3.3807,3.3807,3.3807,3.3807,3.3807,3.3807,3.3807,3.3807,3.3807,3.3807,3.3807,3.3807,3.3642,3.3568,3.3568,3.2779,3.2375,3.2362,3.1549,3.1176,3.1176,3.1342,3.1751,0.0,0.0,0.0,2.0767,0.0,0.0,0.0,2.0159,1.9991,2.0766,2.0081,0.0,0.0,0.0,0.0,0.0,0.0,0.0,2.4582,2.5764,2.6587,2.6587,2.6587,2.6587,2.6587,2.6587,2.6998,2.793,2.9419,3.0293,3.0293,3.0878,3.119,3.119,3.119,3.119,3.119,3.119,3.119,3.119,3.119,3.119,3.119,3.119,3.119,3.119,3.119,3.119,3.119,3.119,3.119,3.119,3.119,3.119,3.119,3.119,3.119,3.119,3.119,3.119,3.131,3.1933,3.2144,3.2281,3.295,3.3148,3.3196,3.3433,3.3634,3.3807,3.3807,3.3807,3.3807,3.3807,3.3807,3.3807,3.3807,3.3807,3.3807,3.3807,3.3807,3.3807,3.3807,3.3807,3.3807,3.3807,3.3807,3.3807,3.3807,3.3807,3.3807,3.3807,3.3807,3.3807,3.3807,3.3807,3.3807,3.3807,3.3807,3.3807,3.3807,3.3807,3.3807,3.3807,3.3403,3.3201,3.3201,3.2797,3.2394,3.2008,3.2412,3.2816,0.0,0.0,0.0,0.0,0.0,2.1833,0.0,0.0,0.0,2.1921,0.0,0.0,0.0,0.0,0.0,0.0,0.0,0.0,0.0,0.0,0.0,2.5181,2.528,2.5409,2.5567,2.5561,2.6084,2.7375,2.8736,2.9692,3.01,3.0677,3.1055,3.119,3.119,3.119,3.119,3.119,3.119,3.119,3.119,3.119,3.119,3.119,3.119,3.119,3.119,3.119,3.119,3.119,3.119,3.119,3.119,3.119,3.119,3.119,3.119,3.119,3.119,3.1252,3.1449,3.223,3.2616,3.2887,3.3592,3.3807,3.3807,3.3807,3.3807,3.3807,3.3807,3.3807,3.3807,3.3807,3.3807,3.3807,3.3807,3.3807,3.3807,3.3807,3.3807,3.3807,3.3807,3.3807,3.3807,3.3807,3.3807,3.3807,3.3807,3.3807,3.3807,3.3807,3.3807,3.3807,3.3807,3.3807,3.3807,3.3807,3.3807,3.3807,3.3807,3.3807,3.3807,3.3807,3.3807,3.3807,3.3807,3.3855,3.3524,3.2839,3.3495,3.3807,0.0,0.0,0.0,0.0,2.3668,0.0,0.0,0.0,2.1667,2.0158,0.0,0.0,0.0,0.0,0.0,0.0,0.0,0.0,0.0,0.0,0.0,2.3653,2.4192,2.4712,2.537,2.5365,2.5883,2.7227,2.6904,2.7462,2.9336,2.9923,3.0531,3.1173,3.119,3.119,3.119,3.119,3.119,3.119,3.119,3.119,3.119,3.119,3.119,3.119,3.119,3.119,3.119,3.119,3.119,3.119,3.119,3.119,3.119,3.119,3.119,3.119,3.119,3.143,3.1807,3.2333,3.3027,3.3662,3.3762,3.3807,3.3807,3.3807,3.3807,3.3807,3.3807,3.3807,3.3807,3.3807,3.3807,3.3807,3.3807,3.3807,3.3807,3.3807,3.3807,3.3807,3.3807,3.3807,3.3807,3.3807,3.3807,3.3807,3.3807,3.3807,3.3807,3.3807,3.3807,3.3807,3.3807,3.3807,3.3807,3.3807,3.3807,3.3807,3.3807,3.3807,3.3807,3.3807,3.3807,3.3807,3.3807,3.4043,3.3994,3.3678,3.3752,3.3807,0.0,0.0,0.0,0.0,0.0,0.0,2.2199,0.0,2.22,0.0,0.0,0.0,0.0,0.0,0.0,0.0,2.0533,0.0,0.0,0.0,0.0,0.0,0.0,0.0,2.3515,2.3882,2.4567,2.5756,2.6059,2.6861,2.8342,2.9488,3.0243,3.0548,3.097,3.119,3.119,3.119,3.119,3.119,3.119,3.119,3.119,3.119,3.119,3.119,3.119,3.119,3.119,3.119,3.119,3.119,3.119,3.119,3.119,3.119,3.119,3.119,3.119,3.131,3.1564,3.2265,3.3087,3.3807,3.3807,3.3807,3.3807,3.3807,3.3807,3.3807,3.3807,3.3807,3.3807,3.3807,3.3807,3.3807,3.3807,3.3807,3.3807,3.3807,3.3807,3.3807,3.3807,3.3807,3.3807,3.3807,3.3807,3.3807,3.3807,3.3807,3.3807,3.3807,3.3807,3.3807,3.3807,3.3807,3.3807,3.3807,3.3807,3.3807,3.3807,3.3807,3.3807,3.3807,3.3807,3.3807,3.3807,3.408,3.4147,3.4031,3.4225,3.4307,2.6378,0.0,0.0,0.0,0.0,0.0,0.0,0.0,0.0,0.0,0.0,0.0,0.0,0.0,0.0,0.0,0.0,0.0,0.0,0.0,0.0,0.0,0.0,0.0,0.0,2.2239,2.2893,2.4221,2.4443,2.5344,2.7209,2.8496,2.9465,3.0072,3.0615,3.1004,3.119,3.119,3.119,3.119,3.119,3.119,3.119,3.119,3.119,3.119,3.119,3.119,3.119,3.119,3.119,3.119,3.119,3.119,3.119,3.119,3.119,3.119,3.119,3.1368,3.1712,3.2565,3.3284,3.3807,3.3807,3.3807,3.3807,3.3807,3.3807,3.3807,3.3807,3.3807,3.3807,3.3807,3.3807,3.3807,3.3807,3.3807,3.3807,3.3807,3.3807,3.3807,3.3807,3.3807,3.3807,3.3807,3.3807,3.3807,3.3807,3.3807,3.3807,3.3807,3.3807,3.3807,3.3807,3.3807,3.3807,3.3807,3.3807,3.3807,3.3807,3.3807,3.3807,3.3807,3.3807,3.3842,3.3915,3.4213,3.436,3.4449,3.4614,3.4694,0.0,0.0,0.0,2.5026,0.0,0.0,0.0,0.0,2.422,0.0,0.0,0.0,0.0,0.0,0.0,0.0,0.0,0.0,0.0,0.0,0.0,0.0,0.0,0.0,0.0,2.0719,2.1022,0.0,2.1376,2.1971,2.5848,2.6537,2.7824,3.0021,3.0125,3.048,3.119,3.119,3.119,3.119,3.119,3.119,3.119,3.119,3.119,3.119,3.119,3.119,3.119,3.119,3.119,3.119,3.119,3.119,3.119,3.119,3.119,3.119,3.119,3.175,3.2599,3.3476,3.3793,3.3807,3.3807,3.3807,3.3807,3.3807,3.3807,3.3807,3.3807,3.3807,3.3807,3.3807,3.3807,3.3807,3.3807,3.3807,3.3807,3.3807,3.3807,3.3807,3.3807,3.3807,3.3807,3.3807,3.3807,3.3807,3.3807,3.3807,3.3807,3.3807,3.3807,3.3807,3.3807,3.3807,3.3807,3.3807,3.3807,3.3807,3.3807,3.3807,3.3807,3.3807,3.3807,3.3941,3.4195,3.4518,3.4813,3.507,3.4832,3.4694,0.0,0.0,2.9294,2.6995,0.0,0.0,0.0,0.0,0.0,0.0,0.0,0.0,0.0,0.0,0.0,0.0,0.0,0.0,0.0,0.0,0.0,0.0,0.0,0.0,0.0,0.0,0.0,0.0,2.146,0.0,2.4174,2.5814,2.7283,2.8534,2.9565,3.0446,3.119,3.119,3.119,3.119,3.119,3.119,3.119,3.119,3.119,3.119,3.119,3.119,3.119,3.119,3.119,3.119,3.119,3.119,3.123,3.1507,3.143,3.1249,3.1507,3.2196,3.3014,3.3302,3.3578,3.3807,3.3807,3.3807,3.3807,3.3807,3.3807,3.3807,3.3807,3.3807,3.3807,3.3807,3.3807,3.3807,3.3807,3.3807,3.3807,3.3807,3.3807,3.3807,3.3807,3.3807,3.3807,3.3807,3.3807,3.3807,3.3807,3.3807,3.3807,3.3807,3.3807,3.3807,3.3807,3.3807,3.3807,3.3807,3.3807,3.3807,3.3807,3.3807,3.3807,3.3807,3.3807,3.3842,3.3954,3.4442,3.4763,3.4832,3.5105,3.5223,2.9726,3.0028,0.0,2.8544,2.7958,0.0,2.534,0.0,0.0,0.0,0.0,0.0,0.0,0.0,0.0,0.0,0.0,0.0,0.0,1.8894,0.0,0.0,0.0,0.0,0.0,0.0,1.9969,2.1259,2.0888,0.0,0.0,2.4998,2.637,2.7367,2.8907,3.0057,3.0801,3.1072,3.119,3.119,3.119,3.119,3.119,3.119,3.119,3.119,3.119,3.119,3.119,3.119,3.119,3.119,3.119,3.1291,3.143,3.1528,3.1507,3.1506,3.2092,3.2679,3.3229,3.3361,3.3578,3.3807,3.3807,3.3807,3.3807,3.3807,3.3807,3.3807,3.3807,3.3807,3.3807,3.3807,3.3807,3.3807,3.3807,3.3807,3.3807,3.3807,3.3807,3.3807,3.3807,3.3807,3.3807,3.3807,3.3807,3.3807,3.3807,3.3807,3.3807,3.3807,3.3807,3.3807,3.3807,3.3807,3.3807,3.3807,3.3807,3.3807,3.3807,3.3807,3.3807,3.3807,3.3889,3.3999,3.4123,3.4622,3.4898,3.499,3.5346,3.55]}]]